<?xml version="1.0" encoding="UTF-8" standalone="no" ?>
<gpx xmlns="http://www.topografix.com/GPX/1/1" xmlns:xsi="http://www.w3.org/2001/XMLSchema-instance" xsi:schemaLocation="http://www.topografix.com/GPX/1/1 http://www.topografix.com/GPX/1/1/gpx.xsd" version="1.1" creator="VisuGPX - https://www.visugpx.com">
  <metadata>
    <name>Thoraise-ASCD</name>
  </metadata>
  <trk>
    <name><![CDATA[Thoraise-ASCD_1]]></name>
    <extensions>
      <line xmlns="http://www.topografix.com/GPX/gpx_style/0/2">
        <color>0000FF</color>
        <width>4</width>
      </line>
    </extensions>
    <trkseg>
      <trkpt lat="47.17433" lon="5.90244">
        <ele>254.2</ele>
        <time>2021-08-08T07:48:50Z</time>
      </trkpt>
      <trkpt lat="47.17433" lon="5.90237">
        <ele>245.1</ele>
        <time>2021-08-08T07:55:12Z</time>
      </trkpt>
      <trkpt lat="47.17431" lon="5.9023">
        <ele>246</ele>
        <time>2021-08-08T07:57:25Z</time>
      </trkpt>
      <trkpt lat="47.17429" lon="5.90223">
        <ele>245.5</ele>
        <time>2021-08-08T07:57:32Z</time>
      </trkpt>
      <trkpt lat="47.17428" lon="5.90217">
        <ele>245.2</ele>
        <time>2021-08-08T07:57:43Z</time>
      </trkpt>
      <trkpt lat="47.17427" lon="5.9021">
        <ele>245.5</ele>
        <time>2021-08-08T07:57:50Z</time>
      </trkpt>
      <trkpt lat="47.17424" lon="5.90205">
        <ele>245.3</ele>
        <time>2021-08-08T07:57:55Z</time>
      </trkpt>
      <trkpt lat="47.17422" lon="5.90199">
        <ele>244.8</ele>
        <time>2021-08-08T07:57:59Z</time>
      </trkpt>
      <trkpt lat="47.1742" lon="5.90192">
        <ele>244.1</ele>
        <time>2021-08-08T07:58:04Z</time>
      </trkpt>
      <trkpt lat="47.17418" lon="5.90185">
        <ele>243.9</ele>
        <time>2021-08-08T07:58:09Z</time>
      </trkpt>
      <trkpt lat="47.17419" lon="5.90178">
        <ele>244.2</ele>
        <time>2021-08-08T07:58:14Z</time>
      </trkpt>
      <trkpt lat="47.1742" lon="5.90171">
        <ele>244.7</ele>
        <time>2021-08-08T07:58:18Z</time>
      </trkpt>
      <trkpt lat="47.17419" lon="5.90164">
        <ele>245.1</ele>
        <time>2021-08-08T07:58:22Z</time>
      </trkpt>
      <trkpt lat="47.1742" lon="5.90157">
        <ele>245.6</ele>
        <time>2021-08-08T07:58:26Z</time>
      </trkpt>
      <trkpt lat="47.17421" lon="5.90149">
        <ele>245.7</ele>
        <time>2021-08-08T07:58:31Z</time>
      </trkpt>
      <trkpt lat="47.17421" lon="5.90142">
        <ele>245.3</ele>
        <time>2021-08-08T07:58:36Z</time>
      </trkpt>
      <trkpt lat="47.1742" lon="5.90135">
        <ele>245</ele>
        <time>2021-08-08T07:58:40Z</time>
      </trkpt>
      <trkpt lat="47.1742" lon="5.90128">
        <ele>244.6</ele>
        <time>2021-08-08T07:58:45Z</time>
      </trkpt>
      <trkpt lat="47.1742" lon="5.9012">
        <ele>243.9</ele>
        <time>2021-08-08T07:58:51Z</time>
      </trkpt>
      <trkpt lat="47.1742" lon="5.90112">
        <ele>243.6</ele>
        <time>2021-08-08T07:58:55Z</time>
      </trkpt>
      <trkpt lat="47.1742" lon="5.90104">
        <ele>243.2</ele>
        <time>2021-08-08T07:58:59Z</time>
      </trkpt>
      <trkpt lat="47.17419" lon="5.90097">
        <ele>242.7</ele>
        <time>2021-08-08T07:59:03Z</time>
      </trkpt>
      <trkpt lat="47.17419" lon="5.9009">
        <ele>242</ele>
        <time>2021-08-08T07:59:07Z</time>
      </trkpt>
      <trkpt lat="47.17418" lon="5.90083">
        <ele>241.1</ele>
        <time>2021-08-08T07:59:12Z</time>
      </trkpt>
      <trkpt lat="47.17419" lon="5.90076">
        <ele>240.5</ele>
        <time>2021-08-08T07:59:17Z</time>
      </trkpt>
      <trkpt lat="47.17419" lon="5.90069">
        <ele>240.6</ele>
        <time>2021-08-08T07:59:22Z</time>
      </trkpt>
      <trkpt lat="47.17419" lon="5.90061">
        <ele>240.9</ele>
        <time>2021-08-08T07:59:27Z</time>
      </trkpt>
      <trkpt lat="47.17421" lon="5.90053">
        <ele>240.8</ele>
        <time>2021-08-08T07:59:32Z</time>
      </trkpt>
      <trkpt lat="47.17422" lon="5.90047">
        <ele>240.9</ele>
        <time>2021-08-08T07:59:36Z</time>
      </trkpt>
      <trkpt lat="47.17424" lon="5.90039">
        <ele>240.9</ele>
        <time>2021-08-08T07:59:40Z</time>
      </trkpt>
      <trkpt lat="47.17425" lon="5.90031">
        <ele>240.8</ele>
        <time>2021-08-08T07:59:44Z</time>
      </trkpt>
      <trkpt lat="47.17426" lon="5.90024">
        <ele>240.8</ele>
        <time>2021-08-08T07:59:48Z</time>
      </trkpt>
      <trkpt lat="47.17427" lon="5.90016">
        <ele>240.7</ele>
        <time>2021-08-08T07:59:52Z</time>
      </trkpt>
      <trkpt lat="47.17428" lon="5.90009">
        <ele>240.8</ele>
        <time>2021-08-08T07:59:56Z</time>
      </trkpt>
      <trkpt lat="47.17429" lon="5.90003">
        <ele>240.4</ele>
        <time>2021-08-08T08:00:00Z</time>
      </trkpt>
      <trkpt lat="47.17432" lon="5.89997">
        <ele>239.4</ele>
        <time>2021-08-08T08:00:05Z</time>
      </trkpt>
      <trkpt lat="47.17433" lon="5.8999">
        <ele>238.6</ele>
        <time>2021-08-08T08:00:09Z</time>
      </trkpt>
      <trkpt lat="47.17433" lon="5.89982">
        <ele>238</ele>
        <time>2021-08-08T08:00:13Z</time>
      </trkpt>
      <trkpt lat="47.17434" lon="5.89974">
        <ele>237.4</ele>
        <time>2021-08-08T08:00:17Z</time>
      </trkpt>
      <trkpt lat="47.17434" lon="5.89966">
        <ele>236.6</ele>
        <time>2021-08-08T08:00:21Z</time>
      </trkpt>
      <trkpt lat="47.17434" lon="5.89959">
        <ele>236.3</ele>
        <time>2021-08-08T08:00:25Z</time>
      </trkpt>
      <trkpt lat="47.17435" lon="5.89952">
        <ele>236.6</ele>
        <time>2021-08-08T08:00:29Z</time>
      </trkpt>
      <trkpt lat="47.17435" lon="5.89945">
        <ele>237</ele>
        <time>2021-08-08T08:00:33Z</time>
      </trkpt>
      <trkpt lat="47.17435" lon="5.89937">
        <ele>237.5</ele>
        <time>2021-08-08T08:00:39Z</time>
      </trkpt>
      <trkpt lat="47.17434" lon="5.8993">
        <ele>237.6</ele>
        <time>2021-08-08T08:00:44Z</time>
      </trkpt>
      <trkpt lat="47.17434" lon="5.89921">
        <ele>237.9</ele>
        <time>2021-08-08T08:00:48Z</time>
      </trkpt>
      <trkpt lat="47.17434" lon="5.89913">
        <ele>238.2</ele>
        <time>2021-08-08T08:00:52Z</time>
      </trkpt>
      <trkpt lat="47.17434" lon="5.89907">
        <ele>238.2</ele>
        <time>2021-08-08T08:00:56Z</time>
      </trkpt>
      <trkpt lat="47.17436" lon="5.89901">
        <ele>237.8</ele>
        <time>2021-08-08T08:01:00Z</time>
      </trkpt>
      <trkpt lat="47.17436" lon="5.89893">
        <ele>237.1</ele>
        <time>2021-08-08T08:01:04Z</time>
      </trkpt>
      <trkpt lat="47.17437" lon="5.89885">
        <ele>236.7</ele>
        <time>2021-08-08T08:01:09Z</time>
      </trkpt>
      <trkpt lat="47.17438" lon="5.89878">
        <ele>236.3</ele>
        <time>2021-08-08T08:01:13Z</time>
      </trkpt>
      <trkpt lat="47.17438" lon="5.89871">
        <ele>236</ele>
        <time>2021-08-08T08:01:18Z</time>
      </trkpt>
      <trkpt lat="47.17439" lon="5.89864">
        <ele>235.9</ele>
        <time>2021-08-08T08:01:23Z</time>
      </trkpt>
      <trkpt lat="47.1744" lon="5.89857">
        <ele>236.1</ele>
        <time>2021-08-08T08:01:27Z</time>
      </trkpt>
      <trkpt lat="47.1744" lon="5.89849">
        <ele>236</ele>
        <time>2021-08-08T08:01:31Z</time>
      </trkpt>
      <trkpt lat="47.17441" lon="5.89842">
        <ele>235.6</ele>
        <time>2021-08-08T08:01:35Z</time>
      </trkpt>
      <trkpt lat="47.17443" lon="5.89835">
        <ele>235</ele>
        <time>2021-08-08T08:01:39Z</time>
      </trkpt>
      <trkpt lat="47.17446" lon="5.89831">
        <ele>234.6</ele>
        <time>2021-08-08T08:01:43Z</time>
      </trkpt>
      <trkpt lat="47.17451" lon="5.89827">
        <ele>233.8</ele>
        <time>2021-08-08T08:01:48Z</time>
      </trkpt>
      <trkpt lat="47.17456" lon="5.89825">
        <ele>234</ele>
        <time>2021-08-08T08:01:52Z</time>
      </trkpt>
      <trkpt lat="47.1746" lon="5.89823">
        <ele>234.5</ele>
        <time>2021-08-08T08:01:55Z</time>
      </trkpt>
      <trkpt lat="47.17466" lon="5.89824">
        <ele>235</ele>
        <time>2021-08-08T08:01:59Z</time>
      </trkpt>
      <trkpt lat="47.17471" lon="5.89824">
        <ele>235.4</ele>
        <time>2021-08-08T08:02:03Z</time>
      </trkpt>
      <trkpt lat="47.17476" lon="5.89825">
        <ele>236.1</ele>
        <time>2021-08-08T08:02:07Z</time>
      </trkpt>
      <trkpt lat="47.17481" lon="5.89824">
        <ele>236.6</ele>
        <time>2021-08-08T08:02:11Z</time>
      </trkpt>
      <trkpt lat="47.17485" lon="5.89826">
        <ele>236.8</ele>
        <time>2021-08-08T08:02:15Z</time>
      </trkpt>
      <trkpt lat="47.1749" lon="5.89828">
        <ele>236.7</ele>
        <time>2021-08-08T08:02:19Z</time>
      </trkpt>
      <trkpt lat="47.17496" lon="5.8983">
        <ele>236.8</ele>
        <time>2021-08-08T08:02:23Z</time>
      </trkpt>
      <trkpt lat="47.17501" lon="5.89832">
        <ele>236.4</ele>
        <time>2021-08-08T08:02:27Z</time>
      </trkpt>
      <trkpt lat="47.17506" lon="5.89834">
        <ele>236.8</ele>
        <time>2021-08-08T08:02:32Z</time>
      </trkpt>
      <trkpt lat="47.17511" lon="5.89834">
        <ele>236.7</ele>
        <time>2021-08-08T08:02:36Z</time>
      </trkpt>
      <trkpt lat="47.17515" lon="5.89836">
        <ele>235.8</ele>
        <time>2021-08-08T08:02:41Z</time>
      </trkpt>
      <trkpt lat="47.1752" lon="5.89839">
        <ele>235.1</ele>
        <time>2021-08-08T08:02:45Z</time>
      </trkpt>
      <trkpt lat="47.17525" lon="5.89842">
        <ele>234.6</ele>
        <time>2021-08-08T08:02:50Z</time>
      </trkpt>
      <trkpt lat="47.1753" lon="5.89844">
        <ele>234.6</ele>
        <time>2021-08-08T08:02:54Z</time>
      </trkpt>
      <trkpt lat="47.17535" lon="5.89844">
        <ele>234.9</ele>
        <time>2021-08-08T08:02:58Z</time>
      </trkpt>
      <trkpt lat="47.17541" lon="5.89845">
        <ele>235</ele>
        <time>2021-08-08T08:03:03Z</time>
      </trkpt>
      <trkpt lat="47.17545" lon="5.89847">
        <ele>234.7</ele>
        <time>2021-08-08T08:03:07Z</time>
      </trkpt>
      <trkpt lat="47.1755" lon="5.89849">
        <ele>234.4</ele>
        <time>2021-08-08T08:03:11Z</time>
      </trkpt>
      <trkpt lat="47.17555" lon="5.89851">
        <ele>234.1</ele>
        <time>2021-08-08T08:03:15Z</time>
      </trkpt>
      <trkpt lat="47.1756" lon="5.89853">
        <ele>234.5</ele>
        <time>2021-08-08T08:03:19Z</time>
      </trkpt>
      <trkpt lat="47.17565" lon="5.89856">
        <ele>234.6</ele>
        <time>2021-08-08T08:03:24Z</time>
      </trkpt>
      <trkpt lat="47.1757" lon="5.8986">
        <ele>234.4</ele>
        <time>2021-08-08T08:03:29Z</time>
      </trkpt>
      <trkpt lat="47.17574" lon="5.89861">
        <ele>234.7</ele>
        <time>2021-08-08T08:03:37Z</time>
      </trkpt>
      <trkpt lat="47.1758" lon="5.89863">
        <ele>235.6</ele>
        <time>2021-08-08T08:03:41Z</time>
      </trkpt>
      <trkpt lat="47.17585" lon="5.89865">
        <ele>236.1</ele>
        <time>2021-08-08T08:03:45Z</time>
      </trkpt>
      <trkpt lat="47.17589" lon="5.89868">
        <ele>236.4</ele>
        <time>2021-08-08T08:03:49Z</time>
      </trkpt>
      <trkpt lat="47.17595" lon="5.89871">
        <ele>236.6</ele>
        <time>2021-08-08T08:03:53Z</time>
      </trkpt>
      <trkpt lat="47.176" lon="5.89874">
        <ele>236.8</ele>
        <time>2021-08-08T08:03:57Z</time>
      </trkpt>
      <trkpt lat="47.17605" lon="5.89878">
        <ele>237</ele>
        <time>2021-08-08T08:04:01Z</time>
      </trkpt>
      <trkpt lat="47.1761" lon="5.8988">
        <ele>237.2</ele>
        <time>2021-08-08T08:04:05Z</time>
      </trkpt>
      <trkpt lat="47.17614" lon="5.89882">
        <ele>237</ele>
        <time>2021-08-08T08:04:09Z</time>
      </trkpt>
      <trkpt lat="47.17619" lon="5.89884">
        <ele>236.4</ele>
        <time>2021-08-08T08:04:13Z</time>
      </trkpt>
      <trkpt lat="47.17623" lon="5.89883">
        <ele>234.7</ele>
        <time>2021-08-08T08:04:22Z</time>
      </trkpt>
      <trkpt lat="47.17627" lon="5.89878">
        <ele>229.4</ele>
        <time>2021-08-08T08:04:50Z</time>
      </trkpt>
      <trkpt lat="47.1763" lon="5.89871">
        <ele>227.5</ele>
        <time>2021-08-08T08:05:59Z</time>
      </trkpt>
      <trkpt lat="47.17632" lon="5.89865">
        <ele>225.7</ele>
        <time>2021-08-08T08:06:04Z</time>
      </trkpt>
      <trkpt lat="47.17634" lon="5.89859">
        <ele>224.8</ele>
        <time>2021-08-08T08:06:08Z</time>
      </trkpt>
      <trkpt lat="47.17636" lon="5.89852">
        <ele>224.3</ele>
        <time>2021-08-08T08:06:13Z</time>
      </trkpt>
      <trkpt lat="47.17638" lon="5.89844">
        <ele>225.7</ele>
        <time>2021-08-08T08:06:18Z</time>
      </trkpt>
      <trkpt lat="47.17641" lon="5.89838">
        <ele>227.5</ele>
        <time>2021-08-08T08:06:22Z</time>
      </trkpt>
      <trkpt lat="47.17645" lon="5.89833">
        <ele>229.6</ele>
        <time>2021-08-08T08:06:27Z</time>
      </trkpt>
      <trkpt lat="47.1765" lon="5.8983">
        <ele>231.4</ele>
        <time>2021-08-08T08:06:32Z</time>
      </trkpt>
      <trkpt lat="47.17654" lon="5.89828">
        <ele>233</ele>
        <time>2021-08-08T08:06:36Z</time>
      </trkpt>
      <trkpt lat="47.17659" lon="5.89825">
        <ele>234.7</ele>
        <time>2021-08-08T08:06:41Z</time>
      </trkpt>
      <trkpt lat="47.17664" lon="5.89822">
        <ele>235.4</ele>
        <time>2021-08-08T08:06:45Z</time>
      </trkpt>
      <trkpt lat="47.17668" lon="5.8982">
        <ele>235.5</ele>
        <time>2021-08-08T08:06:49Z</time>
      </trkpt>
      <trkpt lat="47.17673" lon="5.89816">
        <ele>235.6</ele>
        <time>2021-08-08T08:06:54Z</time>
      </trkpt>
      <trkpt lat="47.17677" lon="5.89811">
        <ele>235.5</ele>
        <time>2021-08-08T08:06:59Z</time>
      </trkpt>
      <trkpt lat="47.17682" lon="5.89808">
        <ele>235.4</ele>
        <time>2021-08-08T08:07:03Z</time>
      </trkpt>
      <trkpt lat="47.17686" lon="5.89803">
        <ele>235.1</ele>
        <time>2021-08-08T08:07:07Z</time>
      </trkpt>
      <trkpt lat="47.17691" lon="5.89799">
        <ele>235</ele>
        <time>2021-08-08T08:07:11Z</time>
      </trkpt>
      <trkpt lat="47.17695" lon="5.89794">
        <ele>234.9</ele>
        <time>2021-08-08T08:07:15Z</time>
      </trkpt>
      <trkpt lat="47.17699" lon="5.8979">
        <ele>234.7</ele>
        <time>2021-08-08T08:07:19Z</time>
      </trkpt>
      <trkpt lat="47.17703" lon="5.89786">
        <ele>234.2</ele>
        <time>2021-08-08T08:07:23Z</time>
      </trkpt>
      <trkpt lat="47.17707" lon="5.89782">
        <ele>233.6</ele>
        <time>2021-08-08T08:07:27Z</time>
      </trkpt>
      <trkpt lat="47.17711" lon="5.89778">
        <ele>232.7</ele>
        <time>2021-08-08T08:07:31Z</time>
      </trkpt>
      <trkpt lat="47.17715" lon="5.89774">
        <ele>232.2</ele>
        <time>2021-08-08T08:07:35Z</time>
      </trkpt>
      <trkpt lat="47.17719" lon="5.8977">
        <ele>231.8</ele>
        <time>2021-08-08T08:07:39Z</time>
      </trkpt>
      <trkpt lat="47.17722" lon="5.89765">
        <ele>231.7</ele>
        <time>2021-08-08T08:07:43Z</time>
      </trkpt>
      <trkpt lat="47.17726" lon="5.89762">
        <ele>231.5</ele>
        <time>2021-08-08T08:07:47Z</time>
      </trkpt>
      <trkpt lat="47.1773" lon="5.89756">
        <ele>231.5</ele>
        <time>2021-08-08T08:07:51Z</time>
      </trkpt>
      <trkpt lat="47.17734" lon="5.89751">
        <ele>231.7</ele>
        <time>2021-08-08T08:07:55Z</time>
      </trkpt>
      <trkpt lat="47.17738" lon="5.89747">
        <ele>231.7</ele>
        <time>2021-08-08T08:07:59Z</time>
      </trkpt>
      <trkpt lat="47.17742" lon="5.89742">
        <ele>231.7</ele>
        <time>2021-08-08T08:08:03Z</time>
      </trkpt>
      <trkpt lat="47.17746" lon="5.89739">
        <ele>231.6</ele>
        <time>2021-08-08T08:08:07Z</time>
      </trkpt>
      <trkpt lat="47.1775" lon="5.89734">
        <ele>231.4</ele>
        <time>2021-08-08T08:08:11Z</time>
      </trkpt>
      <trkpt lat="47.17754" lon="5.89729">
        <ele>231.5</ele>
        <time>2021-08-08T08:08:15Z</time>
      </trkpt>
      <trkpt lat="47.17758" lon="5.89724">
        <ele>231.7</ele>
        <time>2021-08-08T08:08:19Z</time>
      </trkpt>
      <trkpt lat="47.17762" lon="5.8972">
        <ele>232.1</ele>
        <time>2021-08-08T08:08:23Z</time>
      </trkpt>
      <trkpt lat="47.17766" lon="5.89716">
        <ele>232.8</ele>
        <time>2021-08-08T08:08:27Z</time>
      </trkpt>
      <trkpt lat="47.17769" lon="5.89711">
        <ele>233.5</ele>
        <time>2021-08-08T08:08:31Z</time>
      </trkpt>
      <trkpt lat="47.17773" lon="5.89706">
        <ele>233.7</ele>
        <time>2021-08-08T08:08:36Z</time>
      </trkpt>
      <trkpt lat="47.17777" lon="5.89701">
        <ele>233.7</ele>
        <time>2021-08-08T08:08:40Z</time>
      </trkpt>
      <trkpt lat="47.17781" lon="5.89696">
        <ele>233.4</ele>
        <time>2021-08-08T08:08:44Z</time>
      </trkpt>
      <trkpt lat="47.17785" lon="5.89692">
        <ele>232.8</ele>
        <time>2021-08-08T08:08:48Z</time>
      </trkpt>
      <trkpt lat="47.17789" lon="5.89686">
        <ele>232.4</ele>
        <time>2021-08-08T08:08:52Z</time>
      </trkpt>
      <trkpt lat="47.17793" lon="5.89681">
        <ele>232</ele>
        <time>2021-08-08T08:08:56Z</time>
      </trkpt>
      <trkpt lat="47.17797" lon="5.89677">
        <ele>231.2</ele>
        <time>2021-08-08T08:09:00Z</time>
      </trkpt>
      <trkpt lat="47.17801" lon="5.89671">
        <ele>230.4</ele>
        <time>2021-08-08T08:09:04Z</time>
      </trkpt>
      <trkpt lat="47.17805" lon="5.89667">
        <ele>229.9</ele>
        <time>2021-08-08T08:09:09Z</time>
      </trkpt>
      <trkpt lat="47.17808" lon="5.89662">
        <ele>230.7</ele>
        <time>2021-08-08T08:09:14Z</time>
      </trkpt>
      <trkpt lat="47.17813" lon="5.89657">
        <ele>231.6</ele>
        <time>2021-08-08T08:09:19Z</time>
      </trkpt>
      <trkpt lat="47.17816" lon="5.89653">
        <ele>231.9</ele>
        <time>2021-08-08T08:09:23Z</time>
      </trkpt>
      <trkpt lat="47.1782" lon="5.89647">
        <ele>232</ele>
        <time>2021-08-08T08:09:28Z</time>
      </trkpt>
      <trkpt lat="47.17824" lon="5.89642">
        <ele>231.6</ele>
        <time>2021-08-08T08:09:33Z</time>
      </trkpt>
      <trkpt lat="47.17828" lon="5.89636">
        <ele>230.7</ele>
        <time>2021-08-08T08:09:38Z</time>
      </trkpt>
      <trkpt lat="47.1783" lon="5.8963">
        <ele>230.7</ele>
        <time>2021-08-08T08:09:43Z</time>
      </trkpt>
      <trkpt lat="47.17832" lon="5.89623">
        <ele>231.2</ele>
        <time>2021-08-08T08:09:48Z</time>
      </trkpt>
      <trkpt lat="47.17834" lon="5.89616">
        <ele>231.4</ele>
        <time>2021-08-08T08:09:53Z</time>
      </trkpt>
      <trkpt lat="47.17837" lon="5.89608">
        <ele>231.9</ele>
        <time>2021-08-08T08:09:58Z</time>
      </trkpt>
      <trkpt lat="47.17839" lon="5.89602">
        <ele>231.8</ele>
        <time>2021-08-08T08:10:03Z</time>
      </trkpt>
      <trkpt lat="47.17842" lon="5.89596">
        <ele>231.6</ele>
        <time>2021-08-08T08:10:07Z</time>
      </trkpt>
      <trkpt lat="47.17844" lon="5.89588">
        <ele>231.9</ele>
        <time>2021-08-08T08:10:12Z</time>
      </trkpt>
      <trkpt lat="47.17846" lon="5.89582">
        <ele>232.1</ele>
        <time>2021-08-08T08:10:16Z</time>
      </trkpt>
      <trkpt lat="47.17847" lon="5.89575">
        <ele>232.3</ele>
        <time>2021-08-08T08:10:21Z</time>
      </trkpt>
      <trkpt lat="47.1785" lon="5.89568">
        <ele>232.3</ele>
        <time>2021-08-08T08:10:26Z</time>
      </trkpt>
      <trkpt lat="47.17852" lon="5.89562">
        <ele>232.4</ele>
        <time>2021-08-08T08:10:30Z</time>
      </trkpt>
      <trkpt lat="47.17855" lon="5.89555">
        <ele>232.2</ele>
        <time>2021-08-08T08:10:34Z</time>
      </trkpt>
      <trkpt lat="47.17858" lon="5.89548">
        <ele>231.8</ele>
        <time>2021-08-08T08:10:38Z</time>
      </trkpt>
      <trkpt lat="47.17861" lon="5.89542">
        <ele>231.4</ele>
        <time>2021-08-08T08:10:43Z</time>
      </trkpt>
      <trkpt lat="47.17862" lon="5.89535">
        <ele>231.4</ele>
        <time>2021-08-08T08:10:47Z</time>
      </trkpt>
      <trkpt lat="47.17865" lon="5.89529">
        <ele>231.2</ele>
        <time>2021-08-08T08:10:51Z</time>
      </trkpt>
      <trkpt lat="47.17867" lon="5.89523">
        <ele>230.6</ele>
        <time>2021-08-08T08:10:56Z</time>
      </trkpt>
      <trkpt lat="47.17869" lon="5.89515">
        <ele>229.9</ele>
        <time>2021-08-08T08:11:01Z</time>
      </trkpt>
      <trkpt lat="47.17872" lon="5.89508">
        <ele>230.4</ele>
        <time>2021-08-08T08:11:06Z</time>
      </trkpt>
      <trkpt lat="47.17875" lon="5.89502">
        <ele>230.6</ele>
        <time>2021-08-08T08:11:11Z</time>
      </trkpt>
      <trkpt lat="47.17876" lon="5.89495">
        <ele>230.8</ele>
        <time>2021-08-08T08:11:15Z</time>
      </trkpt>
      <trkpt lat="47.17878" lon="5.89488">
        <ele>230.7</ele>
        <time>2021-08-08T08:11:19Z</time>
      </trkpt>
      <trkpt lat="47.17882" lon="5.89482">
        <ele>230.6</ele>
        <time>2021-08-08T08:11:23Z</time>
      </trkpt>
      <trkpt lat="47.17885" lon="5.89477">
        <ele>230.9</ele>
        <time>2021-08-08T08:11:27Z</time>
      </trkpt>
      <trkpt lat="47.17888" lon="5.8947">
        <ele>230.6</ele>
        <time>2021-08-08T08:11:32Z</time>
      </trkpt>
      <trkpt lat="47.1789" lon="5.89463">
        <ele>230.9</ele>
        <time>2021-08-08T08:11:37Z</time>
      </trkpt>
      <trkpt lat="47.17892" lon="5.89457">
        <ele>231</ele>
        <time>2021-08-08T08:11:41Z</time>
      </trkpt>
      <trkpt lat="47.17894" lon="5.8945">
        <ele>231.7</ele>
        <time>2021-08-08T08:11:45Z</time>
      </trkpt>
      <trkpt lat="47.17896" lon="5.89445">
        <ele>232</ele>
        <time>2021-08-08T08:11:49Z</time>
      </trkpt>
      <trkpt lat="47.17898" lon="5.89439">
        <ele>232.5</ele>
        <time>2021-08-08T08:11:53Z</time>
      </trkpt>
      <trkpt lat="47.17901" lon="5.89432">
        <ele>233.6</ele>
        <time>2021-08-08T08:11:58Z</time>
      </trkpt>
      <trkpt lat="47.17902" lon="5.89425">
        <ele>234.1</ele>
        <time>2021-08-08T08:12:03Z</time>
      </trkpt>
      <trkpt lat="47.17904" lon="5.89418">
        <ele>234.4</ele>
        <time>2021-08-08T08:12:07Z</time>
      </trkpt>
      <trkpt lat="47.17905" lon="5.89412">
        <ele>234.5</ele>
        <time>2021-08-08T08:12:12Z</time>
      </trkpt>
      <trkpt lat="47.17908" lon="5.89406">
        <ele>235</ele>
        <time>2021-08-08T08:12:16Z</time>
      </trkpt>
      <trkpt lat="47.1791" lon="5.89399">
        <ele>235.1</ele>
        <time>2021-08-08T08:12:20Z</time>
      </trkpt>
      <trkpt lat="47.17912" lon="5.89393">
        <ele>235.3</ele>
        <time>2021-08-08T08:12:24Z</time>
      </trkpt>
      <trkpt lat="47.17914" lon="5.89386">
        <ele>235.7</ele>
        <time>2021-08-08T08:12:28Z</time>
      </trkpt>
      <trkpt lat="47.17917" lon="5.89379">
        <ele>236.2</ele>
        <time>2021-08-08T08:12:33Z</time>
      </trkpt>
      <trkpt lat="47.17919" lon="5.89373">
        <ele>235.8</ele>
        <time>2021-08-08T08:12:38Z</time>
      </trkpt>
      <trkpt lat="47.17921" lon="5.89365">
        <ele>235.1</ele>
        <time>2021-08-08T08:12:43Z</time>
      </trkpt>
      <trkpt lat="47.17923" lon="5.89358">
        <ele>234.4</ele>
        <time>2021-08-08T08:12:48Z</time>
      </trkpt>
      <trkpt lat="47.17925" lon="5.89352">
        <ele>233.5</ele>
        <time>2021-08-08T08:12:53Z</time>
      </trkpt>
      <trkpt lat="47.17928" lon="5.89345">
        <ele>232.7</ele>
        <time>2021-08-08T08:12:58Z</time>
      </trkpt>
      <trkpt lat="47.1793" lon="5.89338">
        <ele>232</ele>
        <time>2021-08-08T08:13:03Z</time>
      </trkpt>
      <trkpt lat="47.17932" lon="5.89331">
        <ele>231.4</ele>
        <time>2021-08-08T08:13:07Z</time>
      </trkpt>
      <trkpt lat="47.17935" lon="5.89325">
        <ele>230.7</ele>
        <time>2021-08-08T08:13:11Z</time>
      </trkpt>
      <trkpt lat="47.17936" lon="5.89317">
        <ele>230.8</ele>
        <time>2021-08-08T08:13:16Z</time>
      </trkpt>
      <trkpt lat="47.17937" lon="5.8931">
        <ele>232.1</ele>
        <time>2021-08-08T08:13:21Z</time>
      </trkpt>
      <trkpt lat="47.1794" lon="5.89303">
        <ele>232.5</ele>
        <time>2021-08-08T08:13:25Z</time>
      </trkpt>
      <trkpt lat="47.17942" lon="5.89296">
        <ele>232.9</ele>
        <time>2021-08-08T08:13:29Z</time>
      </trkpt>
      <trkpt lat="47.17945" lon="5.8929">
        <ele>232.7</ele>
        <time>2021-08-08T08:13:33Z</time>
      </trkpt>
      <trkpt lat="47.17947" lon="5.89283">
        <ele>232.2</ele>
        <time>2021-08-08T08:13:37Z</time>
      </trkpt>
      <trkpt lat="47.17949" lon="5.89276">
        <ele>231.8</ele>
        <time>2021-08-08T08:13:42Z</time>
      </trkpt>
      <trkpt lat="47.17951" lon="5.8927">
        <ele>231.1</ele>
        <time>2021-08-08T08:13:46Z</time>
      </trkpt>
      <trkpt lat="47.17952" lon="5.89263">
        <ele>230.9</ele>
        <time>2021-08-08T08:13:50Z</time>
      </trkpt>
      <trkpt lat="47.17954" lon="5.89257">
        <ele>231</ele>
        <time>2021-08-08T08:13:54Z</time>
      </trkpt>
      <trkpt lat="47.17956" lon="5.89251">
        <ele>230.9</ele>
        <time>2021-08-08T08:13:58Z</time>
      </trkpt>
      <trkpt lat="47.17959" lon="5.89244">
        <ele>230.3</ele>
        <time>2021-08-08T08:14:03Z</time>
      </trkpt>
      <trkpt lat="47.17959" lon="5.89237">
        <ele>230.2</ele>
        <time>2021-08-08T08:14:07Z</time>
      </trkpt>
      <trkpt lat="47.1796" lon="5.8923">
        <ele>230.2</ele>
        <time>2021-08-08T08:14:11Z</time>
      </trkpt>
      <trkpt lat="47.17962" lon="5.89224">
        <ele>229.6</ele>
        <time>2021-08-08T08:14:15Z</time>
      </trkpt>
      <trkpt lat="47.17964" lon="5.89216">
        <ele>228.9</ele>
        <time>2021-08-08T08:14:20Z</time>
      </trkpt>
      <trkpt lat="47.17966" lon="5.8921">
        <ele>228.3</ele>
        <time>2021-08-08T08:14:24Z</time>
      </trkpt>
      <trkpt lat="47.17968" lon="5.89203">
        <ele>227.9</ele>
        <time>2021-08-08T08:14:28Z</time>
      </trkpt>
      <trkpt lat="47.17969" lon="5.89196">
        <ele>227.4</ele>
        <time>2021-08-08T08:14:32Z</time>
      </trkpt>
      <trkpt lat="47.17972" lon="5.8919">
        <ele>227.1</ele>
        <time>2021-08-08T08:14:36Z</time>
      </trkpt>
      <trkpt lat="47.17974" lon="5.89182">
        <ele>226.4</ele>
        <time>2021-08-08T08:14:41Z</time>
      </trkpt>
      <trkpt lat="47.17976" lon="5.89175">
        <ele>225.9</ele>
        <time>2021-08-08T08:14:45Z</time>
      </trkpt>
      <trkpt lat="47.17977" lon="5.89169">
        <ele>225.8</ele>
        <time>2021-08-08T08:14:49Z</time>
      </trkpt>
      <trkpt lat="47.17978" lon="5.89162">
        <ele>226.5</ele>
        <time>2021-08-08T08:14:53Z</time>
      </trkpt>
      <trkpt lat="47.1798" lon="5.89155">
        <ele>226.9</ele>
        <time>2021-08-08T08:14:57Z</time>
      </trkpt>
      <trkpt lat="47.17982" lon="5.89149">
        <ele>227.2</ele>
        <time>2021-08-08T08:15:01Z</time>
      </trkpt>
      <trkpt lat="47.17983" lon="5.89141">
        <ele>227.5</ele>
        <time>2021-08-08T08:15:06Z</time>
      </trkpt>
      <trkpt lat="47.17984" lon="5.89133">
        <ele>227.6</ele>
        <time>2021-08-08T08:15:11Z</time>
      </trkpt>
      <trkpt lat="47.17985" lon="5.89127">
        <ele>227.4</ele>
        <time>2021-08-08T08:15:15Z</time>
      </trkpt>
      <trkpt lat="47.17987" lon="5.8912">
        <ele>227</ele>
        <time>2021-08-08T08:15:19Z</time>
      </trkpt>
      <trkpt lat="47.17988" lon="5.89113">
        <ele>226.4</ele>
        <time>2021-08-08T08:15:23Z</time>
      </trkpt>
      <trkpt lat="47.1799" lon="5.89106">
        <ele>226.2</ele>
        <time>2021-08-08T08:15:28Z</time>
      </trkpt>
      <trkpt lat="47.17992" lon="5.89099">
        <ele>226.3</ele>
        <time>2021-08-08T08:15:32Z</time>
      </trkpt>
      <trkpt lat="47.17994" lon="5.89092">
        <ele>226.4</ele>
        <time>2021-08-08T08:15:37Z</time>
      </trkpt>
      <trkpt lat="47.17995" lon="5.89085">
        <ele>227</ele>
        <time>2021-08-08T08:15:41Z</time>
      </trkpt>
      <trkpt lat="47.17996" lon="5.89078">
        <ele>227.2</ele>
        <time>2021-08-08T08:15:45Z</time>
      </trkpt>
      <trkpt lat="47.17996" lon="5.8907">
        <ele>227.3</ele>
        <time>2021-08-08T08:15:50Z</time>
      </trkpt>
      <trkpt lat="47.17997" lon="5.89062">
        <ele>227.2</ele>
        <time>2021-08-08T08:15:55Z</time>
      </trkpt>
      <trkpt lat="47.17997" lon="5.89055">
        <ele>226.8</ele>
        <time>2021-08-08T08:16:00Z</time>
      </trkpt>
      <trkpt lat="47.17995" lon="5.89049">
        <ele>226.3</ele>
        <time>2021-08-08T08:16:07Z</time>
      </trkpt>
      <trkpt lat="47.1799" lon="5.89049">
        <ele>228.7</ele>
        <time>2021-08-08T08:19:33Z</time>
      </trkpt>
      <trkpt lat="47.17985" lon="5.89048">
        <ele>229.1</ele>
        <time>2021-08-08T08:19:38Z</time>
      </trkpt>
      <trkpt lat="47.1798" lon="5.89049">
        <ele>229.1</ele>
        <time>2021-08-08T08:19:42Z</time>
      </trkpt>
      <trkpt lat="47.17975" lon="5.89051">
        <ele>229.1</ele>
        <time>2021-08-08T08:19:46Z</time>
      </trkpt>
      <trkpt lat="47.17971" lon="5.89053">
        <ele>228.9</ele>
        <time>2021-08-08T08:19:49Z</time>
      </trkpt>
      <trkpt lat="47.17966" lon="5.89053">
        <ele>229</ele>
        <time>2021-08-08T08:19:53Z</time>
      </trkpt>
      <trkpt lat="47.17961" lon="5.89052">
        <ele>229</ele>
        <time>2021-08-08T08:19:57Z</time>
      </trkpt>
      <trkpt lat="47.17956" lon="5.8905">
        <ele>229</ele>
        <time>2021-08-08T08:20:02Z</time>
      </trkpt>
      <trkpt lat="47.17952" lon="5.89048">
        <ele>228.8</ele>
        <time>2021-08-08T08:20:06Z</time>
      </trkpt>
      <trkpt lat="47.17947" lon="5.89044">
        <ele>227.9</ele>
        <time>2021-08-08T08:20:11Z</time>
      </trkpt>
      <trkpt lat="47.17942" lon="5.89045">
        <ele>226.8</ele>
        <time>2021-08-08T08:20:16Z</time>
      </trkpt>
      <trkpt lat="47.17937" lon="5.89046">
        <ele>226.3</ele>
        <time>2021-08-08T08:20:20Z</time>
      </trkpt>
      <trkpt lat="47.17931" lon="5.89047">
        <ele>225.9</ele>
        <time>2021-08-08T08:20:25Z</time>
      </trkpt>
      <trkpt lat="47.17926" lon="5.89047">
        <ele>225.5</ele>
        <time>2021-08-08T08:20:29Z</time>
      </trkpt>
      <trkpt lat="47.17921" lon="5.89047">
        <ele>225.4</ele>
        <time>2021-08-08T08:20:33Z</time>
      </trkpt>
      <trkpt lat="47.17916" lon="5.89048">
        <ele>225.7</ele>
        <time>2021-08-08T08:20:37Z</time>
      </trkpt>
      <trkpt lat="47.17911" lon="5.89048">
        <ele>226</ele>
        <time>2021-08-08T08:20:41Z</time>
      </trkpt>
      <trkpt lat="47.17906" lon="5.89049">
        <ele>225.9</ele>
        <time>2021-08-08T08:20:45Z</time>
      </trkpt>
      <trkpt lat="47.17901" lon="5.89048">
        <ele>225.3</ele>
        <time>2021-08-08T08:20:50Z</time>
      </trkpt>
      <trkpt lat="47.17896" lon="5.89048">
        <ele>224.6</ele>
        <time>2021-08-08T08:20:54Z</time>
      </trkpt>
      <trkpt lat="47.17891" lon="5.89047">
        <ele>224.1</ele>
        <time>2021-08-08T08:20:58Z</time>
      </trkpt>
      <trkpt lat="47.17885" lon="5.89046">
        <ele>223.5</ele>
        <time>2021-08-08T08:21:03Z</time>
      </trkpt>
      <trkpt lat="47.17881" lon="5.89047">
        <ele>223.4</ele>
        <time>2021-08-08T08:21:07Z</time>
      </trkpt>
      <trkpt lat="47.17876" lon="5.89048">
        <ele>223.5</ele>
        <time>2021-08-08T08:21:11Z</time>
      </trkpt>
      <trkpt lat="47.1787" lon="5.89048">
        <ele>224.2</ele>
        <time>2021-08-08T08:21:16Z</time>
      </trkpt>
      <trkpt lat="47.17866" lon="5.89049">
        <ele>224.5</ele>
        <time>2021-08-08T08:21:20Z</time>
      </trkpt>
      <trkpt lat="47.17861" lon="5.89049">
        <ele>224.9</ele>
        <time>2021-08-08T08:21:24Z</time>
      </trkpt>
      <trkpt lat="47.17855" lon="5.89048">
        <ele>225.6</ele>
        <time>2021-08-08T08:21:29Z</time>
      </trkpt>
      <trkpt lat="47.1785" lon="5.89049">
        <ele>225.5</ele>
        <time>2021-08-08T08:21:33Z</time>
      </trkpt>
      <trkpt lat="47.17846" lon="5.89048">
        <ele>224.9</ele>
        <time>2021-08-08T08:21:37Z</time>
      </trkpt>
      <trkpt lat="47.17841" lon="5.89048">
        <ele>223.9</ele>
        <time>2021-08-08T08:21:41Z</time>
      </trkpt>
      <trkpt lat="47.17836" lon="5.89048">
        <ele>223.3</ele>
        <time>2021-08-08T08:21:45Z</time>
      </trkpt>
      <trkpt lat="47.1783" lon="5.89049">
        <ele>223.3</ele>
        <time>2021-08-08T08:21:49Z</time>
      </trkpt>
      <trkpt lat="47.17825" lon="5.89049">
        <ele>223.2</ele>
        <time>2021-08-08T08:21:54Z</time>
      </trkpt>
      <trkpt lat="47.1782" lon="5.89048">
        <ele>224.1</ele>
        <time>2021-08-08T08:21:58Z</time>
      </trkpt>
      <trkpt lat="47.17815" lon="5.89049">
        <ele>225.4</ele>
        <time>2021-08-08T08:22:02Z</time>
      </trkpt>
      <trkpt lat="47.1781" lon="5.8905">
        <ele>226.6</ele>
        <time>2021-08-08T08:22:06Z</time>
      </trkpt>
      <trkpt lat="47.17805" lon="5.89052">
        <ele>227.7</ele>
        <time>2021-08-08T08:22:10Z</time>
      </trkpt>
      <trkpt lat="47.178" lon="5.89053">
        <ele>228.3</ele>
        <time>2021-08-08T08:22:14Z</time>
      </trkpt>
      <trkpt lat="47.17795" lon="5.89052">
        <ele>228.7</ele>
        <time>2021-08-08T08:22:19Z</time>
      </trkpt>
      <trkpt lat="47.1779" lon="5.89051">
        <ele>228.9</ele>
        <time>2021-08-08T08:22:23Z</time>
      </trkpt>
      <trkpt lat="47.17784" lon="5.89051">
        <ele>229.1</ele>
        <time>2021-08-08T08:22:28Z</time>
      </trkpt>
      <trkpt lat="47.1778" lon="5.89051">
        <ele>230</ele>
        <time>2021-08-08T08:22:32Z</time>
      </trkpt>
      <trkpt lat="47.17775" lon="5.89051">
        <ele>230.9</ele>
        <time>2021-08-08T08:22:36Z</time>
      </trkpt>
      <trkpt lat="47.1777" lon="5.89052">
        <ele>232</ele>
        <time>2021-08-08T08:22:41Z</time>
      </trkpt>
      <trkpt lat="47.17765" lon="5.89053">
        <ele>233.1</ele>
        <time>2021-08-08T08:22:46Z</time>
      </trkpt>
      <trkpt lat="47.1776" lon="5.89054">
        <ele>233.8</ele>
        <time>2021-08-08T08:22:50Z</time>
      </trkpt>
      <trkpt lat="47.17755" lon="5.89054">
        <ele>234.1</ele>
        <time>2021-08-08T08:22:54Z</time>
      </trkpt>
      <trkpt lat="47.1775" lon="5.89055">
        <ele>234.1</ele>
        <time>2021-08-08T08:22:58Z</time>
      </trkpt>
      <trkpt lat="47.17746" lon="5.89056">
        <ele>233.9</ele>
        <time>2021-08-08T08:23:02Z</time>
      </trkpt>
      <trkpt lat="47.17741" lon="5.89056">
        <ele>233.2</ele>
        <time>2021-08-08T08:23:07Z</time>
      </trkpt>
      <trkpt lat="47.17736" lon="5.89056">
        <ele>231.8</ele>
        <time>2021-08-08T08:23:11Z</time>
      </trkpt>
      <trkpt lat="47.17731" lon="5.89057">
        <ele>230</ele>
        <time>2021-08-08T08:23:16Z</time>
      </trkpt>
      <trkpt lat="47.17727" lon="5.89058">
        <ele>229</ele>
        <time>2021-08-08T08:23:20Z</time>
      </trkpt>
      <trkpt lat="47.17722" lon="5.89059">
        <ele>228.5</ele>
        <time>2021-08-08T08:23:24Z</time>
      </trkpt>
      <trkpt lat="47.17717" lon="5.89059">
        <ele>228.3</ele>
        <time>2021-08-08T08:23:28Z</time>
      </trkpt>
      <trkpt lat="47.17712" lon="5.89061">
        <ele>228.3</ele>
        <time>2021-08-08T08:23:33Z</time>
      </trkpt>
      <trkpt lat="47.17707" lon="5.89062">
        <ele>228.2</ele>
        <time>2021-08-08T08:23:38Z</time>
      </trkpt>
      <trkpt lat="47.17702" lon="5.89062">
        <ele>227.5</ele>
        <time>2021-08-08T08:23:43Z</time>
      </trkpt>
      <trkpt lat="47.17697" lon="5.89062">
        <ele>226.9</ele>
        <time>2021-08-08T08:23:47Z</time>
      </trkpt>
      <trkpt lat="47.17692" lon="5.89063">
        <ele>226.5</ele>
        <time>2021-08-08T08:23:51Z</time>
      </trkpt>
      <trkpt lat="47.17687" lon="5.89066">
        <ele>226.1</ele>
        <time>2021-08-08T08:23:55Z</time>
      </trkpt>
      <trkpt lat="47.17683" lon="5.89068">
        <ele>225.8</ele>
        <time>2021-08-08T08:23:59Z</time>
      </trkpt>
      <trkpt lat="47.17678" lon="5.89069">
        <ele>225.8</ele>
        <time>2021-08-08T08:24:04Z</time>
      </trkpt>
      <trkpt lat="47.17673" lon="5.89069">
        <ele>225.6</ele>
        <time>2021-08-08T08:24:09Z</time>
      </trkpt>
      <trkpt lat="47.17668" lon="5.89069">
        <ele>225.6</ele>
        <time>2021-08-08T08:24:13Z</time>
      </trkpt>
      <trkpt lat="47.17662" lon="5.89071">
        <ele>225.5</ele>
        <time>2021-08-08T08:24:17Z</time>
      </trkpt>
      <trkpt lat="47.17657" lon="5.89072">
        <ele>225.5</ele>
        <time>2021-08-08T08:24:21Z</time>
      </trkpt>
      <trkpt lat="47.17652" lon="5.89073">
        <ele>225.4</ele>
        <time>2021-08-08T08:24:25Z</time>
      </trkpt>
      <trkpt lat="47.17647" lon="5.89075">
        <ele>225.2</ele>
        <time>2021-08-08T08:24:29Z</time>
      </trkpt>
      <trkpt lat="47.17642" lon="5.89077">
        <ele>225.1</ele>
        <time>2021-08-08T08:24:34Z</time>
      </trkpt>
      <trkpt lat="47.17638" lon="5.89077">
        <ele>225.3</ele>
        <time>2021-08-08T08:24:39Z</time>
      </trkpt>
      <trkpt lat="47.17633" lon="5.89077">
        <ele>225.2</ele>
        <time>2021-08-08T08:24:43Z</time>
      </trkpt>
      <trkpt lat="47.17628" lon="5.89078">
        <ele>224.9</ele>
        <time>2021-08-08T08:24:47Z</time>
      </trkpt>
      <trkpt lat="47.17623" lon="5.89079">
        <ele>224.6</ele>
        <time>2021-08-08T08:24:52Z</time>
      </trkpt>
      <trkpt lat="47.17619" lon="5.89081">
        <ele>224.3</ele>
        <time>2021-08-08T08:24:56Z</time>
      </trkpt>
      <trkpt lat="47.17614" lon="5.89082">
        <ele>224.3</ele>
        <time>2021-08-08T08:25:00Z</time>
      </trkpt>
      <trkpt lat="47.1761" lon="5.89082">
        <ele>224.3</ele>
        <time>2021-08-08T08:25:04Z</time>
      </trkpt>
      <trkpt lat="47.17604" lon="5.89083">
        <ele>224.8</ele>
        <time>2021-08-08T08:25:08Z</time>
      </trkpt>
      <trkpt lat="47.176" lon="5.89086">
        <ele>225.3</ele>
        <time>2021-08-08T08:25:12Z</time>
      </trkpt>
      <trkpt lat="47.17596" lon="5.89088">
        <ele>226</ele>
        <time>2021-08-08T08:25:16Z</time>
      </trkpt>
      <trkpt lat="47.17591" lon="5.89088">
        <ele>226</ele>
        <time>2021-08-08T08:25:21Z</time>
      </trkpt>
      <trkpt lat="47.17586" lon="5.8909">
        <ele>226</ele>
        <time>2021-08-08T08:25:26Z</time>
      </trkpt>
      <trkpt lat="47.17582" lon="5.89092">
        <ele>226.5</ele>
        <time>2021-08-08T08:25:30Z</time>
      </trkpt>
      <trkpt lat="47.17576" lon="5.89091">
        <ele>227.1</ele>
        <time>2021-08-08T08:25:35Z</time>
      </trkpt>
      <trkpt lat="47.17571" lon="5.8909">
        <ele>228.1</ele>
        <time>2021-08-08T08:25:39Z</time>
      </trkpt>
      <trkpt lat="47.17567" lon="5.89093">
        <ele>228.8</ele>
        <time>2021-08-08T08:25:44Z</time>
      </trkpt>
      <trkpt lat="47.17562" lon="5.89095">
        <ele>229</ele>
        <time>2021-08-08T08:25:49Z</time>
      </trkpt>
      <trkpt lat="47.17557" lon="5.89097">
        <ele>229.3</ele>
        <time>2021-08-08T08:25:53Z</time>
      </trkpt>
      <trkpt lat="47.17551" lon="5.89099">
        <ele>229.9</ele>
        <time>2021-08-08T08:25:57Z</time>
      </trkpt>
      <trkpt lat="47.17546" lon="5.89101">
        <ele>231.1</ele>
        <time>2021-08-08T08:26:02Z</time>
      </trkpt>
      <trkpt lat="47.17542" lon="5.89103">
        <ele>232.3</ele>
        <time>2021-08-08T08:26:06Z</time>
      </trkpt>
      <trkpt lat="47.17537" lon="5.89105">
        <ele>233.3</ele>
        <time>2021-08-08T08:26:09Z</time>
      </trkpt>
      <trkpt lat="47.17532" lon="5.89108">
        <ele>234.3</ele>
        <time>2021-08-08T08:26:13Z</time>
      </trkpt>
      <trkpt lat="47.17527" lon="5.89111">
        <ele>234.7</ele>
        <time>2021-08-08T08:26:17Z</time>
      </trkpt>
      <trkpt lat="47.17522" lon="5.89113">
        <ele>234.9</ele>
        <time>2021-08-08T08:26:22Z</time>
      </trkpt>
      <trkpt lat="47.17517" lon="5.89114">
        <ele>235.1</ele>
        <time>2021-08-08T08:26:26Z</time>
      </trkpt>
      <trkpt lat="47.17513" lon="5.89116">
        <ele>235.7</ele>
        <time>2021-08-08T08:26:31Z</time>
      </trkpt>
      <trkpt lat="47.17508" lon="5.8912">
        <ele>236.3</ele>
        <time>2021-08-08T08:26:37Z</time>
      </trkpt>
      <trkpt lat="47.17504" lon="5.89122">
        <ele>236.6</ele>
        <time>2021-08-08T08:26:41Z</time>
      </trkpt>
      <trkpt lat="47.17499" lon="5.89124">
        <ele>237.1</ele>
        <time>2021-08-08T08:26:46Z</time>
      </trkpt>
      <trkpt lat="47.17493" lon="5.89125">
        <ele>237.2</ele>
        <time>2021-08-08T08:26:52Z</time>
      </trkpt>
      <trkpt lat="47.17488" lon="5.89126">
        <ele>236.6</ele>
        <time>2021-08-08T08:26:57Z</time>
      </trkpt>
      <trkpt lat="47.17482" lon="5.89127">
        <ele>235.9</ele>
        <time>2021-08-08T08:27:02Z</time>
      </trkpt>
      <trkpt lat="47.17477" lon="5.89128">
        <ele>235.6</ele>
        <time>2021-08-08T08:27:06Z</time>
      </trkpt>
      <trkpt lat="47.17471" lon="5.89129">
        <ele>235</ele>
        <time>2021-08-08T08:27:10Z</time>
      </trkpt>
      <trkpt lat="47.17467" lon="5.89131">
        <ele>234.1</ele>
        <time>2021-08-08T08:27:14Z</time>
      </trkpt>
      <trkpt lat="47.17462" lon="5.89133">
        <ele>233.6</ele>
        <time>2021-08-08T08:27:18Z</time>
      </trkpt>
      <trkpt lat="47.17457" lon="5.89133">
        <ele>232.6</ele>
        <time>2021-08-08T08:27:27Z</time>
      </trkpt>
      <trkpt lat="47.17453" lon="5.89134">
        <ele>231.7</ele>
        <time>2021-08-08T08:27:35Z</time>
      </trkpt>
      <trkpt lat="47.17448" lon="5.89134">
        <ele>231.2</ele>
        <time>2021-08-08T08:27:43Z</time>
      </trkpt>
      <trkpt lat="47.17443" lon="5.89134">
        <ele>230.9</ele>
        <time>2021-08-08T08:27:50Z</time>
      </trkpt>
      <trkpt lat="47.17438" lon="5.89137">
        <ele>230</ele>
        <time>2021-08-08T08:27:56Z</time>
      </trkpt>
      <trkpt lat="47.17436" lon="5.89144">
        <ele>229.7</ele>
        <time>2021-08-08T08:28:02Z</time>
      </trkpt>
      <trkpt lat="47.17433" lon="5.8915">
        <ele>229.5</ele>
        <time>2021-08-08T08:28:06Z</time>
      </trkpt>
      <trkpt lat="47.17429" lon="5.89154">
        <ele>229.4</ele>
        <time>2021-08-08T08:28:11Z</time>
      </trkpt>
      <trkpt lat="47.17424" lon="5.89155">
        <ele>229.4</ele>
        <time>2021-08-08T08:28:17Z</time>
      </trkpt>
      <trkpt lat="47.1742" lon="5.89159">
        <ele>229.9</ele>
        <time>2021-08-08T08:28:23Z</time>
      </trkpt>
      <trkpt lat="47.17416" lon="5.89163">
        <ele>230.5</ele>
        <time>2021-08-08T08:28:27Z</time>
      </trkpt>
      <trkpt lat="47.17411" lon="5.89166">
        <ele>231.3</ele>
        <time>2021-08-08T08:28:31Z</time>
      </trkpt>
      <trkpt lat="47.17406" lon="5.89169">
        <ele>231.4</ele>
        <time>2021-08-08T08:28:38Z</time>
      </trkpt>
      <trkpt lat="47.17401" lon="5.89171">
        <ele>231.2</ele>
        <time>2021-08-08T08:28:43Z</time>
      </trkpt>
      <trkpt lat="47.17397" lon="5.89177">
        <ele>231.2</ele>
        <time>2021-08-08T08:28:47Z</time>
      </trkpt>
      <trkpt lat="47.17394" lon="5.89183">
        <ele>231.3</ele>
        <time>2021-08-08T08:28:51Z</time>
      </trkpt>
      <trkpt lat="47.17394" lon="5.89191">
        <ele>231.2</ele>
        <time>2021-08-08T08:28:58Z</time>
      </trkpt>
      <trkpt lat="47.17397" lon="5.89196">
        <ele>231.1</ele>
        <time>2021-08-08T08:29:02Z</time>
      </trkpt>
      <trkpt lat="47.17398" lon="5.89203">
        <ele>231</ele>
        <time>2021-08-08T08:29:06Z</time>
      </trkpt>
      <trkpt lat="47.17397" lon="5.8921">
        <ele>230.2</ele>
        <time>2021-08-08T08:29:11Z</time>
      </trkpt>
      <trkpt lat="47.17395" lon="5.89219">
        <ele>230.3</ele>
        <time>2021-08-08T08:29:16Z</time>
      </trkpt>
      <trkpt lat="47.17394" lon="5.89226">
        <ele>230.7</ele>
        <time>2021-08-08T08:29:21Z</time>
      </trkpt>
      <trkpt lat="47.17392" lon="5.89232">
        <ele>231.1</ele>
        <time>2021-08-08T08:29:26Z</time>
      </trkpt>
      <trkpt lat="47.1739" lon="5.89238">
        <ele>231.6</ele>
        <time>2021-08-08T08:29:30Z</time>
      </trkpt>
      <trkpt lat="47.17388" lon="5.89244">
        <ele>231.9</ele>
        <time>2021-08-08T08:29:35Z</time>
      </trkpt>
      <trkpt lat="47.17385" lon="5.8925">
        <ele>231.5</ele>
        <time>2021-08-08T08:29:42Z</time>
      </trkpt>
      <trkpt lat="47.17382" lon="5.89255">
        <ele>230.9</ele>
        <time>2021-08-08T08:29:48Z</time>
      </trkpt>
      <trkpt lat="47.17379" lon="5.8926">
        <ele>231.1</ele>
        <time>2021-08-08T08:29:55Z</time>
      </trkpt>
      <trkpt lat="47.17377" lon="5.89266">
        <ele>231.4</ele>
        <time>2021-08-08T08:30:00Z</time>
      </trkpt>
      <trkpt lat="47.17375" lon="5.89272">
        <ele>231.5</ele>
        <time>2021-08-08T08:30:04Z</time>
      </trkpt>
      <trkpt lat="47.17375" lon="5.89279">
        <ele>230.7</ele>
        <time>2021-08-08T08:30:10Z</time>
      </trkpt>
      <trkpt lat="47.17374" lon="5.89286">
        <ele>229.6</ele>
        <time>2021-08-08T08:30:16Z</time>
      </trkpt>
      <trkpt lat="47.17373" lon="5.89293">
        <ele>228.6</ele>
        <time>2021-08-08T08:30:24Z</time>
      </trkpt>
      <trkpt lat="47.17371" lon="5.89301">
        <ele>227.7</ele>
        <time>2021-08-08T08:30:29Z</time>
      </trkpt>
      <trkpt lat="47.17369" lon="5.89309">
        <ele>227.9</ele>
        <time>2021-08-08T08:30:33Z</time>
      </trkpt>
      <trkpt lat="47.17367" lon="5.89315">
        <ele>228.2</ele>
        <time>2021-08-08T08:30:36Z</time>
      </trkpt>
      <trkpt lat="47.17364" lon="5.89323">
        <ele>228.7</ele>
        <time>2021-08-08T08:30:40Z</time>
      </trkpt>
      <trkpt lat="47.17361" lon="5.89329">
        <ele>229.2</ele>
        <time>2021-08-08T08:30:45Z</time>
      </trkpt>
      <trkpt lat="47.17358" lon="5.89334">
        <ele>229.3</ele>
        <time>2021-08-08T08:30:50Z</time>
      </trkpt>
      <trkpt lat="47.17353" lon="5.89336">
        <ele>228.9</ele>
        <time>2021-08-08T08:30:55Z</time>
      </trkpt>
      <trkpt lat="47.17349" lon="5.8934">
        <ele>229</ele>
        <time>2021-08-08T08:31:00Z</time>
      </trkpt>
      <trkpt lat="47.17345" lon="5.89345">
        <ele>229.6</ele>
        <time>2021-08-08T08:31:04Z</time>
      </trkpt>
      <trkpt lat="47.17341" lon="5.89349">
        <ele>230.5</ele>
        <time>2021-08-08T08:31:08Z</time>
      </trkpt>
      <trkpt lat="47.17336" lon="5.89353">
        <ele>232</ele>
        <time>2021-08-08T08:31:13Z</time>
      </trkpt>
      <trkpt lat="47.17332" lon="5.89357">
        <ele>232.7</ele>
        <time>2021-08-08T08:31:17Z</time>
      </trkpt>
      <trkpt lat="47.17328" lon="5.89361">
        <ele>233.2</ele>
        <time>2021-08-08T08:31:21Z</time>
      </trkpt>
      <trkpt lat="47.17324" lon="5.89364">
        <ele>233.4</ele>
        <time>2021-08-08T08:31:25Z</time>
      </trkpt>
      <trkpt lat="47.1732" lon="5.89369">
        <ele>234</ele>
        <time>2021-08-08T08:31:30Z</time>
      </trkpt>
      <trkpt lat="47.17315" lon="5.89373">
        <ele>233.9</ele>
        <time>2021-08-08T08:31:35Z</time>
      </trkpt>
      <trkpt lat="47.17311" lon="5.89378">
        <ele>233.8</ele>
        <time>2021-08-08T08:31:40Z</time>
      </trkpt>
      <trkpt lat="47.17308" lon="5.89383">
        <ele>233.6</ele>
        <time>2021-08-08T08:31:45Z</time>
      </trkpt>
      <trkpt lat="47.17303" lon="5.89387">
        <ele>233.5</ele>
        <time>2021-08-08T08:31:50Z</time>
      </trkpt>
      <trkpt lat="47.17299" lon="5.89392">
        <ele>233.5</ele>
        <time>2021-08-08T08:31:54Z</time>
      </trkpt>
      <trkpt lat="47.17295" lon="5.89397">
        <ele>233.2</ele>
        <time>2021-08-08T08:31:58Z</time>
      </trkpt>
      <trkpt lat="47.17292" lon="5.89403">
        <ele>232.9</ele>
        <time>2021-08-08T08:32:02Z</time>
      </trkpt>
      <trkpt lat="47.17288" lon="5.89408">
        <ele>232.2</ele>
        <time>2021-08-08T08:32:07Z</time>
      </trkpt>
      <trkpt lat="47.17284" lon="5.89411">
        <ele>231.1</ele>
        <time>2021-08-08T08:32:11Z</time>
      </trkpt>
      <trkpt lat="47.1728" lon="5.89417">
        <ele>230</ele>
        <time>2021-08-08T08:32:17Z</time>
      </trkpt>
      <trkpt lat="47.17276" lon="5.8942">
        <ele>228.7</ele>
        <time>2021-08-08T08:32:22Z</time>
      </trkpt>
      <trkpt lat="47.17273" lon="5.89426">
        <ele>228.2</ele>
        <time>2021-08-08T08:32:27Z</time>
      </trkpt>
      <trkpt lat="47.17269" lon="5.89432">
        <ele>227.6</ele>
        <time>2021-08-08T08:32:31Z</time>
      </trkpt>
      <trkpt lat="47.17266" lon="5.89438">
        <ele>227.1</ele>
        <time>2021-08-08T08:32:35Z</time>
      </trkpt>
      <trkpt lat="47.17263" lon="5.89442">
        <ele>226.9</ele>
        <time>2021-08-08T08:32:40Z</time>
      </trkpt>
      <trkpt lat="47.1726" lon="5.89447">
        <ele>226.9</ele>
        <time>2021-08-08T08:32:45Z</time>
      </trkpt>
      <trkpt lat="47.17257" lon="5.89454">
        <ele>227</ele>
        <time>2021-08-08T08:32:51Z</time>
      </trkpt>
      <trkpt lat="47.17254" lon="5.8946">
        <ele>226.7</ele>
        <time>2021-08-08T08:32:55Z</time>
      </trkpt>
      <trkpt lat="47.1725" lon="5.89465">
        <ele>226.4</ele>
        <time>2021-08-08T08:32:59Z</time>
      </trkpt>
      <trkpt lat="47.17245" lon="5.8947">
        <ele>225.6</ele>
        <time>2021-08-08T08:33:03Z</time>
      </trkpt>
      <trkpt lat="47.17243" lon="5.89476">
        <ele>225.4</ele>
        <time>2021-08-08T08:33:08Z</time>
      </trkpt>
      <trkpt lat="47.17238" lon="5.89482">
        <ele>224.9</ele>
        <time>2021-08-08T08:33:14Z</time>
      </trkpt>
      <trkpt lat="47.17234" lon="5.89487">
        <ele>225.3</ele>
        <time>2021-08-08T08:33:18Z</time>
      </trkpt>
      <trkpt lat="47.17231" lon="5.89491">
        <ele>225.3</ele>
        <time>2021-08-08T08:33:22Z</time>
      </trkpt>
      <trkpt lat="47.17227" lon="5.89495">
        <ele>224.9</ele>
        <time>2021-08-08T08:33:25Z</time>
      </trkpt>
      <trkpt lat="47.17223" lon="5.89499">
        <ele>224.6</ele>
        <time>2021-08-08T08:33:30Z</time>
      </trkpt>
      <trkpt lat="47.17219" lon="5.89504">
        <ele>224.6</ele>
        <time>2021-08-08T08:33:35Z</time>
      </trkpt>
      <trkpt lat="47.17214" lon="5.89506">
        <ele>224.6</ele>
        <time>2021-08-08T08:33:41Z</time>
      </trkpt>
      <trkpt lat="47.1721" lon="5.8951">
        <ele>224.4</ele>
        <time>2021-08-08T08:33:46Z</time>
      </trkpt>
      <trkpt lat="47.17208" lon="5.89517">
        <ele>224.2</ele>
        <time>2021-08-08T08:33:50Z</time>
      </trkpt>
      <trkpt lat="47.17205" lon="5.89522">
        <ele>223.7</ele>
        <time>2021-08-08T08:33:54Z</time>
      </trkpt>
      <trkpt lat="47.17203" lon="5.89529">
        <ele>223.2</ele>
        <time>2021-08-08T08:33:58Z</time>
      </trkpt>
      <trkpt lat="47.172" lon="5.89536">
        <ele>222.6</ele>
        <time>2021-08-08T08:34:02Z</time>
      </trkpt>
      <trkpt lat="47.17196" lon="5.89541">
        <ele>221.5</ele>
        <time>2021-08-08T08:34:09Z</time>
      </trkpt>
      <trkpt lat="47.17192" lon="5.89546">
        <ele>221</ele>
        <time>2021-08-08T08:34:14Z</time>
      </trkpt>
      <trkpt lat="47.17189" lon="5.89551">
        <ele>220.6</ele>
        <time>2021-08-08T08:34:17Z</time>
      </trkpt>
      <trkpt lat="47.17185" lon="5.89555">
        <ele>220.3</ele>
        <time>2021-08-08T08:34:20Z</time>
      </trkpt>
      <trkpt lat="47.1718" lon="5.89558">
        <ele>220.2</ele>
        <time>2021-08-08T08:34:23Z</time>
      </trkpt>
      <trkpt lat="47.17176" lon="5.89563">
        <ele>219.9</ele>
        <time>2021-08-08T08:34:27Z</time>
      </trkpt>
      <trkpt lat="47.17173" lon="5.89569">
        <ele>219.6</ele>
        <time>2021-08-08T08:34:32Z</time>
      </trkpt>
      <trkpt lat="47.17168" lon="5.89574">
        <ele>219.5</ele>
        <time>2021-08-08T08:34:36Z</time>
      </trkpt>
      <trkpt lat="47.17164" lon="5.89579">
        <ele>219.4</ele>
        <time>2021-08-08T08:34:41Z</time>
      </trkpt>
      <trkpt lat="47.17161" lon="5.89584">
        <ele>219.2</ele>
        <time>2021-08-08T08:34:50Z</time>
      </trkpt>
      <trkpt lat="47.17157" lon="5.8959">
        <ele>219.5</ele>
        <time>2021-08-08T08:34:54Z</time>
      </trkpt>
      <trkpt lat="47.17153" lon="5.89595">
        <ele>220.1</ele>
        <time>2021-08-08T08:34:57Z</time>
      </trkpt>
      <trkpt lat="47.1715" lon="5.896">
        <ele>221.4</ele>
        <time>2021-08-08T08:35:02Z</time>
      </trkpt>
      <trkpt lat="47.17147" lon="5.89605">
        <ele>223.2</ele>
        <time>2021-08-08T08:35:09Z</time>
      </trkpt>
      <trkpt lat="47.17143" lon="5.89611">
        <ele>224.5</ele>
        <time>2021-08-08T08:35:14Z</time>
      </trkpt>
      <trkpt lat="47.17139" lon="5.89616">
        <ele>225.2</ele>
        <time>2021-08-08T08:35:17Z</time>
      </trkpt>
      <trkpt lat="47.17135" lon="5.89622">
        <ele>225.9</ele>
        <time>2021-08-08T08:35:21Z</time>
      </trkpt>
      <trkpt lat="47.17132" lon="5.89629">
        <ele>227</ele>
        <time>2021-08-08T08:35:26Z</time>
      </trkpt>
      <trkpt lat="47.17128" lon="5.89635">
        <ele>227.7</ele>
        <time>2021-08-08T08:35:30Z</time>
      </trkpt>
      <trkpt lat="47.17125" lon="5.89641">
        <ele>227.7</ele>
        <time>2021-08-08T08:35:34Z</time>
      </trkpt>
      <trkpt lat="47.17121" lon="5.89646">
        <ele>227.6</ele>
        <time>2021-08-08T08:35:39Z</time>
      </trkpt>
      <trkpt lat="47.17118" lon="5.89652">
        <ele>227.4</ele>
        <time>2021-08-08T08:35:45Z</time>
      </trkpt>
      <trkpt lat="47.17114" lon="5.89657">
        <ele>227.4</ele>
        <time>2021-08-08T08:35:49Z</time>
      </trkpt>
      <trkpt lat="47.1711" lon="5.89662">
        <ele>227.3</ele>
        <time>2021-08-08T08:35:54Z</time>
      </trkpt>
      <trkpt lat="47.17105" lon="5.89666">
        <ele>227.4</ele>
        <time>2021-08-08T08:35:58Z</time>
      </trkpt>
      <trkpt lat="47.17102" lon="5.89671">
        <ele>227.6</ele>
        <time>2021-08-08T08:36:03Z</time>
      </trkpt>
      <trkpt lat="47.17099" lon="5.89677">
        <ele>228.3</ele>
        <time>2021-08-08T08:36:08Z</time>
      </trkpt>
      <trkpt lat="47.17095" lon="5.89684">
        <ele>228.5</ele>
        <time>2021-08-08T08:36:12Z</time>
      </trkpt>
      <trkpt lat="47.17092" lon="5.8969">
        <ele>229.1</ele>
        <time>2021-08-08T08:36:15Z</time>
      </trkpt>
      <trkpt lat="47.17089" lon="5.89696">
        <ele>231</ele>
        <time>2021-08-08T08:36:24Z</time>
      </trkpt>
      <trkpt lat="47.17087" lon="5.89703">
        <ele>231</ele>
        <time>2021-08-08T08:36:29Z</time>
      </trkpt>
      <trkpt lat="47.17083" lon="5.89709">
        <ele>231</ele>
        <time>2021-08-08T08:36:33Z</time>
      </trkpt>
      <trkpt lat="47.17081" lon="5.89715">
        <ele>231</ele>
        <time>2021-08-08T08:36:36Z</time>
      </trkpt>
      <trkpt lat="47.17078" lon="5.8972">
        <ele>230.9</ele>
        <time>2021-08-08T08:36:39Z</time>
      </trkpt>
      <trkpt lat="47.17079" lon="5.89728">
        <ele>230.3</ele>
        <time>2021-08-08T08:36:45Z</time>
      </trkpt>
      <trkpt lat="47.17077" lon="5.89734">
        <ele>227.8</ele>
        <time>2021-08-08T08:36:51Z</time>
      </trkpt>
      <trkpt lat="47.17075" lon="5.89742">
        <ele>226.3</ele>
        <time>2021-08-08T08:36:56Z</time>
      </trkpt>
      <trkpt lat="47.17071" lon="5.89747">
        <ele>225.2</ele>
        <time>2021-08-08T08:37:00Z</time>
      </trkpt>
      <trkpt lat="47.17068" lon="5.89753">
        <ele>224.9</ele>
        <time>2021-08-08T08:37:04Z</time>
      </trkpt>
      <trkpt lat="47.17067" lon="5.8976">
        <ele>224.8</ele>
        <time>2021-08-08T08:37:08Z</time>
      </trkpt>
      <trkpt lat="47.17065" lon="5.89768">
        <ele>224.9</ele>
        <time>2021-08-08T08:37:12Z</time>
      </trkpt>
      <trkpt lat="47.17064" lon="5.89775">
        <ele>224.6</ele>
        <time>2021-08-08T08:37:17Z</time>
      </trkpt>
      <trkpt lat="47.17063" lon="5.89782">
        <ele>223.9</ele>
        <time>2021-08-08T08:37:23Z</time>
      </trkpt>
      <trkpt lat="47.1706" lon="5.89789">
        <ele>224</ele>
        <time>2021-08-08T08:37:28Z</time>
      </trkpt>
      <trkpt lat="47.17059" lon="5.89796">
        <ele>224</ele>
        <time>2021-08-08T08:37:33Z</time>
      </trkpt>
      <trkpt lat="47.17056" lon="5.89803">
        <ele>224.7</ele>
        <time>2021-08-08T08:37:39Z</time>
      </trkpt>
      <trkpt lat="47.17053" lon="5.89808">
        <ele>225.4</ele>
        <time>2021-08-08T08:37:44Z</time>
      </trkpt>
      <trkpt lat="47.1705" lon="5.89814">
        <ele>225.8</ele>
        <time>2021-08-08T08:37:49Z</time>
      </trkpt>
      <trkpt lat="47.17046" lon="5.89821">
        <ele>226</ele>
        <time>2021-08-08T08:37:54Z</time>
      </trkpt>
      <trkpt lat="47.17043" lon="5.89828">
        <ele>226.1</ele>
        <time>2021-08-08T08:37:59Z</time>
      </trkpt>
      <trkpt lat="47.17039" lon="5.89834">
        <ele>226.8</ele>
        <time>2021-08-08T08:38:03Z</time>
      </trkpt>
      <trkpt lat="47.17037" lon="5.8984">
        <ele>227.5</ele>
        <time>2021-08-08T08:38:06Z</time>
      </trkpt>
      <trkpt lat="47.17033" lon="5.89847">
        <ele>228.4</ele>
        <time>2021-08-08T08:38:10Z</time>
      </trkpt>
      <trkpt lat="47.1703" lon="5.89852">
        <ele>229</ele>
        <time>2021-08-08T08:38:14Z</time>
      </trkpt>
      <trkpt lat="47.17028" lon="5.89858">
        <ele>228.5</ele>
        <time>2021-08-08T08:38:21Z</time>
      </trkpt>
      <trkpt lat="47.17026" lon="5.89865">
        <ele>227.4</ele>
        <time>2021-08-08T08:38:32Z</time>
      </trkpt>
      <trkpt lat="47.17026" lon="5.89872">
        <ele>226.6</ele>
        <time>2021-08-08T08:38:38Z</time>
      </trkpt>
      <trkpt lat="47.17025" lon="5.89878">
        <ele>226.5</ele>
        <time>2021-08-08T08:38:42Z</time>
      </trkpt>
      <trkpt lat="47.17023" lon="5.89886">
        <ele>226.7</ele>
        <time>2021-08-08T08:38:46Z</time>
      </trkpt>
      <trkpt lat="47.17021" lon="5.89894">
        <ele>226.9</ele>
        <time>2021-08-08T08:38:50Z</time>
      </trkpt>
      <trkpt lat="47.1702" lon="5.899">
        <ele>227.3</ele>
        <time>2021-08-08T08:38:54Z</time>
      </trkpt>
      <trkpt lat="47.17018" lon="5.89908">
        <ele>227.4</ele>
        <time>2021-08-08T08:38:59Z</time>
      </trkpt>
      <trkpt lat="47.17016" lon="5.89915">
        <ele>227.1</ele>
        <time>2021-08-08T08:39:04Z</time>
      </trkpt>
      <trkpt lat="47.17017" lon="5.89921">
        <ele>227.1</ele>
        <time>2021-08-08T08:39:10Z</time>
      </trkpt>
      <trkpt lat="47.17015" lon="5.89928">
        <ele>227.5</ele>
        <time>2021-08-08T08:39:15Z</time>
      </trkpt>
      <trkpt lat="47.17015" lon="5.89936">
        <ele>227.9</ele>
        <time>2021-08-08T08:39:21Z</time>
      </trkpt>
      <trkpt lat="47.17014" lon="5.89943">
        <ele>226.9</ele>
        <time>2021-08-08T08:39:37Z</time>
      </trkpt>
      <trkpt lat="47.17011" lon="5.89949">
        <ele>226.3</ele>
        <time>2021-08-08T08:39:41Z</time>
      </trkpt>
      <trkpt lat="47.17008" lon="5.89953">
        <ele>224.8</ele>
        <time>2021-08-08T08:39:48Z</time>
      </trkpt>
      <trkpt lat="47.17006" lon="5.8996">
        <ele>224.7</ele>
        <time>2021-08-08T08:39:59Z</time>
      </trkpt>
      <trkpt lat="47.17" lon="5.89964">
        <ele>223.7</ele>
        <time>2021-08-08T08:42:39Z</time>
      </trkpt>
      <trkpt lat="47.16999" lon="5.89971">
        <ele>224.8</ele>
        <time>2021-08-08T08:42:44Z</time>
      </trkpt>
      <trkpt lat="47.16997" lon="5.89978">
        <ele>225.2</ele>
        <time>2021-08-08T08:42:49Z</time>
      </trkpt>
      <trkpt lat="47.16994" lon="5.89983">
        <ele>225.3</ele>
        <time>2021-08-08T08:42:53Z</time>
      </trkpt>
      <trkpt lat="47.1699" lon="5.89988">
        <ele>225.7</ele>
        <time>2021-08-08T08:42:58Z</time>
      </trkpt>
      <trkpt lat="47.16986" lon="5.89993">
        <ele>225.7</ele>
        <time>2021-08-08T08:43:02Z</time>
      </trkpt>
      <trkpt lat="47.16984" lon="5.89999">
        <ele>225.9</ele>
        <time>2021-08-08T08:43:06Z</time>
      </trkpt>
      <trkpt lat="47.1698" lon="5.90004">
        <ele>226.4</ele>
        <time>2021-08-08T08:43:11Z</time>
      </trkpt>
      <trkpt lat="47.16977" lon="5.9001">
        <ele>227</ele>
        <time>2021-08-08T08:43:17Z</time>
      </trkpt>
      <trkpt lat="47.16974" lon="5.90015">
        <ele>226.9</ele>
        <time>2021-08-08T08:43:24Z</time>
      </trkpt>
      <trkpt lat="47.16971" lon="5.90022">
        <ele>226.9</ele>
        <time>2021-08-08T08:43:30Z</time>
      </trkpt>
      <trkpt lat="47.16968" lon="5.90027">
        <ele>227</ele>
        <time>2021-08-08T08:43:34Z</time>
      </trkpt>
      <trkpt lat="47.16965" lon="5.90033">
        <ele>227.2</ele>
        <time>2021-08-08T08:43:37Z</time>
      </trkpt>
      <trkpt lat="47.16962" lon="5.90038">
        <ele>227.7</ele>
        <time>2021-08-08T08:43:42Z</time>
      </trkpt>
      <trkpt lat="47.1696" lon="5.90045">
        <ele>228</ele>
        <time>2021-08-08T08:43:47Z</time>
      </trkpt>
      <trkpt lat="47.16958" lon="5.90052">
        <ele>228.1</ele>
        <time>2021-08-08T08:43:51Z</time>
      </trkpt>
      <trkpt lat="47.16955" lon="5.90058">
        <ele>228.2</ele>
        <time>2021-08-08T08:43:55Z</time>
      </trkpt>
      <trkpt lat="47.16952" lon="5.90063">
        <ele>227.8</ele>
        <time>2021-08-08T08:43:59Z</time>
      </trkpt>
      <trkpt lat="47.16948" lon="5.90068">
        <ele>227.2</ele>
        <time>2021-08-08T08:44:05Z</time>
      </trkpt>
      <trkpt lat="47.16945" lon="5.90072">
        <ele>227.4</ele>
        <time>2021-08-08T08:44:10Z</time>
      </trkpt>
      <trkpt lat="47.16942" lon="5.90078">
        <ele>228.2</ele>
        <time>2021-08-08T08:44:15Z</time>
      </trkpt>
      <trkpt lat="47.16938" lon="5.90082">
        <ele>229.2</ele>
        <time>2021-08-08T08:44:19Z</time>
      </trkpt>
      <trkpt lat="47.16935" lon="5.90089">
        <ele>229.8</ele>
        <time>2021-08-08T08:44:23Z</time>
      </trkpt>
      <trkpt lat="47.16931" lon="5.90095">
        <ele>229.8</ele>
        <time>2021-08-08T08:44:27Z</time>
      </trkpt>
      <trkpt lat="47.16927" lon="5.90099">
        <ele>229.1</ele>
        <time>2021-08-08T08:44:33Z</time>
      </trkpt>
      <trkpt lat="47.16923" lon="5.90104">
        <ele>228.5</ele>
        <time>2021-08-08T08:44:38Z</time>
      </trkpt>
      <trkpt lat="47.16919" lon="5.90109">
        <ele>228</ele>
        <time>2021-08-08T08:44:43Z</time>
      </trkpt>
      <trkpt lat="47.16916" lon="5.90114">
        <ele>227.9</ele>
        <time>2021-08-08T08:44:49Z</time>
      </trkpt>
      <trkpt lat="47.16912" lon="5.90119">
        <ele>228.2</ele>
        <time>2021-08-08T08:44:53Z</time>
      </trkpt>
      <trkpt lat="47.16908" lon="5.90125">
        <ele>227.9</ele>
        <time>2021-08-08T08:44:57Z</time>
      </trkpt>
      <trkpt lat="47.16904" lon="5.90129">
        <ele>227.4</ele>
        <time>2021-08-08T08:45:02Z</time>
      </trkpt>
      <trkpt lat="47.169" lon="5.90133">
        <ele>227.2</ele>
        <time>2021-08-08T08:45:06Z</time>
      </trkpt>
      <trkpt lat="47.16896" lon="5.90138">
        <ele>227.1</ele>
        <time>2021-08-08T08:45:10Z</time>
      </trkpt>
      <trkpt lat="47.16893" lon="5.90144">
        <ele>227.1</ele>
        <time>2021-08-08T08:45:13Z</time>
      </trkpt>
      <trkpt lat="47.1689" lon="5.90149">
        <ele>227.3</ele>
        <time>2021-08-08T08:45:16Z</time>
      </trkpt>
      <trkpt lat="47.16887" lon="5.90155">
        <ele>227.3</ele>
        <time>2021-08-08T08:45:20Z</time>
      </trkpt>
      <trkpt lat="47.16884" lon="5.90161">
        <ele>227.5</ele>
        <time>2021-08-08T08:45:27Z</time>
      </trkpt>
      <trkpt lat="47.1688" lon="5.90165">
        <ele>227.8</ele>
        <time>2021-08-08T08:45:31Z</time>
      </trkpt>
      <trkpt lat="47.16876" lon="5.90168">
        <ele>228.2</ele>
        <time>2021-08-08T08:45:35Z</time>
      </trkpt>
      <trkpt lat="47.16872" lon="5.90174">
        <ele>228.9</ele>
        <time>2021-08-08T08:45:40Z</time>
      </trkpt>
      <trkpt lat="47.16869" lon="5.90179">
        <ele>229.4</ele>
        <time>2021-08-08T08:45:43Z</time>
      </trkpt>
      <trkpt lat="47.16865" lon="5.90185">
        <ele>230.3</ele>
        <time>2021-08-08T08:45:47Z</time>
      </trkpt>
      <trkpt lat="47.16862" lon="5.90189">
        <ele>231.2</ele>
        <time>2021-08-08T08:45:52Z</time>
      </trkpt>
      <trkpt lat="47.16858" lon="5.90196">
        <ele>231.4</ele>
        <time>2021-08-08T08:45:58Z</time>
      </trkpt>
      <trkpt lat="47.16854" lon="5.902">
        <ele>230.8</ele>
        <time>2021-08-08T08:46:03Z</time>
      </trkpt>
      <trkpt lat="47.1685" lon="5.90204">
        <ele>229.8</ele>
        <time>2021-08-08T08:46:08Z</time>
      </trkpt>
      <trkpt lat="47.16846" lon="5.90209">
        <ele>229.3</ele>
        <time>2021-08-08T08:46:13Z</time>
      </trkpt>
      <trkpt lat="47.16842" lon="5.90215">
        <ele>229.3</ele>
        <time>2021-08-08T08:46:18Z</time>
      </trkpt>
      <trkpt lat="47.16839" lon="5.90221">
        <ele>229.2</ele>
        <time>2021-08-08T08:46:22Z</time>
      </trkpt>
      <trkpt lat="47.16835" lon="5.90227">
        <ele>229</ele>
        <time>2021-08-08T08:46:26Z</time>
      </trkpt>
      <trkpt lat="47.16831" lon="5.90231">
        <ele>228.8</ele>
        <time>2021-08-08T08:46:29Z</time>
      </trkpt>
      <trkpt lat="47.16826" lon="5.90235">
        <ele>228.1</ele>
        <time>2021-08-08T08:46:36Z</time>
      </trkpt>
      <trkpt lat="47.16823" lon="5.90241">
        <ele>227.9</ele>
        <time>2021-08-08T08:46:41Z</time>
      </trkpt>
      <trkpt lat="47.16818" lon="5.90246">
        <ele>227.8</ele>
        <time>2021-08-08T08:46:45Z</time>
      </trkpt>
      <trkpt lat="47.16814" lon="5.90251">
        <ele>227.8</ele>
        <time>2021-08-08T08:46:48Z</time>
      </trkpt>
      <trkpt lat="47.1681" lon="5.90255">
        <ele>227.9</ele>
        <time>2021-08-08T08:46:52Z</time>
      </trkpt>
      <trkpt lat="47.16806" lon="5.90261">
        <ele>228.4</ele>
        <time>2021-08-08T08:46:57Z</time>
      </trkpt>
      <trkpt lat="47.16802" lon="5.90264">
        <ele>229.2</ele>
        <time>2021-08-08T08:47:03Z</time>
      </trkpt>
      <trkpt lat="47.16797" lon="5.90269">
        <ele>230.2</ele>
        <time>2021-08-08T08:47:15Z</time>
      </trkpt>
      <trkpt lat="47.16794" lon="5.90274">
        <ele>230.2</ele>
        <time>2021-08-08T08:47:19Z</time>
      </trkpt>
      <trkpt lat="47.16789" lon="5.9028">
        <ele>230.4</ele>
        <time>2021-08-08T08:47:23Z</time>
      </trkpt>
      <trkpt lat="47.16785" lon="5.90285">
        <ele>230.4</ele>
        <time>2021-08-08T08:47:27Z</time>
      </trkpt>
      <trkpt lat="47.16781" lon="5.90289">
        <ele>230.3</ele>
        <time>2021-08-08T08:47:32Z</time>
      </trkpt>
      <trkpt lat="47.16776" lon="5.90293">
        <ele>230.2</ele>
        <time>2021-08-08T08:47:39Z</time>
      </trkpt>
      <trkpt lat="47.16773" lon="5.90298">
        <ele>230</ele>
        <time>2021-08-08T08:47:47Z</time>
      </trkpt>
      <trkpt lat="47.16769" lon="5.90301">
        <ele>230</ele>
        <time>2021-08-08T08:47:52Z</time>
      </trkpt>
      <trkpt lat="47.16764" lon="5.90303">
        <ele>230</ele>
        <time>2021-08-08T08:47:58Z</time>
      </trkpt>
      <trkpt lat="47.1676" lon="5.90306">
        <ele>230.4</ele>
        <time>2021-08-08T08:48:04Z</time>
      </trkpt>
      <trkpt lat="47.1676" lon="5.90314">
        <ele>229.2</ele>
        <time>2021-08-08T08:49:35Z</time>
      </trkpt>
      <trkpt lat="47.16758" lon="5.9032">
        <ele>230.4</ele>
        <time>2021-08-08T08:49:49Z</time>
      </trkpt>
      <trkpt lat="47.16761" lon="5.90326">
        <ele>230.8</ele>
        <time>2021-08-08T08:50:17Z</time>
      </trkpt>
      <trkpt lat="47.16765" lon="5.90329">
        <ele>230.5</ele>
        <time>2021-08-08T08:50:25Z</time>
      </trkpt>
      <trkpt lat="47.16768" lon="5.90335">
        <ele>230.6</ele>
        <time>2021-08-08T08:50:31Z</time>
      </trkpt>
      <trkpt lat="47.1677" lon="5.90341">
        <ele>230.4</ele>
        <time>2021-08-08T08:50:35Z</time>
      </trkpt>
      <trkpt lat="47.16773" lon="5.90346">
        <ele>230.3</ele>
        <time>2021-08-08T08:50:39Z</time>
      </trkpt>
      <trkpt lat="47.16776" lon="5.90352">
        <ele>229.8</ele>
        <time>2021-08-08T08:50:44Z</time>
      </trkpt>
      <trkpt lat="47.16779" lon="5.90357">
        <ele>229</ele>
        <time>2021-08-08T08:50:51Z</time>
      </trkpt>
      <trkpt lat="47.16781" lon="5.90364">
        <ele>227.9</ele>
        <time>2021-08-08T08:50:59Z</time>
      </trkpt>
      <trkpt lat="47.16785" lon="5.90368">
        <ele>227</ele>
        <time>2021-08-08T08:51:05Z</time>
      </trkpt>
      <trkpt lat="47.16789" lon="5.90373">
        <ele>226.7</ele>
        <time>2021-08-08T08:51:10Z</time>
      </trkpt>
      <trkpt lat="47.16792" lon="5.90379">
        <ele>226.9</ele>
        <time>2021-08-08T08:51:16Z</time>
      </trkpt>
      <trkpt lat="47.16794" lon="5.90385">
        <ele>226.8</ele>
        <time>2021-08-08T08:51:21Z</time>
      </trkpt>
      <trkpt lat="47.16795" lon="5.90392">
        <ele>226</ele>
        <time>2021-08-08T08:51:26Z</time>
      </trkpt>
      <trkpt lat="47.16798" lon="5.90397">
        <ele>225.3</ele>
        <time>2021-08-08T08:51:31Z</time>
      </trkpt>
      <trkpt lat="47.16802" lon="5.90401">
        <ele>224.7</ele>
        <time>2021-08-08T08:51:35Z</time>
      </trkpt>
      <trkpt lat="47.16806" lon="5.90405">
        <ele>224.1</ele>
        <time>2021-08-08T08:51:40Z</time>
      </trkpt>
      <trkpt lat="47.1681" lon="5.9041">
        <ele>223.7</ele>
        <time>2021-08-08T08:51:47Z</time>
      </trkpt>
      <trkpt lat="47.16813" lon="5.90415">
        <ele>223.9</ele>
        <time>2021-08-08T08:51:53Z</time>
      </trkpt>
      <trkpt lat="47.16817" lon="5.90419">
        <ele>224.3</ele>
        <time>2021-08-08T08:51:58Z</time>
      </trkpt>
      <trkpt lat="47.16821" lon="5.90425">
        <ele>224.6</ele>
        <time>2021-08-08T08:52:03Z</time>
      </trkpt>
      <trkpt lat="47.16824" lon="5.90431">
        <ele>224.8</ele>
        <time>2021-08-08T08:52:07Z</time>
      </trkpt>
      <trkpt lat="47.16825" lon="5.90438">
        <ele>225.9</ele>
        <time>2021-08-08T08:52:13Z</time>
      </trkpt>
      <trkpt lat="47.16828" lon="5.90445">
        <ele>227.7</ele>
        <time>2021-08-08T08:52:19Z</time>
      </trkpt>
      <trkpt lat="47.16832" lon="5.90449">
        <ele>229.4</ele>
        <time>2021-08-08T08:52:24Z</time>
      </trkpt>
      <trkpt lat="47.16836" lon="5.90453">
        <ele>230.5</ele>
        <time>2021-08-08T08:52:27Z</time>
      </trkpt>
      <trkpt lat="47.1684" lon="5.90457">
        <ele>231.6</ele>
        <time>2021-08-08T08:52:31Z</time>
      </trkpt>
      <trkpt lat="47.16845" lon="5.90462">
        <ele>232.6</ele>
        <time>2021-08-08T08:52:36Z</time>
      </trkpt>
      <trkpt lat="47.16848" lon="5.90468">
        <ele>233.1</ele>
        <time>2021-08-08T08:52:41Z</time>
      </trkpt>
      <trkpt lat="47.16852" lon="5.90472">
        <ele>233.5</ele>
        <time>2021-08-08T08:52:45Z</time>
      </trkpt>
      <trkpt lat="47.16857" lon="5.90476">
        <ele>233.9</ele>
        <time>2021-08-08T08:52:49Z</time>
      </trkpt>
      <trkpt lat="47.16859" lon="5.90482">
        <ele>234.8</ele>
        <time>2021-08-08T08:52:54Z</time>
      </trkpt>
      <trkpt lat="47.16861" lon="5.90488">
        <ele>236</ele>
        <time>2021-08-08T08:52:59Z</time>
      </trkpt>
      <trkpt lat="47.16866" lon="5.90493">
        <ele>237</ele>
        <time>2021-08-08T08:53:04Z</time>
      </trkpt>
      <trkpt lat="47.1687" lon="5.90497">
        <ele>237.6</ele>
        <time>2021-08-08T08:53:09Z</time>
      </trkpt>
      <trkpt lat="47.16875" lon="5.90501">
        <ele>237.8</ele>
        <time>2021-08-08T08:53:14Z</time>
      </trkpt>
      <trkpt lat="47.16877" lon="5.90507">
        <ele>237.5</ele>
        <time>2021-08-08T08:53:19Z</time>
      </trkpt>
      <trkpt lat="47.16882" lon="5.90512">
        <ele>237</ele>
        <time>2021-08-08T08:53:24Z</time>
      </trkpt>
      <trkpt lat="47.16886" lon="5.90517">
        <ele>236.7</ele>
        <time>2021-08-08T08:53:28Z</time>
      </trkpt>
      <trkpt lat="47.16891" lon="5.90521">
        <ele>236.6</ele>
        <time>2021-08-08T08:53:34Z</time>
      </trkpt>
      <trkpt lat="47.16895" lon="5.90526">
        <ele>236</ele>
        <time>2021-08-08T08:53:39Z</time>
      </trkpt>
      <trkpt lat="47.16898" lon="5.90532">
        <ele>235.3</ele>
        <time>2021-08-08T08:53:43Z</time>
      </trkpt>
      <trkpt lat="47.16902" lon="5.90535">
        <ele>234.7</ele>
        <time>2021-08-08T08:53:47Z</time>
      </trkpt>
      <trkpt lat="47.16906" lon="5.90539">
        <ele>234.2</ele>
        <time>2021-08-08T08:53:51Z</time>
      </trkpt>
      <trkpt lat="47.1691" lon="5.90543">
        <ele>234.8</ele>
        <time>2021-08-08T08:54:00Z</time>
      </trkpt>
      <trkpt lat="47.16914" lon="5.90547">
        <ele>234.7</ele>
        <time>2021-08-08T08:54:07Z</time>
      </trkpt>
      <trkpt lat="47.16919" lon="5.90548">
        <ele>234.3</ele>
        <time>2021-08-08T08:54:13Z</time>
      </trkpt>
      <trkpt lat="47.16924" lon="5.90548">
        <ele>233.5</ele>
        <time>2021-08-08T08:54:18Z</time>
      </trkpt>
      <trkpt lat="47.16928" lon="5.90552">
        <ele>232.6</ele>
        <time>2021-08-08T08:54:23Z</time>
      </trkpt>
      <trkpt lat="47.16924" lon="5.90555">
        <ele>230.6</ele>
        <time>2021-08-08T08:54:34Z</time>
      </trkpt>
      <trkpt lat="47.16925" lon="5.90562">
        <ele>229.1</ele>
        <time>2021-08-08T08:54:43Z</time>
      </trkpt>
      <trkpt lat="47.16928" lon="5.90567">
        <ele>228.7</ele>
        <time>2021-08-08T08:54:48Z</time>
      </trkpt>
      <trkpt lat="47.16932" lon="5.90571">
        <ele>228.6</ele>
        <time>2021-08-08T08:54:53Z</time>
      </trkpt>
      <trkpt lat="47.16937" lon="5.90573">
        <ele>230.2</ele>
        <time>2021-08-08T08:54:59Z</time>
      </trkpt>
      <trkpt lat="47.16941" lon="5.90576">
        <ele>231.2</ele>
        <time>2021-08-08T08:55:03Z</time>
      </trkpt>
      <trkpt lat="47.16945" lon="5.9058">
        <ele>233</ele>
        <time>2021-08-08T08:55:09Z</time>
      </trkpt>
      <trkpt lat="47.1695" lon="5.90585">
        <ele>234.8</ele>
        <time>2021-08-08T08:55:14Z</time>
      </trkpt>
      <trkpt lat="47.16954" lon="5.90588">
        <ele>236.1</ele>
        <time>2021-08-08T08:55:19Z</time>
      </trkpt>
      <trkpt lat="47.16957" lon="5.90592">
        <ele>237.4</ele>
        <time>2021-08-08T08:55:28Z</time>
      </trkpt>
      <trkpt lat="47.16955" lon="5.90584">
        <ele>234.4</ele>
        <time>2021-08-08T08:56:02Z</time>
      </trkpt>
      <trkpt lat="47.1695" lon="5.90583">
        <ele>233.3</ele>
        <time>2021-08-08T08:56:05Z</time>
      </trkpt>
      <trkpt lat="47.16945" lon="5.9058">
        <ele>232.1</ele>
        <time>2021-08-08T08:56:16Z</time>
      </trkpt>
      <trkpt lat="47.16946" lon="5.90587">
        <ele>232.5</ele>
        <time>2021-08-08T08:56:24Z</time>
      </trkpt>
      <trkpt lat="47.16949" lon="5.90592">
        <ele>231.8</ele>
        <time>2021-08-08T08:56:31Z</time>
      </trkpt>
      <trkpt lat="47.16947" lon="5.90585">
        <ele>232.8</ele>
        <time>2021-08-08T08:56:52Z</time>
      </trkpt>
      <trkpt lat="47.16963" lon="5.90584">
        <ele>234.3</ele>
        <time>2021-08-08T08:57:23Z</time>
      </trkpt>
      <trkpt lat="47.1697" lon="5.90584">
        <ele>234.7</ele>
        <time>2021-08-08T08:57:26Z</time>
      </trkpt>
      <trkpt lat="47.16974" lon="5.90585">
        <ele>236.9</ele>
        <time>2021-08-08T08:57:34Z</time>
      </trkpt>
      <trkpt lat="47.16974" lon="5.90592">
        <ele>239.3</ele>
        <time>2021-08-08T08:57:47Z</time>
      </trkpt>
      <trkpt lat="47.16977" lon="5.90597">
        <ele>240.5</ele>
        <time>2021-08-08T08:57:56Z</time>
      </trkpt>
      <trkpt lat="47.16981" lon="5.90602">
        <ele>240.5</ele>
        <time>2021-08-08T08:58:05Z</time>
      </trkpt>
      <trkpt lat="47.16986" lon="5.90603">
        <ele>240.1</ele>
        <time>2021-08-08T08:58:09Z</time>
      </trkpt>
      <trkpt lat="47.1698" lon="5.90603">
        <ele>239.9</ele>
        <time>2021-08-08T08:58:13Z</time>
      </trkpt>
      <trkpt lat="47.16982" lon="5.9061">
        <ele>239.7</ele>
        <time>2021-08-08T08:58:39Z</time>
      </trkpt>
      <trkpt lat="47.17151" lon="5.90801">
        <ele>269.7</ele>
        <time>2021-08-08T09:00:56Z</time>
      </trkpt>
      <trkpt lat="47.1714" lon="5.908">
        <ele>265.2</ele>
        <time>2021-08-08T09:00:59Z</time>
      </trkpt>
      <trkpt lat="47.17134" lon="5.908">
        <ele>261.1</ele>
        <time>2021-08-08T09:01:02Z</time>
      </trkpt>
      <trkpt lat="47.17129" lon="5.908">
        <ele>255.5</ele>
        <time>2021-08-08T09:01:08Z</time>
      </trkpt>
      <trkpt lat="47.17124" lon="5.908">
        <ele>253.7</ele>
        <time>2021-08-08T09:01:11Z</time>
      </trkpt>
      <trkpt lat="47.17121" lon="5.90796">
        <ele>250.6</ele>
        <time>2021-08-08T09:01:17Z</time>
      </trkpt>
      <trkpt lat="47.17121" lon="5.90788">
        <ele>246.5</ele>
        <time>2021-08-08T09:01:23Z</time>
      </trkpt>
      <trkpt lat="47.17116" lon="5.90785">
        <ele>243.2</ele>
        <time>2021-08-08T09:01:26Z</time>
      </trkpt>
      <trkpt lat="47.1711" lon="5.90786">
        <ele>240.6</ele>
        <time>2021-08-08T09:01:30Z</time>
      </trkpt>
      <trkpt lat="47.17104" lon="5.90788">
        <ele>238.7</ele>
        <time>2021-08-08T09:01:33Z</time>
      </trkpt>
      <trkpt lat="47.17107" lon="5.90794">
        <ele>232.1</ele>
        <time>2021-08-08T09:01:50Z</time>
      </trkpt>
      <trkpt lat="47.17111" lon="5.90798">
        <ele>231.7</ele>
        <time>2021-08-08T09:01:56Z</time>
      </trkpt>
      <trkpt lat="47.17115" lon="5.90796">
        <ele>231.2</ele>
        <time>2021-08-08T09:02:12Z</time>
      </trkpt>
      <trkpt lat="47.1712" lon="5.90795">
        <ele>231.2</ele>
        <time>2021-08-08T09:02:16Z</time>
      </trkpt>
      <trkpt lat="47.17115" lon="5.90798">
        <ele>231.7</ele>
        <time>2021-08-08T09:02:30Z</time>
      </trkpt>
      <trkpt lat="47.17113" lon="5.90804">
        <ele>231.9</ele>
        <time>2021-08-08T09:02:33Z</time>
      </trkpt>
      <trkpt lat="47.17109" lon="5.90798">
        <ele>234.4</ele>
        <time>2021-08-08T09:02:46Z</time>
      </trkpt>
      <trkpt lat="47.17107" lon="5.90792">
        <ele>235.9</ele>
        <time>2021-08-08T09:02:52Z</time>
      </trkpt>
      <trkpt lat="47.17103" lon="5.90798">
        <ele>237.1</ele>
        <time>2021-08-08T09:03:04Z</time>
      </trkpt>
      <trkpt lat="47.17099" lon="5.908">
        <ele>237.2</ele>
        <time>2021-08-08T09:03:08Z</time>
      </trkpt>
      <trkpt lat="47.17104" lon="5.90802">
        <ele>236.7</ele>
        <time>2021-08-08T09:03:16Z</time>
      </trkpt>
      <trkpt lat="47.17102" lon="5.90795">
        <ele>236.2</ele>
        <time>2021-08-08T09:03:22Z</time>
      </trkpt>
      <trkpt lat="47.17104" lon="5.90789">
        <ele>235.9</ele>
        <time>2021-08-08T09:03:26Z</time>
      </trkpt>
      <trkpt lat="47.17109" lon="5.90788">
        <ele>235.7</ele>
        <time>2021-08-08T09:03:31Z</time>
      </trkpt>
      <trkpt lat="47.1711" lon="5.90781">
        <ele>234.9</ele>
        <time>2021-08-08T09:03:37Z</time>
      </trkpt>
      <trkpt lat="47.1711" lon="5.90774">
        <ele>233.6</ele>
        <time>2021-08-08T09:04:11Z</time>
      </trkpt>
      <trkpt lat="47.17107" lon="5.90769">
        <ele>232.3</ele>
        <time>2021-08-08T09:04:15Z</time>
      </trkpt>
      <trkpt lat="47.17103" lon="5.90774">
        <ele>226.8</ele>
        <time>2021-08-08T09:04:55Z</time>
      </trkpt>
      <trkpt lat="47.17108" lon="5.90774">
        <ele>225.2</ele>
        <time>2021-08-08T09:05:09Z</time>
      </trkpt>
      <trkpt lat="47.17112" lon="5.9077">
        <ele>224.7</ele>
        <time>2021-08-08T09:05:14Z</time>
      </trkpt>
      <trkpt lat="47.17118" lon="5.90771">
        <ele>224.3</ele>
        <time>2021-08-08T09:05:18Z</time>
      </trkpt>
      <trkpt lat="47.17122" lon="5.90772">
        <ele>224.2</ele>
        <time>2021-08-08T09:05:21Z</time>
      </trkpt>
      <trkpt lat="47.17127" lon="5.90776">
        <ele>223.8</ele>
        <time>2021-08-08T09:05:33Z</time>
      </trkpt>
      <trkpt lat="47.17125" lon="5.90782">
        <ele>223.4</ele>
        <time>2021-08-08T09:05:39Z</time>
      </trkpt>
      <trkpt lat="47.17129" lon="5.90787">
        <ele>223.6</ele>
        <time>2021-08-08T09:05:45Z</time>
      </trkpt>
      <trkpt lat="47.17133" lon="5.9079">
        <ele>224.3</ele>
        <time>2021-08-08T09:05:49Z</time>
      </trkpt>
      <trkpt lat="47.17138" lon="5.90794">
        <ele>224.6</ele>
        <time>2021-08-08T09:05:54Z</time>
      </trkpt>
      <trkpt lat="47.17141" lon="5.90799">
        <ele>224.6</ele>
        <time>2021-08-08T09:06:02Z</time>
      </trkpt>
      <trkpt lat="47.17139" lon="5.90805">
        <ele>224.7</ele>
        <time>2021-08-08T09:06:09Z</time>
      </trkpt>
      <trkpt lat="47.17137" lon="5.90797">
        <ele>223.3</ele>
        <time>2021-08-08T09:06:29Z</time>
      </trkpt>
      <trkpt lat="47.17137" lon="5.90789">
        <ele>223</ele>
        <time>2021-08-08T09:06:33Z</time>
      </trkpt>
      <trkpt lat="47.17134" lon="5.90784">
        <ele>223.1</ele>
        <time>2021-08-08T09:06:41Z</time>
      </trkpt>
      <trkpt lat="47.17138" lon="5.90787">
        <ele>222.7</ele>
        <time>2021-08-08T09:07:28Z</time>
      </trkpt>
      <trkpt lat="47.17142" lon="5.90783">
        <ele>223.6</ele>
        <time>2021-08-08T09:07:37Z</time>
      </trkpt>
      <trkpt lat="47.17143" lon="5.90776">
        <ele>224.2</ele>
        <time>2021-08-08T09:07:42Z</time>
      </trkpt>
      <trkpt lat="47.17145" lon="5.90769">
        <ele>224.5</ele>
        <time>2021-08-08T09:07:47Z</time>
      </trkpt>
      <trkpt lat="47.17145" lon="5.90762">
        <ele>224.6</ele>
        <time>2021-08-08T09:07:52Z</time>
      </trkpt>
      <trkpt lat="47.17146" lon="5.90756">
        <ele>225</ele>
        <time>2021-08-08T09:08:00Z</time>
      </trkpt>
      <trkpt lat="47.17148" lon="5.9075">
        <ele>225.4</ele>
        <time>2021-08-08T09:08:06Z</time>
      </trkpt>
      <trkpt lat="47.1715" lon="5.90743">
        <ele>225.7</ele>
        <time>2021-08-08T09:08:11Z</time>
      </trkpt>
      <trkpt lat="47.17153" lon="5.90737">
        <ele>225.9</ele>
        <time>2021-08-08T09:08:15Z</time>
      </trkpt>
      <trkpt lat="47.17155" lon="5.90729">
        <ele>226.4</ele>
        <time>2021-08-08T09:08:19Z</time>
      </trkpt>
      <trkpt lat="47.17157" lon="5.90722">
        <ele>227</ele>
        <time>2021-08-08T09:08:23Z</time>
      </trkpt>
      <trkpt lat="47.17158" lon="5.90715">
        <ele>227.8</ele>
        <time>2021-08-08T09:08:29Z</time>
      </trkpt>
      <trkpt lat="47.17163" lon="5.90712">
        <ele>228.9</ele>
        <time>2021-08-08T09:08:36Z</time>
      </trkpt>
      <trkpt lat="47.17167" lon="5.90709">
        <ele>229.5</ele>
        <time>2021-08-08T09:08:42Z</time>
      </trkpt>
      <trkpt lat="47.17171" lon="5.90706">
        <ele>230</ele>
        <time>2021-08-08T09:08:48Z</time>
      </trkpt>
      <trkpt lat="47.17167" lon="5.90702">
        <ele>231.3</ele>
        <time>2021-08-08T09:09:04Z</time>
      </trkpt>
      <trkpt lat="47.17172" lon="5.90704">
        <ele>231</ele>
        <time>2021-08-08T09:09:22Z</time>
      </trkpt>
      <trkpt lat="47.17168" lon="5.90709">
        <ele>231.4</ele>
        <time>2021-08-08T09:09:41Z</time>
      </trkpt>
      <trkpt lat="47.17172" lon="5.90708">
        <ele>232.3</ele>
        <time>2021-08-08T09:09:48Z</time>
      </trkpt>
      <trkpt lat="47.17177" lon="5.90704">
        <ele>232.6</ele>
        <time>2021-08-08T09:09:56Z</time>
      </trkpt>
      <trkpt lat="47.17182" lon="5.907">
        <ele>232.6</ele>
        <time>2021-08-08T09:10:01Z</time>
      </trkpt>
      <trkpt lat="47.17184" lon="5.90693">
        <ele>232.5</ele>
        <time>2021-08-08T09:10:06Z</time>
      </trkpt>
      <trkpt lat="47.17183" lon="5.90687">
        <ele>232.3</ele>
        <time>2021-08-08T09:10:11Z</time>
      </trkpt>
      <trkpt lat="47.17181" lon="5.9068">
        <ele>231.5</ele>
        <time>2021-08-08T09:10:17Z</time>
      </trkpt>
      <trkpt lat="47.17183" lon="5.90674">
        <ele>231.2</ele>
        <time>2021-08-08T09:10:22Z</time>
      </trkpt>
      <trkpt lat="47.17186" lon="5.90668">
        <ele>231</ele>
        <time>2021-08-08T09:10:28Z</time>
      </trkpt>
      <trkpt lat="47.17189" lon="5.90663">
        <ele>230.9</ele>
        <time>2021-08-08T09:10:33Z</time>
      </trkpt>
      <trkpt lat="47.17191" lon="5.90656">
        <ele>231.3</ele>
        <time>2021-08-08T09:10:39Z</time>
      </trkpt>
      <trkpt lat="47.17195" lon="5.9065">
        <ele>231.8</ele>
        <time>2021-08-08T09:10:44Z</time>
      </trkpt>
      <trkpt lat="47.17198" lon="5.90644">
        <ele>233.2</ele>
        <time>2021-08-08T09:10:52Z</time>
      </trkpt>
      <trkpt lat="47.17202" lon="5.90639">
        <ele>234.1</ele>
        <time>2021-08-08T09:10:56Z</time>
      </trkpt>
      <trkpt lat="47.17207" lon="5.90636">
        <ele>234.7</ele>
        <time>2021-08-08T09:10:59Z</time>
      </trkpt>
      <trkpt lat="47.17211" lon="5.90632">
        <ele>234.8</ele>
        <time>2021-08-08T09:11:02Z</time>
      </trkpt>
      <trkpt lat="47.17215" lon="5.90628">
        <ele>234.9</ele>
        <time>2021-08-08T09:11:06Z</time>
      </trkpt>
      <trkpt lat="47.17219" lon="5.90625">
        <ele>235.3</ele>
        <time>2021-08-08T09:11:11Z</time>
      </trkpt>
      <trkpt lat="47.17224" lon="5.90624">
        <ele>236.2</ele>
        <time>2021-08-08T09:11:17Z</time>
      </trkpt>
      <trkpt lat="47.17229" lon="5.90621">
        <ele>237.1</ele>
        <time>2021-08-08T09:11:22Z</time>
      </trkpt>
      <trkpt lat="47.17232" lon="5.90615">
        <ele>237.9</ele>
        <time>2021-08-08T09:11:27Z</time>
      </trkpt>
      <trkpt lat="47.17233" lon="5.90608">
        <ele>238.9</ele>
        <time>2021-08-08T09:11:30Z</time>
      </trkpt>
      <trkpt lat="47.17233" lon="5.90601">
        <ele>240.7</ele>
        <time>2021-08-08T09:11:34Z</time>
      </trkpt>
      <trkpt lat="47.17235" lon="5.90594">
        <ele>242.7</ele>
        <time>2021-08-08T09:11:39Z</time>
      </trkpt>
      <trkpt lat="47.1724" lon="5.9059">
        <ele>244</ele>
        <time>2021-08-08T09:11:43Z</time>
      </trkpt>
      <trkpt lat="47.17243" lon="5.90585">
        <ele>244.6</ele>
        <time>2021-08-08T09:11:47Z</time>
      </trkpt>
      <trkpt lat="47.17247" lon="5.90581">
        <ele>245.1</ele>
        <time>2021-08-08T09:11:51Z</time>
      </trkpt>
      <trkpt lat="47.17252" lon="5.90576">
        <ele>246.1</ele>
        <time>2021-08-08T09:11:56Z</time>
      </trkpt>
      <trkpt lat="47.17255" lon="5.90572">
        <ele>246.7</ele>
        <time>2021-08-08T09:12:00Z</time>
      </trkpt>
      <trkpt lat="47.17258" lon="5.90566">
        <ele>247.5</ele>
        <time>2021-08-08T09:12:05Z</time>
      </trkpt>
      <trkpt lat="47.1726" lon="5.90559">
        <ele>248</ele>
        <time>2021-08-08T09:12:10Z</time>
      </trkpt>
      <trkpt lat="47.17258" lon="5.90553">
        <ele>248.1</ele>
        <time>2021-08-08T09:12:16Z</time>
      </trkpt>
      <trkpt lat="47.17255" lon="5.90546">
        <ele>247.9</ele>
        <time>2021-08-08T09:12:20Z</time>
      </trkpt>
      <trkpt lat="47.1725" lon="5.90543">
        <ele>247.8</ele>
        <time>2021-08-08T09:12:24Z</time>
      </trkpt>
      <trkpt lat="47.17248" lon="5.90535">
        <ele>247.9</ele>
        <time>2021-08-08T09:12:29Z</time>
      </trkpt>
      <trkpt lat="47.17247" lon="5.90528">
        <ele>247.7</ele>
        <time>2021-08-08T09:12:33Z</time>
      </trkpt>
      <trkpt lat="47.17246" lon="5.90522">
        <ele>247</ele>
        <time>2021-08-08T09:12:38Z</time>
      </trkpt>
      <trkpt lat="47.17241" lon="5.90518">
        <ele>246</ele>
        <time>2021-08-08T09:12:44Z</time>
      </trkpt>
      <trkpt lat="47.17238" lon="5.90513">
        <ele>245</ele>
        <time>2021-08-08T09:12:48Z</time>
      </trkpt>
      <trkpt lat="47.17238" lon="5.90505">
        <ele>244.5</ele>
        <time>2021-08-08T09:12:57Z</time>
      </trkpt>
      <trkpt lat="47.17239" lon="5.90499">
        <ele>244.7</ele>
        <time>2021-08-08T09:13:02Z</time>
      </trkpt>
      <trkpt lat="47.17238" lon="5.90492">
        <ele>246</ele>
        <time>2021-08-08T09:13:08Z</time>
      </trkpt>
      <trkpt lat="47.17233" lon="5.90494">
        <ele>245.4</ele>
        <time>2021-08-08T09:13:19Z</time>
      </trkpt>
      <trkpt lat="47.17229" lon="5.90497">
        <ele>245.2</ele>
        <time>2021-08-08T09:13:24Z</time>
      </trkpt>
      <trkpt lat="47.17224" lon="5.90501">
        <ele>244.8</ele>
        <time>2021-08-08T09:13:29Z</time>
      </trkpt>
      <trkpt lat="47.17222" lon="5.90507">
        <ele>243.2</ele>
        <time>2021-08-08T09:13:47Z</time>
      </trkpt>
      <trkpt lat="47.17219" lon="5.90514">
        <ele>243.1</ele>
        <time>2021-08-08T09:13:52Z</time>
      </trkpt>
      <trkpt lat="47.17217" lon="5.9052">
        <ele>243.2</ele>
        <time>2021-08-08T09:13:56Z</time>
      </trkpt>
      <trkpt lat="47.17213" lon="5.90526">
        <ele>244.1</ele>
        <time>2021-08-08T09:14:01Z</time>
      </trkpt>
      <trkpt lat="47.1721" lon="5.90532">
        <ele>244.7</ele>
        <time>2021-08-08T09:14:04Z</time>
      </trkpt>
      <trkpt lat="47.17206" lon="5.90537">
        <ele>245.3</ele>
        <time>2021-08-08T09:14:07Z</time>
      </trkpt>
      <trkpt lat="47.17203" lon="5.90542">
        <ele>246.1</ele>
        <time>2021-08-08T09:14:12Z</time>
      </trkpt>
      <trkpt lat="47.17199" lon="5.90547">
        <ele>246.9</ele>
        <time>2021-08-08T09:14:16Z</time>
      </trkpt>
      <trkpt lat="47.17197" lon="5.90554">
        <ele>247.8</ele>
        <time>2021-08-08T09:14:20Z</time>
      </trkpt>
      <trkpt lat="47.17195" lon="5.90561">
        <ele>248.9</ele>
        <time>2021-08-08T09:14:27Z</time>
      </trkpt>
      <trkpt lat="47.17194" lon="5.90567">
        <ele>251.3</ele>
        <time>2021-08-08T09:15:03Z</time>
      </trkpt>
      <trkpt lat="47.1719" lon="5.90571">
        <ele>251.3</ele>
        <time>2021-08-08T09:15:10Z</time>
      </trkpt>
      <trkpt lat="47.17187" lon="5.90577">
        <ele>251.2</ele>
        <time>2021-08-08T09:15:15Z</time>
      </trkpt>
      <trkpt lat="47.17184" lon="5.90583">
        <ele>251.1</ele>
        <time>2021-08-08T09:15:20Z</time>
      </trkpt>
      <trkpt lat="47.17182" lon="5.90589">
        <ele>250.9</ele>
        <time>2021-08-08T09:15:26Z</time>
      </trkpt>
      <trkpt lat="47.17179" lon="5.90595">
        <ele>250.6</ele>
        <time>2021-08-08T09:15:31Z</time>
      </trkpt>
      <trkpt lat="47.17176" lon="5.90601">
        <ele>250</ele>
        <time>2021-08-08T09:15:37Z</time>
      </trkpt>
      <trkpt lat="47.17173" lon="5.90608">
        <ele>249.3</ele>
        <time>2021-08-08T09:15:42Z</time>
      </trkpt>
      <trkpt lat="47.1717" lon="5.90613">
        <ele>248.8</ele>
        <time>2021-08-08T09:15:47Z</time>
      </trkpt>
      <trkpt lat="47.17167" lon="5.90618">
        <ele>248.3</ele>
        <time>2021-08-08T09:15:52Z</time>
      </trkpt>
      <trkpt lat="47.17164" lon="5.90625">
        <ele>248.1</ele>
        <time>2021-08-08T09:15:56Z</time>
      </trkpt>
      <trkpt lat="47.17163" lon="5.90631">
        <ele>247.7</ele>
        <time>2021-08-08T09:16:01Z</time>
      </trkpt>
      <trkpt lat="47.1716" lon="5.90638">
        <ele>247.3</ele>
        <time>2021-08-08T09:16:08Z</time>
      </trkpt>
      <trkpt lat="47.17158" lon="5.90644">
        <ele>247</ele>
        <time>2021-08-08T09:16:14Z</time>
      </trkpt>
      <trkpt lat="47.17156" lon="5.9065">
        <ele>246.8</ele>
        <time>2021-08-08T09:16:19Z</time>
      </trkpt>
      <trkpt lat="47.17155" lon="5.90658">
        <ele>246.7</ele>
        <time>2021-08-08T09:16:27Z</time>
      </trkpt>
      <trkpt lat="47.17153" lon="5.90665">
        <ele>246.7</ele>
        <time>2021-08-08T09:16:32Z</time>
      </trkpt>
      <trkpt lat="47.17149" lon="5.90671">
        <ele>246.6</ele>
        <time>2021-08-08T09:16:36Z</time>
      </trkpt>
      <trkpt lat="47.17146" lon="5.90677">
        <ele>246.4</ele>
        <time>2021-08-08T09:16:40Z</time>
      </trkpt>
      <trkpt lat="47.17142" lon="5.90682">
        <ele>246.2</ele>
        <time>2021-08-08T09:16:46Z</time>
      </trkpt>
      <trkpt lat="47.17138" lon="5.90685">
        <ele>246</ele>
        <time>2021-08-08T09:16:50Z</time>
      </trkpt>
      <trkpt lat="47.17133" lon="5.90688">
        <ele>245.7</ele>
        <time>2021-08-08T09:16:54Z</time>
      </trkpt>
      <trkpt lat="47.17128" lon="5.90692">
        <ele>245.6</ele>
        <time>2021-08-08T09:16:58Z</time>
      </trkpt>
      <trkpt lat="47.17124" lon="5.90698">
        <ele>245.6</ele>
        <time>2021-08-08T09:17:03Z</time>
      </trkpt>
      <trkpt lat="47.17121" lon="5.90703">
        <ele>245.8</ele>
        <time>2021-08-08T09:17:09Z</time>
      </trkpt>
      <trkpt lat="47.17117" lon="5.90708">
        <ele>245.9</ele>
        <time>2021-08-08T09:17:15Z</time>
      </trkpt>
      <trkpt lat="47.17113" lon="5.90712">
        <ele>245.7</ele>
        <time>2021-08-08T09:17:20Z</time>
      </trkpt>
      <trkpt lat="47.17109" lon="5.90715">
        <ele>246</ele>
        <time>2021-08-08T09:17:25Z</time>
      </trkpt>
      <trkpt lat="47.17106" lon="5.90721">
        <ele>246.9</ele>
        <time>2021-08-08T09:17:30Z</time>
      </trkpt>
      <trkpt lat="47.17102" lon="5.90726">
        <ele>248.4</ele>
        <time>2021-08-08T09:17:35Z</time>
      </trkpt>
      <trkpt lat="47.17098" lon="5.90729">
        <ele>250.3</ele>
        <time>2021-08-08T09:17:43Z</time>
      </trkpt>
      <trkpt lat="47.17094" lon="5.90735">
        <ele>251.2</ele>
        <time>2021-08-08T09:17:48Z</time>
      </trkpt>
      <trkpt lat="47.17091" lon="5.9074">
        <ele>251.7</ele>
        <time>2021-08-08T09:17:52Z</time>
      </trkpt>
      <trkpt lat="47.17087" lon="5.90746">
        <ele>251.7</ele>
        <time>2021-08-08T09:17:55Z</time>
      </trkpt>
      <trkpt lat="47.17083" lon="5.90752">
        <ele>251.5</ele>
        <time>2021-08-08T09:17:58Z</time>
      </trkpt>
      <trkpt lat="47.1708" lon="5.90757">
        <ele>251.3</ele>
        <time>2021-08-08T09:18:01Z</time>
      </trkpt>
      <trkpt lat="47.17075" lon="5.90762">
        <ele>251</ele>
        <time>2021-08-08T09:18:05Z</time>
      </trkpt>
      <trkpt lat="47.17071" lon="5.90767">
        <ele>250.3</ele>
        <time>2021-08-08T09:18:09Z</time>
      </trkpt>
      <trkpt lat="47.17067" lon="5.90771">
        <ele>249.8</ele>
        <time>2021-08-08T09:18:15Z</time>
      </trkpt>
      <trkpt lat="47.17064" lon="5.90776">
        <ele>250</ele>
        <time>2021-08-08T09:18:20Z</time>
      </trkpt>
      <trkpt lat="47.17062" lon="5.90783">
        <ele>249.7</ele>
        <time>2021-08-08T09:18:26Z</time>
      </trkpt>
      <trkpt lat="47.1706" lon="5.90789">
        <ele>249.4</ele>
        <time>2021-08-08T09:18:33Z</time>
      </trkpt>
      <trkpt lat="47.17055" lon="5.90794">
        <ele>249.6</ele>
        <time>2021-08-08T09:18:54Z</time>
      </trkpt>
      <trkpt lat="47.17052" lon="5.90799">
        <ele>250</ele>
        <time>2021-08-08T09:18:58Z</time>
      </trkpt>
      <trkpt lat="47.17051" lon="5.90806">
        <ele>250.6</ele>
        <time>2021-08-08T09:19:05Z</time>
      </trkpt>
      <trkpt lat="47.17045" lon="5.90808">
        <ele>254.1</ele>
        <time>2021-08-08T09:19:36Z</time>
      </trkpt>
      <trkpt lat="47.17043" lon="5.90814">
        <ele>254.5</ele>
        <time>2021-08-08T09:19:40Z</time>
      </trkpt>
      <trkpt lat="47.17039" lon="5.9082">
        <ele>254.9</ele>
        <time>2021-08-08T09:19:46Z</time>
      </trkpt>
      <trkpt lat="47.17038" lon="5.90827">
        <ele>256.4</ele>
        <time>2021-08-08T09:19:55Z</time>
      </trkpt>
      <trkpt lat="47.17033" lon="5.90828">
        <ele>257.9</ele>
        <time>2021-08-08T09:20:03Z</time>
      </trkpt>
      <trkpt lat="47.17029" lon="5.90831">
        <ele>259.3</ele>
        <time>2021-08-08T09:20:12Z</time>
      </trkpt>
      <trkpt lat="47.17026" lon="5.90836">
        <ele>260</ele>
        <time>2021-08-08T09:20:21Z</time>
      </trkpt>
      <trkpt lat="47.1702" lon="5.90841">
        <ele>260.4</ele>
        <time>2021-08-08T09:20:29Z</time>
      </trkpt>
      <trkpt lat="47.17016" lon="5.90845">
        <ele>260.5</ele>
        <time>2021-08-08T09:20:34Z</time>
      </trkpt>
      <trkpt lat="47.17012" lon="5.90847">
        <ele>262.4</ele>
        <time>2021-08-08T09:20:57Z</time>
      </trkpt>
      <trkpt lat="47.17007" lon="5.90848">
        <ele>262.5</ele>
        <time>2021-08-08T09:21:07Z</time>
      </trkpt>
      <trkpt lat="47.17002" lon="5.90848">
        <ele>262.6</ele>
        <time>2021-08-08T09:21:13Z</time>
      </trkpt>
      <trkpt lat="47.16998" lon="5.90852">
        <ele>263.3</ele>
        <time>2021-08-08T09:21:21Z</time>
      </trkpt>
      <trkpt lat="47.16994" lon="5.90855">
        <ele>264.8</ele>
        <time>2021-08-08T09:21:43Z</time>
      </trkpt>
      <trkpt lat="47.1699" lon="5.90852">
        <ele>265.4</ele>
        <time>2021-08-08T09:21:49Z</time>
      </trkpt>
      <trkpt lat="47.16984" lon="5.9085">
        <ele>266.3</ele>
        <time>2021-08-08T09:21:58Z</time>
      </trkpt>
      <trkpt lat="47.16979" lon="5.9085">
        <ele>266.8</ele>
        <time>2021-08-08T09:22:02Z</time>
      </trkpt>
      <trkpt lat="47.16974" lon="5.9085">
        <ele>267.5</ele>
        <time>2021-08-08T09:22:07Z</time>
      </trkpt>
      <trkpt lat="47.1697" lon="5.90848">
        <ele>268.8</ele>
        <time>2021-08-08T09:22:19Z</time>
      </trkpt>
      <trkpt lat="47.16964" lon="5.90847">
        <ele>268.6</ele>
        <time>2021-08-08T09:22:46Z</time>
      </trkpt>
      <trkpt lat="47.16959" lon="5.90847">
        <ele>268.6</ele>
        <time>2021-08-08T09:22:51Z</time>
      </trkpt>
      <trkpt lat="47.16954" lon="5.90846">
        <ele>270.1</ele>
        <time>2021-08-08T09:23:00Z</time>
      </trkpt>
      <trkpt lat="47.1695" lon="5.90841">
        <ele>274</ele>
        <time>2021-08-08T09:23:10Z</time>
      </trkpt>
      <trkpt lat="47.16948" lon="5.90835">
        <ele>276.6</ele>
        <time>2021-08-08T09:23:17Z</time>
      </trkpt>
      <trkpt lat="47.16943" lon="5.90832">
        <ele>279.7</ele>
        <time>2021-08-08T09:23:30Z</time>
      </trkpt>
      <trkpt lat="47.16938" lon="5.90829">
        <ele>280.5</ele>
        <time>2021-08-08T09:23:36Z</time>
      </trkpt>
      <trkpt lat="47.16933" lon="5.90828">
        <ele>281.2</ele>
        <time>2021-08-08T09:23:49Z</time>
      </trkpt>
      <trkpt lat="47.16929" lon="5.90824">
        <ele>281.2</ele>
        <time>2021-08-08T09:23:54Z</time>
      </trkpt>
      <trkpt lat="47.16923" lon="5.90822">
        <ele>282.1</ele>
        <time>2021-08-08T09:24:09Z</time>
      </trkpt>
      <trkpt lat="47.16919" lon="5.90821">
        <ele>283.7</ele>
        <time>2021-08-08T09:24:16Z</time>
      </trkpt>
      <trkpt lat="47.16915" lon="5.90817">
        <ele>288.6</ele>
        <time>2021-08-08T09:24:44Z</time>
      </trkpt>
      <trkpt lat="47.1691" lon="5.90817">
        <ele>289.2</ele>
        <time>2021-08-08T09:24:52Z</time>
      </trkpt>
      <trkpt lat="47.16905" lon="5.90815">
        <ele>289.3</ele>
        <time>2021-08-08T09:24:58Z</time>
      </trkpt>
      <trkpt lat="47.169" lon="5.90816">
        <ele>289.5</ele>
        <time>2021-08-08T09:25:07Z</time>
      </trkpt>
      <trkpt lat="47.16897" lon="5.90811">
        <ele>289.2</ele>
        <time>2021-08-08T09:25:15Z</time>
      </trkpt>
      <trkpt lat="47.16893" lon="5.90809">
        <ele>289.6</ele>
        <time>2021-08-08T09:25:19Z</time>
      </trkpt>
      <trkpt lat="47.16889" lon="5.90813">
        <ele>290.6</ele>
        <time>2021-08-08T09:25:24Z</time>
      </trkpt>
      <trkpt lat="47.16888" lon="5.90821">
        <ele>291.6</ele>
        <time>2021-08-08T09:25:34Z</time>
      </trkpt>
      <trkpt lat="47.16895" lon="5.9082">
        <ele>293.7</ele>
        <time>2021-08-08T09:26:01Z</time>
      </trkpt>
      <trkpt lat="47.169" lon="5.90821">
        <ele>295.5</ele>
        <time>2021-08-08T09:26:06Z</time>
      </trkpt>
      <trkpt lat="47.16895" lon="5.90821">
        <ele>297.8</ele>
        <time>2021-08-08T09:26:43Z</time>
      </trkpt>
      <trkpt lat="47.16895" lon="5.90814">
        <ele>297.5</ele>
        <time>2021-08-08T09:27:08Z</time>
      </trkpt>
      <trkpt lat="47.16899" lon="5.90819">
        <ele>298.3</ele>
        <time>2021-08-08T09:27:24Z</time>
      </trkpt>
      <trkpt lat="47.16903" lon="5.90818">
        <ele>299.4</ele>
        <time>2021-08-08T09:27:35Z</time>
      </trkpt>
      <trkpt lat="47.16899" lon="5.90813">
        <ele>299.3</ele>
        <time>2021-08-08T09:28:07Z</time>
      </trkpt>
      <trkpt lat="47.16895" lon="5.9081">
        <ele>299.1</ele>
        <time>2021-08-08T09:28:11Z</time>
      </trkpt>
      <trkpt lat="47.16893" lon="5.90804">
        <ele>298.9</ele>
        <time>2021-08-08T09:28:18Z</time>
      </trkpt>
      <trkpt lat="47.16893" lon="5.90796">
        <ele>298.2</ele>
        <time>2021-08-08T09:28:28Z</time>
      </trkpt>
      <trkpt lat="47.16889" lon="5.90792">
        <ele>297.8</ele>
        <time>2021-08-08T09:28:34Z</time>
      </trkpt>
      <trkpt lat="47.16884" lon="5.90788">
        <ele>297.6</ele>
        <time>2021-08-08T09:28:38Z</time>
      </trkpt>
      <trkpt lat="47.1688" lon="5.90785">
        <ele>297.2</ele>
        <time>2021-08-08T09:28:42Z</time>
      </trkpt>
      <trkpt lat="47.16875" lon="5.90781">
        <ele>296.7</ele>
        <time>2021-08-08T09:28:47Z</time>
      </trkpt>
      <trkpt lat="47.1687" lon="5.90777">
        <ele>296.5</ele>
        <time>2021-08-08T09:28:51Z</time>
      </trkpt>
      <trkpt lat="47.16866" lon="5.90773">
        <ele>296.2</ele>
        <time>2021-08-08T09:28:55Z</time>
      </trkpt>
      <trkpt lat="47.16861" lon="5.90771">
        <ele>296.1</ele>
        <time>2021-08-08T09:29:00Z</time>
      </trkpt>
      <trkpt lat="47.16857" lon="5.90766">
        <ele>296.3</ele>
        <time>2021-08-08T09:29:03Z</time>
      </trkpt>
      <trkpt lat="47.16853" lon="5.90761">
        <ele>296.2</ele>
        <time>2021-08-08T09:29:07Z</time>
      </trkpt>
      <trkpt lat="47.1685" lon="5.90757">
        <ele>296.5</ele>
        <time>2021-08-08T09:29:10Z</time>
      </trkpt>
      <trkpt lat="47.16845" lon="5.90752">
        <ele>296.5</ele>
        <time>2021-08-08T09:29:15Z</time>
      </trkpt>
      <trkpt lat="47.1684" lon="5.90748">
        <ele>296.5</ele>
        <time>2021-08-08T09:29:19Z</time>
      </trkpt>
      <trkpt lat="47.16835" lon="5.90743">
        <ele>296.7</ele>
        <time>2021-08-08T09:29:23Z</time>
      </trkpt>
      <trkpt lat="47.16831" lon="5.90738">
        <ele>296.9</ele>
        <time>2021-08-08T09:29:28Z</time>
      </trkpt>
      <trkpt lat="47.16826" lon="5.90734">
        <ele>297.2</ele>
        <time>2021-08-08T09:29:32Z</time>
      </trkpt>
      <trkpt lat="47.16822" lon="5.90732">
        <ele>297.2</ele>
        <time>2021-08-08T09:29:36Z</time>
      </trkpt>
      <trkpt lat="47.16817" lon="5.9073">
        <ele>297.4</ele>
        <time>2021-08-08T09:29:39Z</time>
      </trkpt>
      <trkpt lat="47.16813" lon="5.90728">
        <ele>297.7</ele>
        <time>2021-08-08T09:29:43Z</time>
      </trkpt>
      <trkpt lat="47.1681" lon="5.90723">
        <ele>298</ele>
        <time>2021-08-08T09:29:48Z</time>
      </trkpt>
      <trkpt lat="47.16806" lon="5.90719">
        <ele>298.3</ele>
        <time>2021-08-08T09:29:51Z</time>
      </trkpt>
      <trkpt lat="47.16801" lon="5.90716">
        <ele>298.5</ele>
        <time>2021-08-08T09:29:54Z</time>
      </trkpt>
      <trkpt lat="47.16796" lon="5.90715">
        <ele>298.7</ele>
        <time>2021-08-08T09:29:57Z</time>
      </trkpt>
      <trkpt lat="47.16791" lon="5.90712">
        <ele>298.8</ele>
        <time>2021-08-08T09:30:02Z</time>
      </trkpt>
      <trkpt lat="47.16786" lon="5.90711">
        <ele>299.1</ele>
        <time>2021-08-08T09:30:06Z</time>
      </trkpt>
      <trkpt lat="47.16781" lon="5.9071">
        <ele>299.6</ele>
        <time>2021-08-08T09:30:10Z</time>
      </trkpt>
      <trkpt lat="47.16776" lon="5.90707">
        <ele>300.2</ele>
        <time>2021-08-08T09:30:16Z</time>
      </trkpt>
      <trkpt lat="47.16771" lon="5.90703">
        <ele>300.9</ele>
        <time>2021-08-08T09:30:21Z</time>
      </trkpt>
      <trkpt lat="47.16767" lon="5.90699">
        <ele>301.4</ele>
        <time>2021-08-08T09:30:26Z</time>
      </trkpt>
      <trkpt lat="47.16765" lon="5.90693">
        <ele>301.1</ele>
        <time>2021-08-08T09:30:32Z</time>
      </trkpt>
      <trkpt lat="47.1676" lon="5.90689">
        <ele>300.4</ele>
        <time>2021-08-08T09:30:38Z</time>
      </trkpt>
      <trkpt lat="47.16756" lon="5.90687">
        <ele>300.5</ele>
        <time>2021-08-08T09:30:41Z</time>
      </trkpt>
      <trkpt lat="47.16752" lon="5.90684">
        <ele>300.6</ele>
        <time>2021-08-08T09:30:44Z</time>
      </trkpt>
      <trkpt lat="47.16747" lon="5.9068">
        <ele>301.1</ele>
        <time>2021-08-08T09:30:48Z</time>
      </trkpt>
      <trkpt lat="47.16744" lon="5.90675">
        <ele>301.6</ele>
        <time>2021-08-08T09:30:52Z</time>
      </trkpt>
      <trkpt lat="47.16741" lon="5.90669">
        <ele>302.1</ele>
        <time>2021-08-08T09:30:55Z</time>
      </trkpt>
      <trkpt lat="47.16738" lon="5.90664">
        <ele>302.4</ele>
        <time>2021-08-08T09:30:58Z</time>
      </trkpt>
      <trkpt lat="47.16734" lon="5.90658">
        <ele>302.4</ele>
        <time>2021-08-08T09:31:03Z</time>
      </trkpt>
      <trkpt lat="47.16729" lon="5.90657">
        <ele>302.3</ele>
        <time>2021-08-08T09:31:07Z</time>
      </trkpt>
      <trkpt lat="47.16724" lon="5.90656">
        <ele>302.4</ele>
        <time>2021-08-08T09:31:11Z</time>
      </trkpt>
      <trkpt lat="47.16719" lon="5.90656">
        <ele>303.1</ele>
        <time>2021-08-08T09:31:17Z</time>
      </trkpt>
      <trkpt lat="47.16714" lon="5.90655">
        <ele>303.3</ele>
        <time>2021-08-08T09:31:28Z</time>
      </trkpt>
      <trkpt lat="47.16709" lon="5.90653">
        <ele>302.9</ele>
        <time>2021-08-08T09:31:33Z</time>
      </trkpt>
      <trkpt lat="47.16705" lon="5.90652">
        <ele>302.3</ele>
        <time>2021-08-08T09:31:39Z</time>
      </trkpt>
      <trkpt lat="47.167" lon="5.90651">
        <ele>301.4</ele>
        <time>2021-08-08T09:31:46Z</time>
      </trkpt>
      <trkpt lat="47.16695" lon="5.90649">
        <ele>300.9</ele>
        <time>2021-08-08T09:31:51Z</time>
      </trkpt>
      <trkpt lat="47.16691" lon="5.90646">
        <ele>301.1</ele>
        <time>2021-08-08T09:31:56Z</time>
      </trkpt>
      <trkpt lat="47.16687" lon="5.90645">
        <ele>301.6</ele>
        <time>2021-08-08T09:32:03Z</time>
      </trkpt>
      <trkpt lat="47.16682" lon="5.90647">
        <ele>301.1</ele>
        <time>2021-08-08T09:32:10Z</time>
      </trkpt>
      <trkpt lat="47.16677" lon="5.90646">
        <ele>300.9</ele>
        <time>2021-08-08T09:32:15Z</time>
      </trkpt>
      <trkpt lat="47.16672" lon="5.90643">
        <ele>302.1</ele>
        <time>2021-08-08T09:32:20Z</time>
      </trkpt>
      <trkpt lat="47.16667" lon="5.90641">
        <ele>303.4</ele>
        <time>2021-08-08T09:32:25Z</time>
      </trkpt>
      <trkpt lat="47.16662" lon="5.9064">
        <ele>305</ele>
        <time>2021-08-08T09:32:30Z</time>
      </trkpt>
      <trkpt lat="47.16657" lon="5.9064">
        <ele>306.1</ele>
        <time>2021-08-08T09:32:35Z</time>
      </trkpt>
      <trkpt lat="47.16652" lon="5.90643">
        <ele>307.3</ele>
        <time>2021-08-08T09:32:39Z</time>
      </trkpt>
      <trkpt lat="47.16647" lon="5.90648">
        <ele>308.5</ele>
        <time>2021-08-08T09:32:43Z</time>
      </trkpt>
      <trkpt lat="47.16642" lon="5.90649">
        <ele>309.6</ele>
        <time>2021-08-08T09:32:47Z</time>
      </trkpt>
      <trkpt lat="47.16637" lon="5.90648">
        <ele>310.5</ele>
        <time>2021-08-08T09:32:51Z</time>
      </trkpt>
      <trkpt lat="47.16632" lon="5.90648">
        <ele>311.7</ele>
        <time>2021-08-08T09:32:55Z</time>
      </trkpt>
      <trkpt lat="47.16627" lon="5.90645">
        <ele>313.1</ele>
        <time>2021-08-08T09:32:59Z</time>
      </trkpt>
      <trkpt lat="47.16622" lon="5.90641">
        <ele>314.1</ele>
        <time>2021-08-08T09:33:03Z</time>
      </trkpt>
      <trkpt lat="47.16618" lon="5.90638">
        <ele>314.9</ele>
        <time>2021-08-08T09:33:07Z</time>
      </trkpt>
      <trkpt lat="47.16614" lon="5.90637">
        <ele>314.9</ele>
        <time>2021-08-08T09:33:12Z</time>
      </trkpt>
      <trkpt lat="47.16608" lon="5.9064">
        <ele>314.2</ele>
        <time>2021-08-08T09:33:17Z</time>
      </trkpt>
      <trkpt lat="47.16604" lon="5.9064">
        <ele>313.6</ele>
        <time>2021-08-08T09:33:21Z</time>
      </trkpt>
      <trkpt lat="47.16599" lon="5.90641">
        <ele>312.4</ele>
        <time>2021-08-08T09:33:26Z</time>
      </trkpt>
      <trkpt lat="47.16595" lon="5.90642">
        <ele>311.6</ele>
        <time>2021-08-08T09:33:30Z</time>
      </trkpt>
      <trkpt lat="47.1659" lon="5.90644">
        <ele>311.1</ele>
        <time>2021-08-08T09:33:34Z</time>
      </trkpt>
      <trkpt lat="47.16584" lon="5.9065">
        <ele>310.6</ele>
        <time>2021-08-08T09:33:38Z</time>
      </trkpt>
      <trkpt lat="47.1658" lon="5.90654">
        <ele>310.6</ele>
        <time>2021-08-08T09:33:42Z</time>
      </trkpt>
      <trkpt lat="47.16576" lon="5.90657">
        <ele>311</ele>
        <time>2021-08-08T09:33:48Z</time>
      </trkpt>
      <trkpt lat="47.1657" lon="5.90657">
        <ele>311.2</ele>
        <time>2021-08-08T09:33:53Z</time>
      </trkpt>
      <trkpt lat="47.16566" lon="5.90656">
        <ele>311.4</ele>
        <time>2021-08-08T09:33:56Z</time>
      </trkpt>
      <trkpt lat="47.16561" lon="5.90656">
        <ele>311.5</ele>
        <time>2021-08-08T09:34:00Z</time>
      </trkpt>
      <trkpt lat="47.16556" lon="5.90657">
        <ele>309.7</ele>
        <time>2021-08-08T09:34:06Z</time>
      </trkpt>
      <trkpt lat="47.16552" lon="5.9066">
        <ele>306.7</ele>
        <time>2021-08-08T09:34:12Z</time>
      </trkpt>
      <trkpt lat="47.16547" lon="5.90664">
        <ele>303.9</ele>
        <time>2021-08-08T09:34:17Z</time>
      </trkpt>
      <trkpt lat="47.16542" lon="5.90665">
        <ele>302.2</ele>
        <time>2021-08-08T09:34:22Z</time>
      </trkpt>
      <trkpt lat="47.16537" lon="5.90665">
        <ele>301.5</ele>
        <time>2021-08-08T09:34:26Z</time>
      </trkpt>
      <trkpt lat="47.16531" lon="5.90666">
        <ele>301.9</ele>
        <time>2021-08-08T09:34:30Z</time>
      </trkpt>
      <trkpt lat="47.16527" lon="5.90667">
        <ele>302.4</ele>
        <time>2021-08-08T09:34:33Z</time>
      </trkpt>
      <trkpt lat="47.16522" lon="5.90668">
        <ele>303.4</ele>
        <time>2021-08-08T09:34:39Z</time>
      </trkpt>
      <trkpt lat="47.16517" lon="5.90671">
        <ele>304.3</ele>
        <time>2021-08-08T09:34:44Z</time>
      </trkpt>
      <trkpt lat="47.16515" lon="5.90677">
        <ele>305.9</ele>
        <time>2021-08-08T09:34:48Z</time>
      </trkpt>
      <trkpt lat="47.16515" lon="5.90684">
        <ele>307.3</ele>
        <time>2021-08-08T09:34:52Z</time>
      </trkpt>
      <trkpt lat="47.16515" lon="5.90691">
        <ele>309.8</ele>
        <time>2021-08-08T09:34:58Z</time>
      </trkpt>
      <trkpt lat="47.16518" lon="5.90696">
        <ele>312</ele>
        <time>2021-08-08T09:35:04Z</time>
      </trkpt>
      <trkpt lat="47.16522" lon="5.90701">
        <ele>314.1</ele>
        <time>2021-08-08T09:35:11Z</time>
      </trkpt>
      <trkpt lat="47.16525" lon="5.90707">
        <ele>314.5</ele>
        <time>2021-08-08T09:35:17Z</time>
      </trkpt>
      <trkpt lat="47.16529" lon="5.90712">
        <ele>314.8</ele>
        <time>2021-08-08T09:35:22Z</time>
      </trkpt>
      <trkpt lat="47.16533" lon="5.90717">
        <ele>315.1</ele>
        <time>2021-08-08T09:35:26Z</time>
      </trkpt>
      <trkpt lat="47.16538" lon="5.90717">
        <ele>315.5</ele>
        <time>2021-08-08T09:35:30Z</time>
      </trkpt>
      <trkpt lat="47.16544" lon="5.90721">
        <ele>315.6</ele>
        <time>2021-08-08T09:35:34Z</time>
      </trkpt>
      <trkpt lat="47.16548" lon="5.90725">
        <ele>315.5</ele>
        <time>2021-08-08T09:35:38Z</time>
      </trkpt>
      <trkpt lat="47.1655" lon="5.90732">
        <ele>315.8</ele>
        <time>2021-08-08T09:35:43Z</time>
      </trkpt>
      <trkpt lat="47.16551" lon="5.90739">
        <ele>316.7</ele>
        <time>2021-08-08T09:35:48Z</time>
      </trkpt>
      <trkpt lat="47.16554" lon="5.90745">
        <ele>318.2</ele>
        <time>2021-08-08T09:35:53Z</time>
      </trkpt>
      <trkpt lat="47.16554" lon="5.90753">
        <ele>319.7</ele>
        <time>2021-08-08T09:35:59Z</time>
      </trkpt>
      <trkpt lat="47.16553" lon="5.9076">
        <ele>319.8</ele>
        <time>2021-08-08T09:36:04Z</time>
      </trkpt>
      <trkpt lat="47.16556" lon="5.90767">
        <ele>320</ele>
        <time>2021-08-08T09:36:10Z</time>
      </trkpt>
      <trkpt lat="47.16559" lon="5.90772">
        <ele>320.4</ele>
        <time>2021-08-08T09:36:14Z</time>
      </trkpt>
      <trkpt lat="47.16561" lon="5.90779">
        <ele>321</ele>
        <time>2021-08-08T09:36:19Z</time>
      </trkpt>
      <trkpt lat="47.16564" lon="5.90785">
        <ele>321.7</ele>
        <time>2021-08-08T09:36:24Z</time>
      </trkpt>
      <trkpt lat="47.16569" lon="5.90785">
        <ele>322.7</ele>
        <time>2021-08-08T09:36:29Z</time>
      </trkpt>
      <trkpt lat="47.16573" lon="5.90789">
        <ele>324.6</ele>
        <time>2021-08-08T09:36:36Z</time>
      </trkpt>
      <trkpt lat="47.16575" lon="5.90795">
        <ele>325.7</ele>
        <time>2021-08-08T09:36:43Z</time>
      </trkpt>
      <trkpt lat="47.16572" lon="5.908">
        <ele>325.8</ele>
        <time>2021-08-08T09:36:47Z</time>
      </trkpt>
      <trkpt lat="47.16567" lon="5.90802">
        <ele>326</ele>
        <time>2021-08-08T09:36:52Z</time>
      </trkpt>
      <trkpt lat="47.16564" lon="5.90806">
        <ele>326</ele>
        <time>2021-08-08T09:36:57Z</time>
      </trkpt>
      <trkpt lat="47.16561" lon="5.90812">
        <ele>326</ele>
        <time>2021-08-08T09:37:03Z</time>
      </trkpt>
      <trkpt lat="47.16556" lon="5.90815">
        <ele>326.2</ele>
        <time>2021-08-08T09:37:07Z</time>
      </trkpt>
      <trkpt lat="47.16553" lon="5.9082">
        <ele>326.7</ele>
        <time>2021-08-08T09:37:11Z</time>
      </trkpt>
      <trkpt lat="47.1655" lon="5.90826">
        <ele>328.6</ele>
        <time>2021-08-08T09:37:24Z</time>
      </trkpt>
      <trkpt lat="47.16547" lon="5.90833">
        <ele>329.6</ele>
        <time>2021-08-08T09:37:31Z</time>
      </trkpt>
      <trkpt lat="47.16544" lon="5.90839">
        <ele>330.6</ele>
        <time>2021-08-08T09:37:36Z</time>
      </trkpt>
      <trkpt lat="47.16541" lon="5.90845">
        <ele>331.4</ele>
        <time>2021-08-08T09:37:41Z</time>
      </trkpt>
      <trkpt lat="47.16538" lon="5.90851">
        <ele>331.9</ele>
        <time>2021-08-08T09:37:45Z</time>
      </trkpt>
      <trkpt lat="47.16539" lon="5.90858">
        <ele>332.1</ele>
        <time>2021-08-08T09:37:50Z</time>
      </trkpt>
      <trkpt lat="47.16542" lon="5.90863">
        <ele>332.3</ele>
        <time>2021-08-08T09:37:54Z</time>
      </trkpt>
      <trkpt lat="47.16545" lon="5.9087">
        <ele>332.7</ele>
        <time>2021-08-08T09:38:00Z</time>
      </trkpt>
      <trkpt lat="47.16545" lon="5.90878">
        <ele>333.3</ele>
        <time>2021-08-08T09:38:05Z</time>
      </trkpt>
      <trkpt lat="47.16546" lon="5.90884">
        <ele>333.9</ele>
        <time>2021-08-08T09:38:09Z</time>
      </trkpt>
      <trkpt lat="47.16548" lon="5.90891">
        <ele>334.3</ele>
        <time>2021-08-08T09:38:15Z</time>
      </trkpt>
      <trkpt lat="47.16545" lon="5.90896">
        <ele>334.7</ele>
        <time>2021-08-08T09:38:21Z</time>
      </trkpt>
      <trkpt lat="47.16542" lon="5.90902">
        <ele>335.3</ele>
        <time>2021-08-08T09:38:25Z</time>
      </trkpt>
      <trkpt lat="47.1654" lon="5.90908">
        <ele>336</ele>
        <time>2021-08-08T09:38:31Z</time>
      </trkpt>
      <trkpt lat="47.16541" lon="5.90916">
        <ele>337.1</ele>
        <time>2021-08-08T09:38:42Z</time>
      </trkpt>
      <trkpt lat="47.16542" lon="5.90922">
        <ele>337.5</ele>
        <time>2021-08-08T09:38:47Z</time>
      </trkpt>
      <trkpt lat="47.16541" lon="5.90929">
        <ele>336.9</ele>
        <time>2021-08-08T09:38:53Z</time>
      </trkpt>
      <trkpt lat="47.16539" lon="5.90936">
        <ele>336.8</ele>
        <time>2021-08-08T09:39:02Z</time>
      </trkpt>
      <trkpt lat="47.16535" lon="5.90941">
        <ele>337</ele>
        <time>2021-08-08T09:39:06Z</time>
      </trkpt>
      <trkpt lat="47.16531" lon="5.90945">
        <ele>337.8</ele>
        <time>2021-08-08T09:39:12Z</time>
      </trkpt>
      <trkpt lat="47.16527" lon="5.90949">
        <ele>337.8</ele>
        <time>2021-08-08T09:39:18Z</time>
      </trkpt>
      <trkpt lat="47.16524" lon="5.90954">
        <ele>337.3</ele>
        <time>2021-08-08T09:39:24Z</time>
      </trkpt>
      <trkpt lat="47.16519" lon="5.90958">
        <ele>336.6</ele>
        <time>2021-08-08T09:39:29Z</time>
      </trkpt>
      <trkpt lat="47.16516" lon="5.90962">
        <ele>336.6</ele>
        <time>2021-08-08T09:39:35Z</time>
      </trkpt>
      <trkpt lat="47.16513" lon="5.90968">
        <ele>337.3</ele>
        <time>2021-08-08T09:39:39Z</time>
      </trkpt>
      <trkpt lat="47.16517" lon="5.90974">
        <ele>338.2</ele>
        <time>2021-08-08T09:39:46Z</time>
      </trkpt>
      <trkpt lat="47.16521" lon="5.90976">
        <ele>339.3</ele>
        <time>2021-08-08T09:39:51Z</time>
      </trkpt>
      <trkpt lat="47.16526" lon="5.90977">
        <ele>340.5</ele>
        <time>2021-08-08T09:39:56Z</time>
      </trkpt>
      <trkpt lat="47.1653" lon="5.90981">
        <ele>342</ele>
        <time>2021-08-08T09:40:03Z</time>
      </trkpt>
      <trkpt lat="47.16535" lon="5.90984">
        <ele>343.5</ele>
        <time>2021-08-08T09:40:08Z</time>
      </trkpt>
      <trkpt lat="47.1654" lon="5.90986">
        <ele>344.3</ele>
        <time>2021-08-08T09:40:13Z</time>
      </trkpt>
      <trkpt lat="47.16544" lon="5.90988">
        <ele>344.5</ele>
        <time>2021-08-08T09:40:21Z</time>
      </trkpt>
      <trkpt lat="47.16548" lon="5.90993">
        <ele>344.5</ele>
        <time>2021-08-08T09:40:27Z</time>
      </trkpt>
      <trkpt lat="47.16552" lon="5.90997">
        <ele>345.2</ele>
        <time>2021-08-08T09:40:32Z</time>
      </trkpt>
      <trkpt lat="47.16557" lon="5.91">
        <ele>345.8</ele>
        <time>2021-08-08T09:40:37Z</time>
      </trkpt>
      <trkpt lat="47.16561" lon="5.91004">
        <ele>345.4</ele>
        <time>2021-08-08T09:40:43Z</time>
      </trkpt>
      <trkpt lat="47.16562" lon="5.91011">
        <ele>344.3</ele>
        <time>2021-08-08T09:40:51Z</time>
      </trkpt>
      <trkpt lat="47.16561" lon="5.91018">
        <ele>344.3</ele>
        <time>2021-08-08T09:40:58Z</time>
      </trkpt>
      <trkpt lat="47.16565" lon="5.91021">
        <ele>344.7</ele>
        <time>2021-08-08T09:41:02Z</time>
      </trkpt>
      <trkpt lat="47.16569" lon="5.91025">
        <ele>345.5</ele>
        <time>2021-08-08T09:41:07Z</time>
      </trkpt>
      <trkpt lat="47.16573" lon="5.91027">
        <ele>346.4</ele>
        <time>2021-08-08T09:41:11Z</time>
      </trkpt>
      <trkpt lat="47.16579" lon="5.91029">
        <ele>347.4</ele>
        <time>2021-08-08T09:41:15Z</time>
      </trkpt>
      <trkpt lat="47.16583" lon="5.91032">
        <ele>348.5</ele>
        <time>2021-08-08T09:41:19Z</time>
      </trkpt>
      <trkpt lat="47.16587" lon="5.91034">
        <ele>349.1</ele>
        <time>2021-08-08T09:41:22Z</time>
      </trkpt>
      <trkpt lat="47.16589" lon="5.91041">
        <ele>350.7</ele>
        <time>2021-08-08T09:41:32Z</time>
      </trkpt>
      <trkpt lat="47.16592" lon="5.91046">
        <ele>351.7</ele>
        <time>2021-08-08T09:41:39Z</time>
      </trkpt>
      <trkpt lat="47.16596" lon="5.91051">
        <ele>352.5</ele>
        <time>2021-08-08T09:41:47Z</time>
      </trkpt>
      <trkpt lat="47.16601" lon="5.91052">
        <ele>353.1</ele>
        <time>2021-08-08T09:41:53Z</time>
      </trkpt>
      <trkpt lat="47.16606" lon="5.91053">
        <ele>354.2</ele>
        <time>2021-08-08T09:41:57Z</time>
      </trkpt>
      <trkpt lat="47.1661" lon="5.91055">
        <ele>355.6</ele>
        <time>2021-08-08T09:42:02Z</time>
      </trkpt>
      <trkpt lat="47.16611" lon="5.91062">
        <ele>357.2</ele>
        <time>2021-08-08T09:42:08Z</time>
      </trkpt>
      <trkpt lat="47.16614" lon="5.91068">
        <ele>358.2</ele>
        <time>2021-08-08T09:42:15Z</time>
      </trkpt>
      <trkpt lat="47.16617" lon="5.91073">
        <ele>358.7</ele>
        <time>2021-08-08T09:42:22Z</time>
      </trkpt>
      <trkpt lat="47.16622" lon="5.91077">
        <ele>358.6</ele>
        <time>2021-08-08T09:42:29Z</time>
      </trkpt>
      <trkpt lat="47.16625" lon="5.91082">
        <ele>358.2</ele>
        <time>2021-08-08T09:42:35Z</time>
      </trkpt>
      <trkpt lat="47.16625" lon="5.91089">
        <ele>358.2</ele>
        <time>2021-08-08T09:42:40Z</time>
      </trkpt>
      <trkpt lat="47.16625" lon="5.91098">
        <ele>358.4</ele>
        <time>2021-08-08T09:42:45Z</time>
      </trkpt>
      <trkpt lat="47.16626" lon="5.91105">
        <ele>358.7</ele>
        <time>2021-08-08T09:42:50Z</time>
      </trkpt>
      <trkpt lat="47.16628" lon="5.91111">
        <ele>359.2</ele>
        <time>2021-08-08T09:42:56Z</time>
      </trkpt>
      <trkpt lat="47.16631" lon="5.91117">
        <ele>360.3</ele>
        <time>2021-08-08T09:43:02Z</time>
      </trkpt>
      <trkpt lat="47.16632" lon="5.91124">
        <ele>361.5</ele>
        <time>2021-08-08T09:43:08Z</time>
      </trkpt>
      <trkpt lat="47.16634" lon="5.91131">
        <ele>361.7</ele>
        <time>2021-08-08T09:43:15Z</time>
      </trkpt>
      <trkpt lat="47.16634" lon="5.91138">
        <ele>362.1</ele>
        <time>2021-08-08T09:43:19Z</time>
      </trkpt>
      <trkpt lat="47.16637" lon="5.91143">
        <ele>362.8</ele>
        <time>2021-08-08T09:43:25Z</time>
      </trkpt>
      <trkpt lat="47.16639" lon="5.9115">
        <ele>363.5</ele>
        <time>2021-08-08T09:43:31Z</time>
      </trkpt>
      <trkpt lat="47.16641" lon="5.91156">
        <ele>364.4</ele>
        <time>2021-08-08T09:43:38Z</time>
      </trkpt>
      <trkpt lat="47.16646" lon="5.91159">
        <ele>365.1</ele>
        <time>2021-08-08T09:43:44Z</time>
      </trkpt>
      <trkpt lat="47.16651" lon="5.91162">
        <ele>365.2</ele>
        <time>2021-08-08T09:43:49Z</time>
      </trkpt>
      <trkpt lat="47.16656" lon="5.91162">
        <ele>365.2</ele>
        <time>2021-08-08T09:43:52Z</time>
      </trkpt>
      <trkpt lat="47.16659" lon="5.91167">
        <ele>365.4</ele>
        <time>2021-08-08T09:43:57Z</time>
      </trkpt>
      <trkpt lat="47.1666" lon="5.91175">
        <ele>366.7</ele>
        <time>2021-08-08T09:44:04Z</time>
      </trkpt>
      <trkpt lat="47.16665" lon="5.91178">
        <ele>368</ele>
        <time>2021-08-08T09:44:09Z</time>
      </trkpt>
      <trkpt lat="47.16669" lon="5.91182">
        <ele>369.3</ele>
        <time>2021-08-08T09:44:14Z</time>
      </trkpt>
      <trkpt lat="47.16673" lon="5.91186">
        <ele>370.5</ele>
        <time>2021-08-08T09:44:20Z</time>
      </trkpt>
      <trkpt lat="47.16677" lon="5.9119">
        <ele>370.9</ele>
        <time>2021-08-08T09:44:25Z</time>
      </trkpt>
      <trkpt lat="47.16677" lon="5.91197">
        <ele>370.9</ele>
        <time>2021-08-08T09:44:31Z</time>
      </trkpt>
      <trkpt lat="47.16675" lon="5.91204">
        <ele>370.7</ele>
        <time>2021-08-08T09:44:36Z</time>
      </trkpt>
      <trkpt lat="47.16674" lon="5.91211">
        <ele>371</ele>
        <time>2021-08-08T09:44:43Z</time>
      </trkpt>
      <trkpt lat="47.16677" lon="5.91217">
        <ele>371</ele>
        <time>2021-08-08T09:44:48Z</time>
      </trkpt>
      <trkpt lat="47.16675" lon="5.91223">
        <ele>370.8</ele>
        <time>2021-08-08T09:44:54Z</time>
      </trkpt>
      <trkpt lat="47.16677" lon="5.9123">
        <ele>371.9</ele>
        <time>2021-08-08T09:45:00Z</time>
      </trkpt>
      <trkpt lat="47.16681" lon="5.91233">
        <ele>374</ele>
        <time>2021-08-08T09:45:06Z</time>
      </trkpt>
      <trkpt lat="47.16688" lon="5.91232">
        <ele>377.6</ele>
        <time>2021-08-08T09:45:24Z</time>
      </trkpt>
      <trkpt lat="47.16693" lon="5.91229">
        <ele>379</ele>
        <time>2021-08-08T09:45:28Z</time>
      </trkpt>
      <trkpt lat="47.16697" lon="5.91229">
        <ele>380.4</ele>
        <time>2021-08-08T09:45:36Z</time>
      </trkpt>
      <trkpt lat="47.16701" lon="5.91233">
        <ele>380.6</ele>
        <time>2021-08-08T09:45:42Z</time>
      </trkpt>
      <trkpt lat="47.16706" lon="5.91236">
        <ele>380.7</ele>
        <time>2021-08-08T09:45:46Z</time>
      </trkpt>
      <trkpt lat="47.1671" lon="5.91238">
        <ele>381.4</ele>
        <time>2021-08-08T09:45:53Z</time>
      </trkpt>
      <trkpt lat="47.16708" lon="5.91243">
        <ele>381.2</ele>
        <time>2021-08-08T09:46:03Z</time>
      </trkpt>
      <trkpt lat="47.16713" lon="5.9124">
        <ele>380.2</ele>
        <time>2021-08-08T09:46:29Z</time>
      </trkpt>
      <trkpt lat="47.16717" lon="5.91236">
        <ele>380</ele>
        <time>2021-08-08T09:46:34Z</time>
      </trkpt>
      <trkpt lat="47.1672" lon="5.91232">
        <ele>379.4</ele>
        <time>2021-08-08T09:46:38Z</time>
      </trkpt>
      <trkpt lat="47.16724" lon="5.91235">
        <ele>378</ele>
        <time>2021-08-08T09:48:18Z</time>
      </trkpt>
      <trkpt lat="47.1672" lon="5.91231">
        <ele>378.4</ele>
        <time>2021-08-08T09:49:31Z</time>
      </trkpt>
      <trkpt lat="47.16716" lon="5.91229">
        <ele>378.9</ele>
        <time>2021-08-08T09:49:36Z</time>
      </trkpt>
      <trkpt lat="47.16713" lon="5.91234">
        <ele>380.8</ele>
        <time>2021-08-08T09:49:46Z</time>
      </trkpt>
      <trkpt lat="47.16714" lon="5.91242">
        <ele>382.5</ele>
        <time>2021-08-08T09:49:59Z</time>
      </trkpt>
      <trkpt lat="47.16712" lon="5.91248">
        <ele>382.2</ele>
        <time>2021-08-08T09:50:09Z</time>
      </trkpt>
      <trkpt lat="47.16708" lon="5.91253">
        <ele>382.5</ele>
        <time>2021-08-08T09:50:15Z</time>
      </trkpt>
      <trkpt lat="47.16703" lon="5.91255">
        <ele>382.3</ele>
        <time>2021-08-08T09:50:22Z</time>
      </trkpt>
      <trkpt lat="47.16699" lon="5.91251">
        <ele>381.5</ele>
        <time>2021-08-08T09:50:27Z</time>
      </trkpt>
      <trkpt lat="47.16698" lon="5.91257">
        <ele>380.9</ele>
        <time>2021-08-08T09:50:31Z</time>
      </trkpt>
      <trkpt lat="47.167" lon="5.91251">
        <ele>379</ele>
        <time>2021-08-08T09:51:05Z</time>
      </trkpt>
      <trkpt lat="47.16697" lon="5.91245">
        <ele>379.3</ele>
        <time>2021-08-08T09:51:11Z</time>
      </trkpt>
      <trkpt lat="47.16694" lon="5.9124">
        <ele>378.9</ele>
        <time>2021-08-08T09:51:16Z</time>
      </trkpt>
      <trkpt lat="47.16691" lon="5.91234">
        <ele>377.8</ele>
        <time>2021-08-08T09:51:25Z</time>
      </trkpt>
      <trkpt lat="47.16693" lon="5.91242">
        <ele>378.2</ele>
        <time>2021-08-08T09:51:47Z</time>
      </trkpt>
      <trkpt lat="47.16688" lon="5.91247">
        <ele>379.3</ele>
        <time>2021-08-08T09:51:52Z</time>
      </trkpt>
      <trkpt lat="47.16683" lon="5.91247">
        <ele>379.6</ele>
        <time>2021-08-08T09:51:57Z</time>
      </trkpt>
      <trkpt lat="47.16681" lon="5.91241">
        <ele>378.4</ele>
        <time>2021-08-08T09:52:06Z</time>
      </trkpt>
      <trkpt lat="47.16679" lon="5.91236">
        <ele>376.2</ele>
        <time>2021-08-08T09:52:15Z</time>
      </trkpt>
      <trkpt lat="47.16684" lon="5.91236">
        <ele>374.8</ele>
        <time>2021-08-08T09:52:48Z</time>
      </trkpt>
      <trkpt lat="47.16689" lon="5.91238">
        <ele>375.6</ele>
        <time>2021-08-08T09:52:55Z</time>
      </trkpt>
      <trkpt lat="47.16694" lon="5.91238">
        <ele>376.9</ele>
        <time>2021-08-08T09:53:02Z</time>
      </trkpt>
      <trkpt lat="47.16688" lon="5.91236">
        <ele>380.2</ele>
        <time>2021-08-08T09:54:06Z</time>
      </trkpt>
      <trkpt lat="47.16692" lon="5.9124">
        <ele>377.9</ele>
        <time>2021-08-08T10:40:02Z</time>
      </trkpt>
      <trkpt lat="47.16697" lon="5.91239">
        <ele>376.9</ele>
        <time>2021-08-08T10:49:44Z</time>
      </trkpt>
      <trkpt lat="47.16695" lon="5.91246">
        <ele>376.5</ele>
        <time>2021-08-08T10:49:52Z</time>
      </trkpt>
      <trkpt lat="47.16693" lon="5.91252">
        <ele>377.3</ele>
        <time>2021-08-08T10:49:58Z</time>
      </trkpt>
      <trkpt lat="47.1669" lon="5.91258">
        <ele>377.7</ele>
        <time>2021-08-08T10:50:04Z</time>
      </trkpt>
      <trkpt lat="47.16687" lon="5.91264">
        <ele>377.9</ele>
        <time>2021-08-08T10:50:12Z</time>
      </trkpt>
      <trkpt lat="47.16686" lon="5.91271">
        <ele>378.3</ele>
        <time>2021-08-08T10:50:22Z</time>
      </trkpt>
      <trkpt lat="47.16684" lon="5.91277">
        <ele>378.6</ele>
        <time>2021-08-08T10:50:30Z</time>
      </trkpt>
      <trkpt lat="47.16681" lon="5.91283">
        <ele>378.6</ele>
        <time>2021-08-08T10:50:37Z</time>
      </trkpt>
      <trkpt lat="47.16678" lon="5.91287">
        <ele>378.3</ele>
        <time>2021-08-08T10:50:42Z</time>
      </trkpt>
      <trkpt lat="47.16674" lon="5.91293">
        <ele>377.6</ele>
        <time>2021-08-08T10:50:50Z</time>
      </trkpt>
      <trkpt lat="47.16671" lon="5.91298">
        <ele>377.5</ele>
        <time>2021-08-08T10:50:56Z</time>
      </trkpt>
      <trkpt lat="47.16667" lon="5.91303">
        <ele>377.6</ele>
        <time>2021-08-08T10:51:01Z</time>
      </trkpt>
      <trkpt lat="47.16663" lon="5.91307">
        <ele>377.5</ele>
        <time>2021-08-08T10:51:07Z</time>
      </trkpt>
      <trkpt lat="47.16658" lon="5.9131">
        <ele>377.1</ele>
        <time>2021-08-08T10:51:12Z</time>
      </trkpt>
      <trkpt lat="47.16654" lon="5.91313">
        <ele>376.6</ele>
        <time>2021-08-08T10:51:17Z</time>
      </trkpt>
      <trkpt lat="47.1665" lon="5.91316">
        <ele>376.1</ele>
        <time>2021-08-08T10:51:22Z</time>
      </trkpt>
      <trkpt lat="47.16645" lon="5.91317">
        <ele>375.5</ele>
        <time>2021-08-08T10:51:28Z</time>
      </trkpt>
      <trkpt lat="47.16641" lon="5.91321">
        <ele>375.3</ele>
        <time>2021-08-08T10:51:35Z</time>
      </trkpt>
      <trkpt lat="47.16636" lon="5.91322">
        <ele>374.7</ele>
        <time>2021-08-08T10:51:41Z</time>
      </trkpt>
      <trkpt lat="47.16632" lon="5.91326">
        <ele>374.6</ele>
        <time>2021-08-08T10:51:48Z</time>
      </trkpt>
      <trkpt lat="47.16628" lon="5.9133">
        <ele>374.8</ele>
        <time>2021-08-08T10:51:54Z</time>
      </trkpt>
      <trkpt lat="47.16627" lon="5.91337">
        <ele>375.5</ele>
        <time>2021-08-08T10:51:58Z</time>
      </trkpt>
      <trkpt lat="47.16626" lon="5.91345">
        <ele>376.6</ele>
        <time>2021-08-08T10:52:04Z</time>
      </trkpt>
      <trkpt lat="47.16625" lon="5.91352">
        <ele>377.2</ele>
        <time>2021-08-08T10:52:09Z</time>
      </trkpt>
      <trkpt lat="47.16622" lon="5.91357">
        <ele>377</ele>
        <time>2021-08-08T10:52:14Z</time>
      </trkpt>
      <trkpt lat="47.16619" lon="5.91364">
        <ele>376.8</ele>
        <time>2021-08-08T10:52:20Z</time>
      </trkpt>
      <trkpt lat="47.16617" lon="5.9137">
        <ele>376.6</ele>
        <time>2021-08-08T10:52:25Z</time>
      </trkpt>
      <trkpt lat="47.16612" lon="5.91371">
        <ele>376.5</ele>
        <time>2021-08-08T10:52:29Z</time>
      </trkpt>
      <trkpt lat="47.16607" lon="5.91372">
        <ele>376.5</ele>
        <time>2021-08-08T10:52:33Z</time>
      </trkpt>
      <trkpt lat="47.16602" lon="5.91374">
        <ele>376.8</ele>
        <time>2021-08-08T10:52:39Z</time>
      </trkpt>
      <trkpt lat="47.16598" lon="5.91375">
        <ele>377.1</ele>
        <time>2021-08-08T10:52:44Z</time>
      </trkpt>
      <trkpt lat="47.16593" lon="5.91378">
        <ele>377</ele>
        <time>2021-08-08T10:52:49Z</time>
      </trkpt>
      <trkpt lat="47.16589" lon="5.91382">
        <ele>376.8</ele>
        <time>2021-08-08T10:52:54Z</time>
      </trkpt>
      <trkpt lat="47.16585" lon="5.91387">
        <ele>377</ele>
        <time>2021-08-08T10:53:00Z</time>
      </trkpt>
      <trkpt lat="47.1658" lon="5.91389">
        <ele>377.4</ele>
        <time>2021-08-08T10:53:06Z</time>
      </trkpt>
      <trkpt lat="47.16575" lon="5.9139">
        <ele>377.9</ele>
        <time>2021-08-08T10:53:12Z</time>
      </trkpt>
      <trkpt lat="47.1657" lon="5.91393">
        <ele>378.6</ele>
        <time>2021-08-08T10:53:18Z</time>
      </trkpt>
      <trkpt lat="47.16566" lon="5.91397">
        <ele>379.2</ele>
        <time>2021-08-08T10:53:23Z</time>
      </trkpt>
      <trkpt lat="47.16562" lon="5.91401">
        <ele>380</ele>
        <time>2021-08-08T10:53:28Z</time>
      </trkpt>
      <trkpt lat="47.16557" lon="5.91406">
        <ele>380.9</ele>
        <time>2021-08-08T10:53:33Z</time>
      </trkpt>
      <trkpt lat="47.16554" lon="5.9141">
        <ele>381.6</ele>
        <time>2021-08-08T10:53:38Z</time>
      </trkpt>
      <trkpt lat="47.1655" lon="5.91415">
        <ele>381.8</ele>
        <time>2021-08-08T10:53:44Z</time>
      </trkpt>
      <trkpt lat="47.16546" lon="5.91421">
        <ele>382</ele>
        <time>2021-08-08T10:53:49Z</time>
      </trkpt>
      <trkpt lat="47.16543" lon="5.91426">
        <ele>382.3</ele>
        <time>2021-08-08T10:53:54Z</time>
      </trkpt>
      <trkpt lat="47.16539" lon="5.91432">
        <ele>382.9</ele>
        <time>2021-08-08T10:54:01Z</time>
      </trkpt>
      <trkpt lat="47.16536" lon="5.91438">
        <ele>383.6</ele>
        <time>2021-08-08T10:54:07Z</time>
      </trkpt>
      <trkpt lat="47.16532" lon="5.91443">
        <ele>384.1</ele>
        <time>2021-08-08T10:54:12Z</time>
      </trkpt>
      <trkpt lat="47.16528" lon="5.91448">
        <ele>384.6</ele>
        <time>2021-08-08T10:54:17Z</time>
      </trkpt>
      <trkpt lat="47.16525" lon="5.91453">
        <ele>385.2</ele>
        <time>2021-08-08T10:54:23Z</time>
      </trkpt>
      <trkpt lat="47.16525" lon="5.9146">
        <ele>385.8</ele>
        <time>2021-08-08T10:54:29Z</time>
      </trkpt>
      <trkpt lat="47.16523" lon="5.91467">
        <ele>385.9</ele>
        <time>2021-08-08T10:54:34Z</time>
      </trkpt>
      <trkpt lat="47.16521" lon="5.91474">
        <ele>386</ele>
        <time>2021-08-08T10:54:39Z</time>
      </trkpt>
      <trkpt lat="47.16521" lon="5.91481">
        <ele>385.8</ele>
        <time>2021-08-08T10:54:44Z</time>
      </trkpt>
      <trkpt lat="47.1652" lon="5.91488">
        <ele>385.6</ele>
        <time>2021-08-08T10:54:50Z</time>
      </trkpt>
      <trkpt lat="47.1652" lon="5.91495">
        <ele>384.8</ele>
        <time>2021-08-08T10:54:56Z</time>
      </trkpt>
      <trkpt lat="47.16521" lon="5.91502">
        <ele>383.8</ele>
        <time>2021-08-08T10:55:02Z</time>
      </trkpt>
      <trkpt lat="47.1652" lon="5.91508">
        <ele>383.7</ele>
        <time>2021-08-08T10:55:07Z</time>
      </trkpt>
      <trkpt lat="47.16519" lon="5.91515">
        <ele>383.6</ele>
        <time>2021-08-08T10:55:13Z</time>
      </trkpt>
      <trkpt lat="47.1652" lon="5.91523">
        <ele>384.1</ele>
        <time>2021-08-08T10:55:19Z</time>
      </trkpt>
      <trkpt lat="47.16522" lon="5.9153">
        <ele>384.4</ele>
        <time>2021-08-08T10:55:24Z</time>
      </trkpt>
      <trkpt lat="47.16522" lon="5.91537">
        <ele>384.3</ele>
        <time>2021-08-08T10:55:29Z</time>
      </trkpt>
      <trkpt lat="47.16521" lon="5.91544">
        <ele>384.1</ele>
        <time>2021-08-08T10:55:35Z</time>
      </trkpt>
      <trkpt lat="47.1652" lon="5.91551">
        <ele>383.8</ele>
        <time>2021-08-08T10:55:40Z</time>
      </trkpt>
      <trkpt lat="47.16519" lon="5.91558">
        <ele>383.3</ele>
        <time>2021-08-08T10:55:45Z</time>
      </trkpt>
      <trkpt lat="47.16516" lon="5.91565">
        <ele>382.7</ele>
        <time>2021-08-08T10:55:50Z</time>
      </trkpt>
      <trkpt lat="47.16514" lon="5.91572">
        <ele>382.8</ele>
        <time>2021-08-08T10:55:55Z</time>
      </trkpt>
      <trkpt lat="47.16512" lon="5.91578">
        <ele>382.8</ele>
        <time>2021-08-08T10:56:00Z</time>
      </trkpt>
      <trkpt lat="47.1651" lon="5.91584">
        <ele>382.2</ele>
        <time>2021-08-08T10:56:06Z</time>
      </trkpt>
      <trkpt lat="47.16509" lon="5.9159">
        <ele>381.3</ele>
        <time>2021-08-08T10:56:13Z</time>
      </trkpt>
      <trkpt lat="47.16507" lon="5.91598">
        <ele>380.7</ele>
        <time>2021-08-08T10:56:19Z</time>
      </trkpt>
      <trkpt lat="47.16505" lon="5.91604">
        <ele>380.5</ele>
        <time>2021-08-08T10:56:24Z</time>
      </trkpt>
      <trkpt lat="47.16503" lon="5.91611">
        <ele>380</ele>
        <time>2021-08-08T10:56:30Z</time>
      </trkpt>
      <trkpt lat="47.165" lon="5.91617">
        <ele>379.4</ele>
        <time>2021-08-08T10:56:36Z</time>
      </trkpt>
      <trkpt lat="47.16498" lon="5.91623">
        <ele>379.2</ele>
        <time>2021-08-08T10:56:41Z</time>
      </trkpt>
      <trkpt lat="47.16496" lon="5.91629">
        <ele>379.2</ele>
        <time>2021-08-08T10:56:45Z</time>
      </trkpt>
      <trkpt lat="47.16494" lon="5.91636">
        <ele>379.4</ele>
        <time>2021-08-08T10:56:49Z</time>
      </trkpt>
      <trkpt lat="47.16492" lon="5.91641">
        <ele>379.7</ele>
        <time>2021-08-08T10:56:53Z</time>
      </trkpt>
      <trkpt lat="47.1649" lon="5.91648">
        <ele>380.4</ele>
        <time>2021-08-08T10:56:59Z</time>
      </trkpt>
      <trkpt lat="47.16489" lon="5.91656">
        <ele>380.3</ele>
        <time>2021-08-08T10:57:06Z</time>
      </trkpt>
      <trkpt lat="47.16487" lon="5.91663">
        <ele>379.1</ele>
        <time>2021-08-08T10:57:12Z</time>
      </trkpt>
      <trkpt lat="47.16486" lon="5.9167">
        <ele>378.1</ele>
        <time>2021-08-08T10:57:18Z</time>
      </trkpt>
      <trkpt lat="47.16483" lon="5.91677">
        <ele>377.4</ele>
        <time>2021-08-08T10:57:23Z</time>
      </trkpt>
      <trkpt lat="47.16481" lon="5.91684">
        <ele>377</ele>
        <time>2021-08-08T10:57:28Z</time>
      </trkpt>
      <trkpt lat="47.16481" lon="5.91691">
        <ele>376.7</ele>
        <time>2021-08-08T10:57:34Z</time>
      </trkpt>
      <trkpt lat="47.1648" lon="5.91698">
        <ele>376.7</ele>
        <time>2021-08-08T10:57:39Z</time>
      </trkpt>
      <trkpt lat="47.16479" lon="5.91704">
        <ele>376.7</ele>
        <time>2021-08-08T10:57:44Z</time>
      </trkpt>
      <trkpt lat="47.16478" lon="5.91711">
        <ele>377.3</ele>
        <time>2021-08-08T10:57:50Z</time>
      </trkpt>
      <trkpt lat="47.16479" lon="5.91718">
        <ele>378.4</ele>
        <time>2021-08-08T10:57:57Z</time>
      </trkpt>
      <trkpt lat="47.16479" lon="5.91725">
        <ele>378.9</ele>
        <time>2021-08-08T10:58:04Z</time>
      </trkpt>
      <trkpt lat="47.16478" lon="5.91732">
        <ele>378.9</ele>
        <time>2021-08-08T10:58:09Z</time>
      </trkpt>
      <trkpt lat="47.16476" lon="5.91738">
        <ele>379</ele>
        <time>2021-08-08T10:58:13Z</time>
      </trkpt>
      <trkpt lat="47.16474" lon="5.91746">
        <ele>378.5</ele>
        <time>2021-08-08T10:58:18Z</time>
      </trkpt>
      <trkpt lat="47.1647" lon="5.9175">
        <ele>377.6</ele>
        <time>2021-08-08T10:58:22Z</time>
      </trkpt>
      <trkpt lat="47.16469" lon="5.91757">
        <ele>375.1</ele>
        <time>2021-08-08T10:58:28Z</time>
      </trkpt>
      <trkpt lat="47.16469" lon="5.91765">
        <ele>373.6</ele>
        <time>2021-08-08T10:58:33Z</time>
      </trkpt>
      <trkpt lat="47.16468" lon="5.91772">
        <ele>372.5</ele>
        <time>2021-08-08T10:58:38Z</time>
      </trkpt>
      <trkpt lat="47.16467" lon="5.91779">
        <ele>372</ele>
        <time>2021-08-08T10:58:43Z</time>
      </trkpt>
      <trkpt lat="47.16466" lon="5.91786">
        <ele>371.8</ele>
        <time>2021-08-08T10:58:47Z</time>
      </trkpt>
      <trkpt lat="47.16464" lon="5.91792">
        <ele>370.9</ele>
        <time>2021-08-08T10:58:52Z</time>
      </trkpt>
      <trkpt lat="47.16463" lon="5.918">
        <ele>369.2</ele>
        <time>2021-08-08T10:58:58Z</time>
      </trkpt>
      <trkpt lat="47.16463" lon="5.91807">
        <ele>367.8</ele>
        <time>2021-08-08T10:59:04Z</time>
      </trkpt>
      <trkpt lat="47.16463" lon="5.91814">
        <ele>366.2</ele>
        <time>2021-08-08T10:59:10Z</time>
      </trkpt>
      <trkpt lat="47.16461" lon="5.91822">
        <ele>364.9</ele>
        <time>2021-08-08T10:59:16Z</time>
      </trkpt>
      <trkpt lat="47.16459" lon="5.91828">
        <ele>363.7</ele>
        <time>2021-08-08T10:59:22Z</time>
      </trkpt>
      <trkpt lat="47.16461" lon="5.91835">
        <ele>362.6</ele>
        <time>2021-08-08T10:59:30Z</time>
      </trkpt>
      <trkpt lat="47.16464" lon="5.91842">
        <ele>362.6</ele>
        <time>2021-08-08T10:59:35Z</time>
      </trkpt>
      <trkpt lat="47.16464" lon="5.91849">
        <ele>362.6</ele>
        <time>2021-08-08T10:59:40Z</time>
      </trkpt>
      <trkpt lat="47.16465" lon="5.91856">
        <ele>362.6</ele>
        <time>2021-08-08T10:59:45Z</time>
      </trkpt>
      <trkpt lat="47.16464" lon="5.91863">
        <ele>362.7</ele>
        <time>2021-08-08T10:59:49Z</time>
      </trkpt>
      <trkpt lat="47.16462" lon="5.9187">
        <ele>362.8</ele>
        <time>2021-08-08T10:59:54Z</time>
      </trkpt>
      <trkpt lat="47.16462" lon="5.91877">
        <ele>363.1</ele>
        <time>2021-08-08T11:00:01Z</time>
      </trkpt>
      <trkpt lat="47.16462" lon="5.91884">
        <ele>362.8</ele>
        <time>2021-08-08T11:00:07Z</time>
      </trkpt>
      <trkpt lat="47.16461" lon="5.91891">
        <ele>362.5</ele>
        <time>2021-08-08T11:00:12Z</time>
      </trkpt>
      <trkpt lat="47.16463" lon="5.91897">
        <ele>362.2</ele>
        <time>2021-08-08T11:00:17Z</time>
      </trkpt>
      <trkpt lat="47.16465" lon="5.91904">
        <ele>361.3</ele>
        <time>2021-08-08T11:00:24Z</time>
      </trkpt>
      <trkpt lat="47.16466" lon="5.9191">
        <ele>360.4</ele>
        <time>2021-08-08T11:00:30Z</time>
      </trkpt>
      <trkpt lat="47.16466" lon="5.91918">
        <ele>359.5</ele>
        <time>2021-08-08T11:00:36Z</time>
      </trkpt>
      <trkpt lat="47.16466" lon="5.91925">
        <ele>358</ele>
        <time>2021-08-08T11:00:43Z</time>
      </trkpt>
      <trkpt lat="47.16468" lon="5.91932">
        <ele>356.7</ele>
        <time>2021-08-08T11:00:49Z</time>
      </trkpt>
      <trkpt lat="47.16468" lon="5.91939">
        <ele>355.5</ele>
        <time>2021-08-08T11:00:55Z</time>
      </trkpt>
      <trkpt lat="47.16471" lon="5.91945">
        <ele>354.5</ele>
        <time>2021-08-08T11:01:00Z</time>
      </trkpt>
      <trkpt lat="47.16473" lon="5.91951">
        <ele>354</ele>
        <time>2021-08-08T11:01:07Z</time>
      </trkpt>
      <trkpt lat="47.16475" lon="5.91958">
        <ele>354.3</ele>
        <time>2021-08-08T11:01:14Z</time>
      </trkpt>
      <trkpt lat="47.16476" lon="5.91965">
        <ele>354.9</ele>
        <time>2021-08-08T11:01:20Z</time>
      </trkpt>
      <trkpt lat="47.1648" lon="5.9197">
        <ele>355.7</ele>
        <time>2021-08-08T11:01:25Z</time>
      </trkpt>
      <trkpt lat="47.16478" lon="5.91963">
        <ele>355.7</ele>
        <time>2021-08-08T11:01:39Z</time>
      </trkpt>
      <trkpt lat="47.16474" lon="5.91958">
        <ele>355</ele>
        <time>2021-08-08T11:01:45Z</time>
      </trkpt>
      <trkpt lat="47.16474" lon="5.91951">
        <ele>354.6</ele>
        <time>2021-08-08T11:01:53Z</time>
      </trkpt>
      <trkpt lat="47.16473" lon="5.91944">
        <ele>354.2</ele>
        <time>2021-08-08T11:01:58Z</time>
      </trkpt>
      <trkpt lat="47.16472" lon="5.91937">
        <ele>353.6</ele>
        <time>2021-08-08T11:02:03Z</time>
      </trkpt>
      <trkpt lat="47.16471" lon="5.91929">
        <ele>352.6</ele>
        <time>2021-08-08T11:02:08Z</time>
      </trkpt>
      <trkpt lat="47.16472" lon="5.91921">
        <ele>351.2</ele>
        <time>2021-08-08T11:02:13Z</time>
      </trkpt>
      <trkpt lat="47.1647" lon="5.91914">
        <ele>349.3</ele>
        <time>2021-08-08T11:02:19Z</time>
      </trkpt>
      <trkpt lat="47.16469" lon="5.91907">
        <ele>347.1</ele>
        <time>2021-08-08T11:02:25Z</time>
      </trkpt>
      <trkpt lat="47.1647" lon="5.91899">
        <ele>346.4</ele>
        <time>2021-08-08T11:02:30Z</time>
      </trkpt>
      <trkpt lat="47.1647" lon="5.91892">
        <ele>346</ele>
        <time>2021-08-08T11:02:35Z</time>
      </trkpt>
      <trkpt lat="47.16471" lon="5.91885">
        <ele>345.9</ele>
        <time>2021-08-08T11:02:42Z</time>
      </trkpt>
      <trkpt lat="47.16471" lon="5.91878">
        <ele>346.1</ele>
        <time>2021-08-08T11:02:45Z</time>
      </trkpt>
      <trkpt lat="47.16471" lon="5.9187">
        <ele>346.2</ele>
        <time>2021-08-08T11:02:48Z</time>
      </trkpt>
      <trkpt lat="47.16472" lon="5.91864">
        <ele>346.8</ele>
        <time>2021-08-08T11:02:52Z</time>
      </trkpt>
      <trkpt lat="47.16475" lon="5.91857">
        <ele>347.4</ele>
        <time>2021-08-08T11:02:57Z</time>
      </trkpt>
      <trkpt lat="47.16478" lon="5.9185">
        <ele>349.6</ele>
        <time>2021-08-08T11:03:05Z</time>
      </trkpt>
      <trkpt lat="47.16481" lon="5.91844">
        <ele>351</ele>
        <time>2021-08-08T11:03:11Z</time>
      </trkpt>
      <trkpt lat="47.16484" lon="5.91839">
        <ele>352.4</ele>
        <time>2021-08-08T11:03:15Z</time>
      </trkpt>
      <trkpt lat="47.16486" lon="5.91833">
        <ele>353</ele>
        <time>2021-08-08T11:03:18Z</time>
      </trkpt>
      <trkpt lat="47.16489" lon="5.91826">
        <ele>353.9</ele>
        <time>2021-08-08T11:03:22Z</time>
      </trkpt>
      <trkpt lat="47.16492" lon="5.9182">
        <ele>354</ele>
        <time>2021-08-08T11:03:28Z</time>
      </trkpt>
      <trkpt lat="47.16494" lon="5.91814">
        <ele>353.1</ele>
        <time>2021-08-08T11:03:33Z</time>
      </trkpt>
      <trkpt lat="47.16498" lon="5.9181">
        <ele>352.5</ele>
        <time>2021-08-08T11:03:36Z</time>
      </trkpt>
      <trkpt lat="47.16503" lon="5.91806">
        <ele>351.9</ele>
        <time>2021-08-08T11:03:40Z</time>
      </trkpt>
      <trkpt lat="47.16507" lon="5.91803">
        <ele>351</ele>
        <time>2021-08-08T11:03:44Z</time>
      </trkpt>
      <trkpt lat="47.16511" lon="5.91798">
        <ele>349.7</ele>
        <time>2021-08-08T11:03:49Z</time>
      </trkpt>
      <trkpt lat="47.16516" lon="5.91795">
        <ele>348.7</ele>
        <time>2021-08-08T11:03:54Z</time>
      </trkpt>
      <trkpt lat="47.16519" lon="5.9179">
        <ele>346.9</ele>
        <time>2021-08-08T11:04:01Z</time>
      </trkpt>
      <trkpt lat="47.16522" lon="5.91784">
        <ele>345.7</ele>
        <time>2021-08-08T11:04:05Z</time>
      </trkpt>
      <trkpt lat="47.16523" lon="5.91777">
        <ele>344.4</ele>
        <time>2021-08-08T11:04:09Z</time>
      </trkpt>
      <trkpt lat="47.16525" lon="5.91771">
        <ele>343.1</ele>
        <time>2021-08-08T11:04:14Z</time>
      </trkpt>
      <trkpt lat="47.16526" lon="5.91764">
        <ele>341.5</ele>
        <time>2021-08-08T11:04:19Z</time>
      </trkpt>
      <trkpt lat="47.16529" lon="5.91757">
        <ele>339.7</ele>
        <time>2021-08-08T11:04:24Z</time>
      </trkpt>
      <trkpt lat="47.16533" lon="5.91752">
        <ele>337.9</ele>
        <time>2021-08-08T11:04:29Z</time>
      </trkpt>
      <trkpt lat="47.16536" lon="5.91745">
        <ele>336.2</ele>
        <time>2021-08-08T11:04:35Z</time>
      </trkpt>
      <trkpt lat="47.16536" lon="5.91738">
        <ele>335</ele>
        <time>2021-08-08T11:04:41Z</time>
      </trkpt>
      <trkpt lat="47.16537" lon="5.91731">
        <ele>333.4</ele>
        <time>2021-08-08T11:04:48Z</time>
      </trkpt>
      <trkpt lat="47.16539" lon="5.91725">
        <ele>332.2</ele>
        <time>2021-08-08T11:04:55Z</time>
      </trkpt>
      <trkpt lat="47.16543" lon="5.91721">
        <ele>332.2</ele>
        <time>2021-08-08T11:04:59Z</time>
      </trkpt>
      <trkpt lat="47.16546" lon="5.91715">
        <ele>332.6</ele>
        <time>2021-08-08T11:05:04Z</time>
      </trkpt>
      <trkpt lat="47.16549" lon="5.91709">
        <ele>333.4</ele>
        <time>2021-08-08T11:05:09Z</time>
      </trkpt>
      <trkpt lat="47.16551" lon="5.91702">
        <ele>334.3</ele>
        <time>2021-08-08T11:05:15Z</time>
      </trkpt>
      <trkpt lat="47.16555" lon="5.91697">
        <ele>335.2</ele>
        <time>2021-08-08T11:05:21Z</time>
      </trkpt>
      <trkpt lat="47.16559" lon="5.91698">
        <ele>335.4</ele>
        <time>2021-08-08T11:05:25Z</time>
      </trkpt>
      <trkpt lat="47.16563" lon="5.91702">
        <ele>335.5</ele>
        <time>2021-08-08T11:05:30Z</time>
      </trkpt>
      <trkpt lat="47.16563" lon="5.9171">
        <ele>334.3</ele>
        <time>2021-08-08T11:05:36Z</time>
      </trkpt>
      <trkpt lat="47.16561" lon="5.91716">
        <ele>333.3</ele>
        <time>2021-08-08T11:05:40Z</time>
      </trkpt>
      <trkpt lat="47.16558" lon="5.91722">
        <ele>332.3</ele>
        <time>2021-08-08T11:05:44Z</time>
      </trkpt>
      <trkpt lat="47.16555" lon="5.91728">
        <ele>331.1</ele>
        <time>2021-08-08T11:05:48Z</time>
      </trkpt>
      <trkpt lat="47.16555" lon="5.91735">
        <ele>329.1</ele>
        <time>2021-08-08T11:05:53Z</time>
      </trkpt>
      <trkpt lat="47.16554" lon="5.91742">
        <ele>326.6</ele>
        <time>2021-08-08T11:05:59Z</time>
      </trkpt>
      <trkpt lat="47.16555" lon="5.9175">
        <ele>325.6</ele>
        <time>2021-08-08T11:06:04Z</time>
      </trkpt>
      <trkpt lat="47.16555" lon="5.91757">
        <ele>325.3</ele>
        <time>2021-08-08T11:06:08Z</time>
      </trkpt>
      <trkpt lat="47.16556" lon="5.91765">
        <ele>325.3</ele>
        <time>2021-08-08T11:06:13Z</time>
      </trkpt>
      <trkpt lat="47.16554" lon="5.91771">
        <ele>325.3</ele>
        <time>2021-08-08T11:06:17Z</time>
      </trkpt>
      <trkpt lat="47.16552" lon="5.91778">
        <ele>324.8</ele>
        <time>2021-08-08T11:06:21Z</time>
      </trkpt>
      <trkpt lat="47.16549" lon="5.91785">
        <ele>323.6</ele>
        <time>2021-08-08T11:06:26Z</time>
      </trkpt>
      <trkpt lat="47.16547" lon="5.91792">
        <ele>322.2</ele>
        <time>2021-08-08T11:06:31Z</time>
      </trkpt>
      <trkpt lat="47.16545" lon="5.91799">
        <ele>320.9</ele>
        <time>2021-08-08T11:06:36Z</time>
      </trkpt>
      <trkpt lat="47.16543" lon="5.91805">
        <ele>319.9</ele>
        <time>2021-08-08T11:06:42Z</time>
      </trkpt>
      <trkpt lat="47.16539" lon="5.9181">
        <ele>319.3</ele>
        <time>2021-08-08T11:06:46Z</time>
      </trkpt>
      <trkpt lat="47.16536" lon="5.91816">
        <ele>318.5</ele>
        <time>2021-08-08T11:06:50Z</time>
      </trkpt>
      <trkpt lat="47.16534" lon="5.91822">
        <ele>317.8</ele>
        <time>2021-08-08T11:06:54Z</time>
      </trkpt>
      <trkpt lat="47.16533" lon="5.91829">
        <ele>317</ele>
        <time>2021-08-08T11:06:59Z</time>
      </trkpt>
      <trkpt lat="47.16532" lon="5.91836">
        <ele>316.6</ele>
        <time>2021-08-08T11:07:04Z</time>
      </trkpt>
      <trkpt lat="47.16533" lon="5.91844">
        <ele>316.6</ele>
        <time>2021-08-08T11:07:10Z</time>
      </trkpt>
      <trkpt lat="47.16529" lon="5.91847">
        <ele>316.5</ele>
        <time>2021-08-08T11:07:15Z</time>
      </trkpt>
      <trkpt lat="47.16528" lon="5.91854">
        <ele>315.5</ele>
        <time>2021-08-08T11:07:22Z</time>
      </trkpt>
      <trkpt lat="47.16527" lon="5.91861">
        <ele>314.4</ele>
        <time>2021-08-08T11:07:28Z</time>
      </trkpt>
      <trkpt lat="47.1653" lon="5.91868">
        <ele>313.7</ele>
        <time>2021-08-08T11:07:32Z</time>
      </trkpt>
      <trkpt lat="47.16531" lon="5.91874">
        <ele>313.4</ele>
        <time>2021-08-08T11:07:35Z</time>
      </trkpt>
      <trkpt lat="47.16533" lon="5.91881">
        <ele>313.3</ele>
        <time>2021-08-08T11:07:39Z</time>
      </trkpt>
      <trkpt lat="47.16534" lon="5.91888">
        <ele>313.7</ele>
        <time>2021-08-08T11:07:44Z</time>
      </trkpt>
      <trkpt lat="47.16533" lon="5.91895">
        <ele>313.8</ele>
        <time>2021-08-08T11:07:49Z</time>
      </trkpt>
      <trkpt lat="47.16532" lon="5.91901">
        <ele>313.8</ele>
        <time>2021-08-08T11:07:53Z</time>
      </trkpt>
      <trkpt lat="47.16531" lon="5.91908">
        <ele>314.1</ele>
        <time>2021-08-08T11:07:59Z</time>
      </trkpt>
      <trkpt lat="47.16532" lon="5.91915">
        <ele>313.8</ele>
        <time>2021-08-08T11:08:06Z</time>
      </trkpt>
      <trkpt lat="47.16531" lon="5.91922">
        <ele>313.8</ele>
        <time>2021-08-08T11:08:13Z</time>
      </trkpt>
      <trkpt lat="47.16531" lon="5.91929">
        <ele>313.8</ele>
        <time>2021-08-08T11:08:19Z</time>
      </trkpt>
      <trkpt lat="47.16531" lon="5.91937">
        <ele>314</ele>
        <time>2021-08-08T11:08:25Z</time>
      </trkpt>
      <trkpt lat="47.16531" lon="5.91944">
        <ele>313</ele>
        <time>2021-08-08T11:08:31Z</time>
      </trkpt>
      <trkpt lat="47.16531" lon="5.91952">
        <ele>312</ele>
        <time>2021-08-08T11:08:37Z</time>
      </trkpt>
      <trkpt lat="47.16533" lon="5.91959">
        <ele>311.5</ele>
        <time>2021-08-08T11:08:42Z</time>
      </trkpt>
      <trkpt lat="47.16534" lon="5.91966">
        <ele>311.1</ele>
        <time>2021-08-08T11:08:48Z</time>
      </trkpt>
      <trkpt lat="47.16537" lon="5.91972">
        <ele>310.2</ele>
        <time>2021-08-08T11:08:53Z</time>
      </trkpt>
      <trkpt lat="47.1654" lon="5.91979">
        <ele>310.4</ele>
        <time>2021-08-08T11:08:57Z</time>
      </trkpt>
      <trkpt lat="47.16541" lon="5.91986">
        <ele>310.7</ele>
        <time>2021-08-08T11:09:01Z</time>
      </trkpt>
      <trkpt lat="47.16542" lon="5.91993">
        <ele>310.8</ele>
        <time>2021-08-08T11:09:07Z</time>
      </trkpt>
      <trkpt lat="47.16542" lon="5.92">
        <ele>310.9</ele>
        <time>2021-08-08T11:09:12Z</time>
      </trkpt>
      <trkpt lat="47.16543" lon="5.92007">
        <ele>310.6</ele>
        <time>2021-08-08T11:09:17Z</time>
      </trkpt>
      <trkpt lat="47.16543" lon="5.92014">
        <ele>309.9</ele>
        <time>2021-08-08T11:09:22Z</time>
      </trkpt>
      <trkpt lat="47.16543" lon="5.92021">
        <ele>308.7</ele>
        <time>2021-08-08T11:09:28Z</time>
      </trkpt>
      <trkpt lat="47.16541" lon="5.92028">
        <ele>308.1</ele>
        <time>2021-08-08T11:09:33Z</time>
      </trkpt>
      <trkpt lat="47.16539" lon="5.92034">
        <ele>307.3</ele>
        <time>2021-08-08T11:09:38Z</time>
      </trkpt>
      <trkpt lat="47.1654" lon="5.92041">
        <ele>306</ele>
        <time>2021-08-08T11:09:45Z</time>
      </trkpt>
      <trkpt lat="47.16544" lon="5.92046">
        <ele>303.9</ele>
        <time>2021-08-08T11:09:52Z</time>
      </trkpt>
      <trkpt lat="47.16549" lon="5.92043">
        <ele>302.5</ele>
        <time>2021-08-08T11:10:02Z</time>
      </trkpt>
      <trkpt lat="47.1655" lon="5.92037">
        <ele>301.8</ele>
        <time>2021-08-08T11:10:08Z</time>
      </trkpt>
      <trkpt lat="47.16548" lon="5.92029">
        <ele>301.8</ele>
        <time>2021-08-08T11:10:13Z</time>
      </trkpt>
      <trkpt lat="47.1655" lon="5.92022">
        <ele>302</ele>
        <time>2021-08-08T11:10:19Z</time>
      </trkpt>
      <trkpt lat="47.16553" lon="5.92017">
        <ele>301.8</ele>
        <time>2021-08-08T11:10:23Z</time>
      </trkpt>
      <trkpt lat="47.16556" lon="5.92012">
        <ele>300.9</ele>
        <time>2021-08-08T11:10:30Z</time>
      </trkpt>
      <trkpt lat="47.16559" lon="5.92008">
        <ele>299.4</ele>
        <time>2021-08-08T11:10:38Z</time>
      </trkpt>
      <trkpt lat="47.16558" lon="5.92001">
        <ele>299.3</ele>
        <time>2021-08-08T11:10:43Z</time>
      </trkpt>
      <trkpt lat="47.16556" lon="5.91993">
        <ele>299.8</ele>
        <time>2021-08-08T11:10:48Z</time>
      </trkpt>
      <trkpt lat="47.16555" lon="5.91985">
        <ele>300.5</ele>
        <time>2021-08-08T11:10:53Z</time>
      </trkpt>
      <trkpt lat="47.16556" lon="5.91979">
        <ele>301.1</ele>
        <time>2021-08-08T11:10:58Z</time>
      </trkpt>
      <trkpt lat="47.16559" lon="5.91973">
        <ele>301.3</ele>
        <time>2021-08-08T11:11:05Z</time>
      </trkpt>
      <trkpt lat="47.16562" lon="5.91967">
        <ele>301</ele>
        <time>2021-08-08T11:11:12Z</time>
      </trkpt>
      <trkpt lat="47.16563" lon="5.91961">
        <ele>300.4</ele>
        <time>2021-08-08T11:11:17Z</time>
      </trkpt>
      <trkpt lat="47.16564" lon="5.91954">
        <ele>299.9</ele>
        <time>2021-08-08T11:11:22Z</time>
      </trkpt>
      <trkpt lat="47.16565" lon="5.91947">
        <ele>299.7</ele>
        <time>2021-08-08T11:11:26Z</time>
      </trkpt>
      <trkpt lat="47.16565" lon="5.9194">
        <ele>299.7</ele>
        <time>2021-08-08T11:11:30Z</time>
      </trkpt>
      <trkpt lat="47.16568" lon="5.91935">
        <ele>299.9</ele>
        <time>2021-08-08T11:11:34Z</time>
      </trkpt>
      <trkpt lat="47.1657" lon="5.91928">
        <ele>300.1</ele>
        <time>2021-08-08T11:11:40Z</time>
      </trkpt>
      <trkpt lat="47.16569" lon="5.9192">
        <ele>299.8</ele>
        <time>2021-08-08T11:11:46Z</time>
      </trkpt>
      <trkpt lat="47.1657" lon="5.91913">
        <ele>300</ele>
        <time>2021-08-08T11:11:51Z</time>
      </trkpt>
      <trkpt lat="47.16574" lon="5.9191">
        <ele>299.6</ele>
        <time>2021-08-08T11:11:59Z</time>
      </trkpt>
      <trkpt lat="47.16577" lon="5.91905">
        <ele>298.4</ele>
        <time>2021-08-08T11:12:04Z</time>
      </trkpt>
      <trkpt lat="47.1658" lon="5.91899">
        <ele>297.5</ele>
        <time>2021-08-08T11:12:09Z</time>
      </trkpt>
      <trkpt lat="47.16583" lon="5.91892">
        <ele>296.5</ele>
        <time>2021-08-08T11:12:14Z</time>
      </trkpt>
      <trkpt lat="47.16584" lon="5.91886">
        <ele>295.8</ele>
        <time>2021-08-08T11:12:18Z</time>
      </trkpt>
      <trkpt lat="47.16585" lon="5.91878">
        <ele>294.7</ele>
        <time>2021-08-08T11:12:23Z</time>
      </trkpt>
      <trkpt lat="47.16587" lon="5.91871">
        <ele>294.4</ele>
        <time>2021-08-08T11:12:27Z</time>
      </trkpt>
      <trkpt lat="47.16591" lon="5.91866">
        <ele>294</ele>
        <time>2021-08-08T11:12:31Z</time>
      </trkpt>
      <trkpt lat="47.16596" lon="5.91863">
        <ele>293.8</ele>
        <time>2021-08-08T11:12:36Z</time>
      </trkpt>
      <trkpt lat="47.166" lon="5.91864">
        <ele>293.8</ele>
        <time>2021-08-08T11:12:48Z</time>
      </trkpt>
      <trkpt lat="47.16605" lon="5.91861">
        <ele>294.4</ele>
        <time>2021-08-08T11:12:56Z</time>
      </trkpt>
      <trkpt lat="47.1661" lon="5.91858">
        <ele>295.5</ele>
        <time>2021-08-08T11:13:00Z</time>
      </trkpt>
      <trkpt lat="47.16615" lon="5.91858">
        <ele>296.6</ele>
        <time>2021-08-08T11:13:06Z</time>
      </trkpt>
      <trkpt lat="47.1662" lon="5.91858">
        <ele>297.1</ele>
        <time>2021-08-08T11:13:11Z</time>
      </trkpt>
      <trkpt lat="47.16625" lon="5.91854">
        <ele>297</ele>
        <time>2021-08-08T11:13:16Z</time>
      </trkpt>
      <trkpt lat="47.16628" lon="5.91849">
        <ele>297.1</ele>
        <time>2021-08-08T11:13:21Z</time>
      </trkpt>
      <trkpt lat="47.16631" lon="5.91845">
        <ele>297.6</ele>
        <time>2021-08-08T11:13:27Z</time>
      </trkpt>
      <trkpt lat="47.16636" lon="5.91842">
        <ele>298.4</ele>
        <time>2021-08-08T11:13:35Z</time>
      </trkpt>
      <trkpt lat="47.1664" lon="5.91844">
        <ele>298.7</ele>
        <time>2021-08-08T11:13:44Z</time>
      </trkpt>
      <trkpt lat="47.16645" lon="5.91846">
        <ele>298.4</ele>
        <time>2021-08-08T11:13:50Z</time>
      </trkpt>
      <trkpt lat="47.16649" lon="5.91849">
        <ele>297.4</ele>
        <time>2021-08-08T11:13:57Z</time>
      </trkpt>
      <trkpt lat="47.16652" lon="5.91855">
        <ele>296.5</ele>
        <time>2021-08-08T11:14:03Z</time>
      </trkpt>
      <trkpt lat="47.16657" lon="5.91858">
        <ele>294.5</ele>
        <time>2021-08-08T11:14:09Z</time>
      </trkpt>
      <trkpt lat="47.16661" lon="5.91862">
        <ele>291.5</ele>
        <time>2021-08-08T11:14:16Z</time>
      </trkpt>
      <trkpt lat="47.16666" lon="5.91865">
        <ele>290</ele>
        <time>2021-08-08T11:14:23Z</time>
      </trkpt>
      <trkpt lat="47.1667" lon="5.91869">
        <ele>289.8</ele>
        <time>2021-08-08T11:14:27Z</time>
      </trkpt>
      <trkpt lat="47.16671" lon="5.91876">
        <ele>289.2</ele>
        <time>2021-08-08T11:14:34Z</time>
      </trkpt>
      <trkpt lat="47.16665" lon="5.9188">
        <ele>288.6</ele>
        <time>2021-08-08T11:14:55Z</time>
      </trkpt>
      <trkpt lat="47.1666" lon="5.9188">
        <ele>288.4</ele>
        <time>2021-08-08T11:14:59Z</time>
      </trkpt>
      <trkpt lat="47.16661" lon="5.91874">
        <ele>287.5</ele>
        <time>2021-08-08T11:15:11Z</time>
      </trkpt>
      <trkpt lat="47.1666" lon="5.9188">
        <ele>280.6</ele>
        <time>2021-08-08T11:16:26Z</time>
      </trkpt>
      <trkpt lat="47.16662" lon="5.91886">
        <ele>278.3</ele>
        <time>2021-08-08T11:17:05Z</time>
      </trkpt>
      <trkpt lat="47.16658" lon="5.91891">
        <ele>278.4</ele>
        <time>2021-08-08T11:17:15Z</time>
      </trkpt>
      <trkpt lat="47.16654" lon="5.91893">
        <ele>279.3</ele>
        <time>2021-08-08T11:17:20Z</time>
      </trkpt>
      <trkpt lat="47.1665" lon="5.91898">
        <ele>280</ele>
        <time>2021-08-08T11:17:25Z</time>
      </trkpt>
      <trkpt lat="47.16647" lon="5.91902">
        <ele>280.5</ele>
        <time>2021-08-08T11:17:29Z</time>
      </trkpt>
      <trkpt lat="47.16644" lon="5.91908">
        <ele>281</ele>
        <time>2021-08-08T11:17:33Z</time>
      </trkpt>
      <trkpt lat="47.16641" lon="5.91915">
        <ele>281.6</ele>
        <time>2021-08-08T11:17:38Z</time>
      </trkpt>
      <trkpt lat="47.1664" lon="5.91922">
        <ele>282.4</ele>
        <time>2021-08-08T11:17:44Z</time>
      </trkpt>
      <trkpt lat="47.1664" lon="5.9193">
        <ele>283.1</ele>
        <time>2021-08-08T11:17:49Z</time>
      </trkpt>
      <trkpt lat="47.16639" lon="5.91937">
        <ele>283.5</ele>
        <time>2021-08-08T11:17:54Z</time>
      </trkpt>
      <trkpt lat="47.16638" lon="5.91943">
        <ele>283.5</ele>
        <time>2021-08-08T11:17:58Z</time>
      </trkpt>
      <trkpt lat="47.16636" lon="5.9195">
        <ele>283</ele>
        <time>2021-08-08T11:18:03Z</time>
      </trkpt>
      <trkpt lat="47.16636" lon="5.91957">
        <ele>281.9</ele>
        <time>2021-08-08T11:18:08Z</time>
      </trkpt>
      <trkpt lat="47.16636" lon="5.91965">
        <ele>280.6</ele>
        <time>2021-08-08T11:18:14Z</time>
      </trkpt>
      <trkpt lat="47.16637" lon="5.91972">
        <ele>279.6</ele>
        <time>2021-08-08T11:18:20Z</time>
      </trkpt>
      <trkpt lat="47.16637" lon="5.91979">
        <ele>279</ele>
        <time>2021-08-08T11:18:25Z</time>
      </trkpt>
      <trkpt lat="47.16636" lon="5.91986">
        <ele>278.6</ele>
        <time>2021-08-08T11:18:29Z</time>
      </trkpt>
      <trkpt lat="47.16636" lon="5.91992">
        <ele>278.6</ele>
        <time>2021-08-08T11:18:34Z</time>
      </trkpt>
      <trkpt lat="47.16633" lon="5.91998">
        <ele>278.6</ele>
        <time>2021-08-08T11:18:41Z</time>
      </trkpt>
      <trkpt lat="47.16632" lon="5.92005">
        <ele>278.7</ele>
        <time>2021-08-08T11:18:46Z</time>
      </trkpt>
      <trkpt lat="47.16632" lon="5.92011">
        <ele>275</ele>
        <time>2021-08-08T11:19:02Z</time>
      </trkpt>
      <trkpt lat="47.1663" lon="5.92018">
        <ele>273.9</ele>
        <time>2021-08-08T11:19:09Z</time>
      </trkpt>
      <trkpt lat="47.16629" lon="5.92024">
        <ele>273.4</ele>
        <time>2021-08-08T11:19:15Z</time>
      </trkpt>
      <trkpt lat="47.16628" lon="5.92031">
        <ele>273.2</ele>
        <time>2021-08-08T11:19:19Z</time>
      </trkpt>
      <trkpt lat="47.16626" lon="5.92038">
        <ele>272.9</ele>
        <time>2021-08-08T11:19:23Z</time>
      </trkpt>
      <trkpt lat="47.16624" lon="5.92044">
        <ele>272.4</ele>
        <time>2021-08-08T11:19:27Z</time>
      </trkpt>
      <trkpt lat="47.16621" lon="5.92051">
        <ele>271.8</ele>
        <time>2021-08-08T11:19:32Z</time>
      </trkpt>
      <trkpt lat="47.1662" lon="5.92058">
        <ele>271.4</ele>
        <time>2021-08-08T11:19:37Z</time>
      </trkpt>
      <trkpt lat="47.1662" lon="5.92064">
        <ele>271.2</ele>
        <time>2021-08-08T11:19:43Z</time>
      </trkpt>
      <trkpt lat="47.16618" lon="5.92071">
        <ele>270.7</ele>
        <time>2021-08-08T11:19:48Z</time>
      </trkpt>
      <trkpt lat="47.16616" lon="5.92078">
        <ele>269.8</ele>
        <time>2021-08-08T11:19:52Z</time>
      </trkpt>
      <trkpt lat="47.16615" lon="5.92085">
        <ele>268.8</ele>
        <time>2021-08-08T11:19:56Z</time>
      </trkpt>
      <trkpt lat="47.16616" lon="5.92093">
        <ele>267.2</ele>
        <time>2021-08-08T11:20:02Z</time>
      </trkpt>
      <trkpt lat="47.16614" lon="5.92099">
        <ele>264.7</ele>
        <time>2021-08-08T11:20:08Z</time>
      </trkpt>
      <trkpt lat="47.16613" lon="5.92106">
        <ele>262.9</ele>
        <time>2021-08-08T11:20:14Z</time>
      </trkpt>
      <trkpt lat="47.16615" lon="5.92112">
        <ele>262.3</ele>
        <time>2021-08-08T11:20:18Z</time>
      </trkpt>
      <trkpt lat="47.16617" lon="5.92118">
        <ele>261.9</ele>
        <time>2021-08-08T11:20:22Z</time>
      </trkpt>
      <trkpt lat="47.16618" lon="5.92126">
        <ele>262.1</ele>
        <time>2021-08-08T11:20:26Z</time>
      </trkpt>
      <trkpt lat="47.16618" lon="5.92133">
        <ele>262.2</ele>
        <time>2021-08-08T11:20:30Z</time>
      </trkpt>
      <trkpt lat="47.16618" lon="5.9214">
        <ele>261.5</ele>
        <time>2021-08-08T11:20:35Z</time>
      </trkpt>
      <trkpt lat="47.1662" lon="5.92147">
        <ele>260.8</ele>
        <time>2021-08-08T11:20:40Z</time>
      </trkpt>
      <trkpt lat="47.16623" lon="5.92153">
        <ele>258.9</ele>
        <time>2021-08-08T11:20:45Z</time>
      </trkpt>
      <trkpt lat="47.16623" lon="5.92159">
        <ele>257.4</ele>
        <time>2021-08-08T11:20:49Z</time>
      </trkpt>
      <trkpt lat="47.16622" lon="5.92166">
        <ele>256.5</ele>
        <time>2021-08-08T11:20:53Z</time>
      </trkpt>
      <trkpt lat="47.1662" lon="5.92173">
        <ele>256.2</ele>
        <time>2021-08-08T11:20:58Z</time>
      </trkpt>
      <trkpt lat="47.16617" lon="5.9218">
        <ele>256.1</ele>
        <time>2021-08-08T11:21:03Z</time>
      </trkpt>
      <trkpt lat="47.16614" lon="5.92185">
        <ele>256.3</ele>
        <time>2021-08-08T11:21:08Z</time>
      </trkpt>
      <trkpt lat="47.16614" lon="5.92192">
        <ele>257.2</ele>
        <time>2021-08-08T11:21:13Z</time>
      </trkpt>
      <trkpt lat="47.16617" lon="5.92198">
        <ele>257.6</ele>
        <time>2021-08-08T11:21:18Z</time>
      </trkpt>
      <trkpt lat="47.16621" lon="5.92204">
        <ele>257.3</ele>
        <time>2021-08-08T11:21:22Z</time>
      </trkpt>
      <trkpt lat="47.16623" lon="5.9221">
        <ele>257.3</ele>
        <time>2021-08-08T11:21:28Z</time>
      </trkpt>
      <trkpt lat="47.16624" lon="5.92217">
        <ele>256.9</ele>
        <time>2021-08-08T11:21:35Z</time>
      </trkpt>
      <trkpt lat="47.16627" lon="5.92223">
        <ele>256.4</ele>
        <time>2021-08-08T11:21:39Z</time>
      </trkpt>
      <trkpt lat="47.16631" lon="5.92229">
        <ele>256</ele>
        <time>2021-08-08T11:21:43Z</time>
      </trkpt>
      <trkpt lat="47.16635" lon="5.92234">
        <ele>255.7</ele>
        <time>2021-08-08T11:21:47Z</time>
      </trkpt>
      <trkpt lat="47.16638" lon="5.9224">
        <ele>255.3</ele>
        <time>2021-08-08T11:21:52Z</time>
      </trkpt>
      <trkpt lat="47.16639" lon="5.92247">
        <ele>254.7</ele>
        <time>2021-08-08T11:21:58Z</time>
      </trkpt>
      <trkpt lat="47.16639" lon="5.92254">
        <ele>254.3</ele>
        <time>2021-08-08T11:22:04Z</time>
      </trkpt>
      <trkpt lat="47.16638" lon="5.92261">
        <ele>253.8</ele>
        <time>2021-08-08T11:22:09Z</time>
      </trkpt>
      <trkpt lat="47.16637" lon="5.92267">
        <ele>253.5</ele>
        <time>2021-08-08T11:22:13Z</time>
      </trkpt>
      <trkpt lat="47.16637" lon="5.92275">
        <ele>252.8</ele>
        <time>2021-08-08T11:22:21Z</time>
      </trkpt>
      <trkpt lat="47.16638" lon="5.92282">
        <ele>252.3</ele>
        <time>2021-08-08T11:22:26Z</time>
      </trkpt>
      <trkpt lat="47.16638" lon="5.9229">
        <ele>251.9</ele>
        <time>2021-08-08T11:22:30Z</time>
      </trkpt>
      <trkpt lat="47.16638" lon="5.92296">
        <ele>251.7</ele>
        <time>2021-08-08T11:22:34Z</time>
      </trkpt>
      <trkpt lat="47.16639" lon="5.92304">
        <ele>251.7</ele>
        <time>2021-08-08T11:22:40Z</time>
      </trkpt>
      <trkpt lat="47.16638" lon="5.92311">
        <ele>251.5</ele>
        <time>2021-08-08T11:22:46Z</time>
      </trkpt>
      <trkpt lat="47.16636" lon="5.92317">
        <ele>251.8</ele>
        <time>2021-08-08T11:22:50Z</time>
      </trkpt>
      <trkpt lat="47.16635" lon="5.92325">
        <ele>252.4</ele>
        <time>2021-08-08T11:22:54Z</time>
      </trkpt>
      <trkpt lat="47.16635" lon="5.92331">
        <ele>253.2</ele>
        <time>2021-08-08T11:22:59Z</time>
      </trkpt>
      <trkpt lat="47.16634" lon="5.92339">
        <ele>253.6</ele>
        <time>2021-08-08T11:23:03Z</time>
      </trkpt>
      <trkpt lat="47.16633" lon="5.92348">
        <ele>254</ele>
        <time>2021-08-08T11:23:07Z</time>
      </trkpt>
      <trkpt lat="47.16632" lon="5.92355">
        <ele>254.4</ele>
        <time>2021-08-08T11:23:11Z</time>
      </trkpt>
      <trkpt lat="47.16632" lon="5.92362">
        <ele>255</ele>
        <time>2021-08-08T11:23:15Z</time>
      </trkpt>
      <trkpt lat="47.16634" lon="5.92369">
        <ele>255.8</ele>
        <time>2021-08-08T11:23:20Z</time>
      </trkpt>
      <trkpt lat="47.16636" lon="5.92375">
        <ele>257.4</ele>
        <time>2021-08-08T11:23:26Z</time>
      </trkpt>
      <trkpt lat="47.16639" lon="5.92381">
        <ele>259.5</ele>
        <time>2021-08-08T11:23:35Z</time>
      </trkpt>
      <trkpt lat="47.16638" lon="5.92387">
        <ele>259.4</ele>
        <time>2021-08-08T11:23:41Z</time>
      </trkpt>
      <trkpt lat="47.16639" lon="5.92394">
        <ele>259.8</ele>
        <time>2021-08-08T11:23:51Z</time>
      </trkpt>
      <trkpt lat="47.16639" lon="5.92401">
        <ele>260</ele>
        <time>2021-08-08T11:24:00Z</time>
      </trkpt>
      <trkpt lat="47.16643" lon="5.92406">
        <ele>259</ele>
        <time>2021-08-08T11:24:06Z</time>
      </trkpt>
      <trkpt lat="47.16645" lon="5.92413">
        <ele>257.7</ele>
        <time>2021-08-08T11:24:12Z</time>
      </trkpt>
      <trkpt lat="47.16648" lon="5.92419">
        <ele>257.1</ele>
        <time>2021-08-08T11:24:16Z</time>
      </trkpt>
      <trkpt lat="47.16649" lon="5.92426">
        <ele>256.6</ele>
        <time>2021-08-08T11:24:21Z</time>
      </trkpt>
      <trkpt lat="47.16649" lon="5.92433">
        <ele>256.7</ele>
        <time>2021-08-08T11:24:26Z</time>
      </trkpt>
      <trkpt lat="47.16648" lon="5.9244">
        <ele>257.4</ele>
        <time>2021-08-08T11:24:30Z</time>
      </trkpt>
      <trkpt lat="47.16646" lon="5.92447">
        <ele>258.9</ele>
        <time>2021-08-08T11:24:35Z</time>
      </trkpt>
      <trkpt lat="47.16643" lon="5.92453">
        <ele>260.1</ele>
        <time>2021-08-08T11:24:41Z</time>
      </trkpt>
      <trkpt lat="47.16639" lon="5.92458">
        <ele>260.7</ele>
        <time>2021-08-08T11:24:45Z</time>
      </trkpt>
      <trkpt lat="47.16635" lon="5.92463">
        <ele>261</ele>
        <time>2021-08-08T11:24:50Z</time>
      </trkpt>
      <trkpt lat="47.16632" lon="5.92469">
        <ele>261.6</ele>
        <time>2021-08-08T11:24:57Z</time>
      </trkpt>
      <trkpt lat="47.1663" lon="5.92477">
        <ele>262.6</ele>
        <time>2021-08-08T11:25:03Z</time>
      </trkpt>
      <trkpt lat="47.1663" lon="5.92483">
        <ele>263.2</ele>
        <time>2021-08-08T11:25:07Z</time>
      </trkpt>
      <trkpt lat="47.16626" lon="5.92488">
        <ele>262.9</ele>
        <time>2021-08-08T11:25:16Z</time>
      </trkpt>
      <trkpt lat="47.16621" lon="5.92488">
        <ele>262.3</ele>
        <time>2021-08-08T11:25:21Z</time>
      </trkpt>
      <trkpt lat="47.16615" lon="5.92489">
        <ele>262</ele>
        <time>2021-08-08T11:25:26Z</time>
      </trkpt>
      <trkpt lat="47.1661" lon="5.92489">
        <ele>261.6</ele>
        <time>2021-08-08T11:25:32Z</time>
      </trkpt>
      <trkpt lat="47.16607" lon="5.92483">
        <ele>259</ele>
        <time>2021-08-08T11:25:58Z</time>
      </trkpt>
      <trkpt lat="47.16602" lon="5.92484">
        <ele>259.3</ele>
        <time>2021-08-08T11:26:16Z</time>
      </trkpt>
      <trkpt lat="47.16597" lon="5.92485">
        <ele>259</ele>
        <time>2021-08-08T11:26:21Z</time>
      </trkpt>
      <trkpt lat="47.16593" lon="5.92487">
        <ele>260.1</ele>
        <time>2021-08-08T11:26:29Z</time>
      </trkpt>
      <trkpt lat="47.16588" lon="5.9249">
        <ele>260</ele>
        <time>2021-08-08T11:26:36Z</time>
      </trkpt>
      <trkpt lat="47.16583" lon="5.92491">
        <ele>260.1</ele>
        <time>2021-08-08T11:26:44Z</time>
      </trkpt>
      <trkpt lat="47.16579" lon="5.92495">
        <ele>259.9</ele>
        <time>2021-08-08T11:26:50Z</time>
      </trkpt>
      <trkpt lat="47.16578" lon="5.92502">
        <ele>259</ele>
        <time>2021-08-08T11:27:01Z</time>
      </trkpt>
      <trkpt lat="47.16578" lon="5.92509">
        <ele>258.7</ele>
        <time>2021-08-08T11:27:08Z</time>
      </trkpt>
      <trkpt lat="47.16576" lon="5.92515">
        <ele>257.6</ele>
        <time>2021-08-08T11:27:16Z</time>
      </trkpt>
      <trkpt lat="47.16576" lon="5.92523">
        <ele>256.5</ele>
        <time>2021-08-08T11:27:21Z</time>
      </trkpt>
      <trkpt lat="47.16575" lon="5.92529">
        <ele>255.3</ele>
        <time>2021-08-08T11:27:27Z</time>
      </trkpt>
      <trkpt lat="47.16577" lon="5.92536">
        <ele>254.5</ele>
        <time>2021-08-08T11:27:37Z</time>
      </trkpt>
      <trkpt lat="47.16579" lon="5.92542">
        <ele>254.9</ele>
        <time>2021-08-08T11:27:43Z</time>
      </trkpt>
      <trkpt lat="47.16581" lon="5.92549">
        <ele>256.2</ele>
        <time>2021-08-08T11:27:50Z</time>
      </trkpt>
      <trkpt lat="47.16584" lon="5.92555">
        <ele>256.3</ele>
        <time>2021-08-08T11:27:56Z</time>
      </trkpt>
      <trkpt lat="47.16587" lon="5.9256">
        <ele>256.3</ele>
        <time>2021-08-08T11:28:01Z</time>
      </trkpt>
      <trkpt lat="47.16591" lon="5.92564">
        <ele>255.9</ele>
        <time>2021-08-08T11:28:05Z</time>
      </trkpt>
      <trkpt lat="47.16595" lon="5.92569">
        <ele>255.1</ele>
        <time>2021-08-08T11:28:11Z</time>
      </trkpt>
      <trkpt lat="47.16597" lon="5.92575">
        <ele>254.3</ele>
        <time>2021-08-08T11:28:18Z</time>
      </trkpt>
      <trkpt lat="47.16599" lon="5.92581">
        <ele>253.2</ele>
        <time>2021-08-08T11:28:24Z</time>
      </trkpt>
      <trkpt lat="47.16599" lon="5.92588">
        <ele>252.6</ele>
        <time>2021-08-08T11:28:29Z</time>
      </trkpt>
      <trkpt lat="47.16599" lon="5.92595">
        <ele>252.1</ele>
        <time>2021-08-08T11:28:34Z</time>
      </trkpt>
      <trkpt lat="47.16601" lon="5.92602">
        <ele>250.9</ele>
        <time>2021-08-08T11:28:40Z</time>
      </trkpt>
      <trkpt lat="47.16601" lon="5.92609">
        <ele>250.1</ele>
        <time>2021-08-08T11:28:46Z</time>
      </trkpt>
      <trkpt lat="47.16605" lon="5.92614">
        <ele>248.7</ele>
        <time>2021-08-08T11:28:57Z</time>
      </trkpt>
      <trkpt lat="47.16608" lon="5.9262">
        <ele>247.7</ele>
        <time>2021-08-08T11:29:06Z</time>
      </trkpt>
      <trkpt lat="47.16608" lon="5.92627">
        <ele>246.1</ele>
        <time>2021-08-08T11:29:12Z</time>
      </trkpt>
      <trkpt lat="47.16611" lon="5.92633">
        <ele>244.7</ele>
        <time>2021-08-08T11:29:19Z</time>
      </trkpt>
      <trkpt lat="47.16614" lon="5.92639">
        <ele>244.5</ele>
        <time>2021-08-08T11:29:24Z</time>
      </trkpt>
      <trkpt lat="47.16618" lon="5.92633">
        <ele>243.1</ele>
        <time>2021-08-08T11:29:53Z</time>
      </trkpt>
      <trkpt lat="47.16614" lon="5.92638">
        <ele>241</ele>
        <time>2021-08-08T11:30:03Z</time>
      </trkpt>
      <trkpt lat="47.16615" lon="5.92645">
        <ele>239.2</ele>
        <time>2021-08-08T11:30:59Z</time>
      </trkpt>
      <trkpt lat="47.16613" lon="5.92652">
        <ele>238.4</ele>
        <time>2021-08-08T11:31:05Z</time>
      </trkpt>
      <trkpt lat="47.16616" lon="5.92656">
        <ele>238.1</ele>
        <time>2021-08-08T11:31:26Z</time>
      </trkpt>
      <trkpt lat="47.16612" lon="5.92659">
        <ele>238.5</ele>
        <time>2021-08-08T11:31:51Z</time>
      </trkpt>
      <trkpt lat="47.16609" lon="5.92665">
        <ele>239.2</ele>
        <time>2021-08-08T11:32:56Z</time>
      </trkpt>
      <trkpt lat="47.16605" lon="5.92669">
        <ele>239.1</ele>
        <time>2021-08-08T11:33:04Z</time>
      </trkpt>
      <trkpt lat="47.166" lon="5.92673">
        <ele>239.5</ele>
        <time>2021-08-08T11:33:10Z</time>
      </trkpt>
      <trkpt lat="47.16597" lon="5.92677">
        <ele>240</ele>
        <time>2021-08-08T11:33:15Z</time>
      </trkpt>
      <trkpt lat="47.16594" lon="5.92683">
        <ele>240.8</ele>
        <time>2021-08-08T11:33:20Z</time>
      </trkpt>
      <trkpt lat="47.16592" lon="5.92689">
        <ele>241.1</ele>
        <time>2021-08-08T11:33:27Z</time>
      </trkpt>
      <trkpt lat="47.16589" lon="5.92695">
        <ele>240.2</ele>
        <time>2021-08-08T11:33:32Z</time>
      </trkpt>
      <trkpt lat="47.16587" lon="5.92702">
        <ele>238.7</ele>
        <time>2021-08-08T11:33:38Z</time>
      </trkpt>
      <trkpt lat="47.16586" lon="5.92708">
        <ele>237.2</ele>
        <time>2021-08-08T11:33:42Z</time>
      </trkpt>
      <trkpt lat="47.16584" lon="5.92715">
        <ele>235.7</ele>
        <time>2021-08-08T11:33:47Z</time>
      </trkpt>
      <trkpt lat="47.16583" lon="5.92723">
        <ele>234.7</ele>
        <time>2021-08-08T11:33:53Z</time>
      </trkpt>
      <trkpt lat="47.16583" lon="5.9273">
        <ele>234.4</ele>
        <time>2021-08-08T11:33:59Z</time>
      </trkpt>
      <trkpt lat="47.16583" lon="5.92737">
        <ele>234.4</ele>
        <time>2021-08-08T11:34:06Z</time>
      </trkpt>
      <trkpt lat="47.16582" lon="5.92743">
        <ele>234.6</ele>
        <time>2021-08-08T11:34:13Z</time>
      </trkpt>
      <trkpt lat="47.16583" lon="5.9275">
        <ele>235.2</ele>
        <time>2021-08-08T11:34:19Z</time>
      </trkpt>
      <trkpt lat="47.16583" lon="5.92757">
        <ele>236.9</ele>
        <time>2021-08-08T11:34:26Z</time>
      </trkpt>
      <trkpt lat="47.16583" lon="5.92764">
        <ele>238.5</ele>
        <time>2021-08-08T11:34:33Z</time>
      </trkpt>
      <trkpt lat="47.16581" lon="5.92771">
        <ele>239.1</ele>
        <time>2021-08-08T11:34:38Z</time>
      </trkpt>
      <trkpt lat="47.1658" lon="5.92778">
        <ele>239.3</ele>
        <time>2021-08-08T11:34:44Z</time>
      </trkpt>
      <trkpt lat="47.16578" lon="5.92784">
        <ele>239.6</ele>
        <time>2021-08-08T11:34:51Z</time>
      </trkpt>
      <trkpt lat="47.16577" lon="5.92791">
        <ele>240.4</ele>
        <time>2021-08-08T11:34:56Z</time>
      </trkpt>
      <trkpt lat="47.16576" lon="5.92799">
        <ele>240.8</ele>
        <time>2021-08-08T11:35:03Z</time>
      </trkpt>
      <trkpt lat="47.16574" lon="5.92805">
        <ele>241.2</ele>
        <time>2021-08-08T11:35:08Z</time>
      </trkpt>
      <trkpt lat="47.16571" lon="5.9281">
        <ele>241.8</ele>
        <time>2021-08-08T11:35:13Z</time>
      </trkpt>
      <trkpt lat="47.16569" lon="5.92817">
        <ele>242.6</ele>
        <time>2021-08-08T11:35:19Z</time>
      </trkpt>
      <trkpt lat="47.16568" lon="5.92824">
        <ele>243.7</ele>
        <time>2021-08-08T11:35:25Z</time>
      </trkpt>
      <trkpt lat="47.16565" lon="5.92831">
        <ele>244.7</ele>
        <time>2021-08-08T11:35:31Z</time>
      </trkpt>
      <trkpt lat="47.16564" lon="5.92837">
        <ele>245.7</ele>
        <time>2021-08-08T11:35:36Z</time>
      </trkpt>
      <trkpt lat="47.16561" lon="5.92843">
        <ele>248.3</ele>
        <time>2021-08-08T11:35:45Z</time>
      </trkpt>
      <trkpt lat="47.16557" lon="5.92847">
        <ele>250.1</ele>
        <time>2021-08-08T11:35:52Z</time>
      </trkpt>
      <trkpt lat="47.16553" lon="5.9285">
        <ele>250.9</ele>
        <time>2021-08-08T11:35:57Z</time>
      </trkpt>
      <trkpt lat="47.16549" lon="5.92853">
        <ele>251.9</ele>
        <time>2021-08-08T11:36:04Z</time>
      </trkpt>
      <trkpt lat="47.16544" lon="5.92852">
        <ele>252.6</ele>
        <time>2021-08-08T11:36:10Z</time>
      </trkpt>
      <trkpt lat="47.16539" lon="5.92853">
        <ele>253.3</ele>
        <time>2021-08-08T11:36:18Z</time>
      </trkpt>
      <trkpt lat="47.16534" lon="5.92854">
        <ele>253.8</ele>
        <time>2021-08-08T11:36:24Z</time>
      </trkpt>
      <trkpt lat="47.16529" lon="5.92855">
        <ele>254.3</ele>
        <time>2021-08-08T11:36:29Z</time>
      </trkpt>
      <trkpt lat="47.16524" lon="5.92855">
        <ele>254.5</ele>
        <time>2021-08-08T11:36:33Z</time>
      </trkpt>
      <trkpt lat="47.16518" lon="5.92857">
        <ele>255.3</ele>
        <time>2021-08-08T11:36:38Z</time>
      </trkpt>
      <trkpt lat="47.16514" lon="5.92855">
        <ele>255.9</ele>
        <time>2021-08-08T11:36:49Z</time>
      </trkpt>
      <trkpt lat="47.1651" lon="5.92852">
        <ele>255.1</ele>
        <time>2021-08-08T11:36:59Z</time>
      </trkpt>
      <trkpt lat="47.16506" lon="5.92847">
        <ele>254.5</ele>
        <time>2021-08-08T11:37:04Z</time>
      </trkpt>
      <trkpt lat="47.16502" lon="5.92842">
        <ele>254.4</ele>
        <time>2021-08-08T11:37:07Z</time>
      </trkpt>
      <trkpt lat="47.16496" lon="5.9284">
        <ele>254.5</ele>
        <time>2021-08-08T11:37:11Z</time>
      </trkpt>
      <trkpt lat="47.16492" lon="5.92839">
        <ele>254.4</ele>
        <time>2021-08-08T11:37:15Z</time>
      </trkpt>
      <trkpt lat="47.16486" lon="5.92837">
        <ele>254.8</ele>
        <time>2021-08-08T11:37:18Z</time>
      </trkpt>
      <trkpt lat="47.16482" lon="5.92836">
        <ele>255.9</ele>
        <time>2021-08-08T11:37:23Z</time>
      </trkpt>
      <trkpt lat="47.16477" lon="5.92838">
        <ele>257.4</ele>
        <time>2021-08-08T11:37:29Z</time>
      </trkpt>
      <trkpt lat="47.16473" lon="5.92839">
        <ele>259.2</ele>
        <time>2021-08-08T11:37:36Z</time>
      </trkpt>
      <trkpt lat="47.16468" lon="5.92838">
        <ele>260.4</ele>
        <time>2021-08-08T11:37:40Z</time>
      </trkpt>
      <trkpt lat="47.16463" lon="5.92836">
        <ele>262</ele>
        <time>2021-08-08T11:37:45Z</time>
      </trkpt>
      <trkpt lat="47.16458" lon="5.92832">
        <ele>264.1</ele>
        <time>2021-08-08T11:37:52Z</time>
      </trkpt>
      <trkpt lat="47.16455" lon="5.92828">
        <ele>265.5</ele>
        <time>2021-08-08T11:37:59Z</time>
      </trkpt>
      <trkpt lat="47.16452" lon="5.92823">
        <ele>266.3</ele>
        <time>2021-08-08T11:38:05Z</time>
      </trkpt>
      <trkpt lat="47.16446" lon="5.92822">
        <ele>267.6</ele>
        <time>2021-08-08T11:38:09Z</time>
      </trkpt>
      <trkpt lat="47.16441" lon="5.92822">
        <ele>269.6</ele>
        <time>2021-08-08T11:38:13Z</time>
      </trkpt>
      <trkpt lat="47.16436" lon="5.92823">
        <ele>272.7</ele>
        <time>2021-08-08T11:38:24Z</time>
      </trkpt>
      <trkpt lat="47.16431" lon="5.9282">
        <ele>274.1</ele>
        <time>2021-08-08T11:38:29Z</time>
      </trkpt>
      <trkpt lat="47.16426" lon="5.92817">
        <ele>275.6</ele>
        <time>2021-08-08T11:38:34Z</time>
      </trkpt>
      <trkpt lat="47.16423" lon="5.92813">
        <ele>276.8</ele>
        <time>2021-08-08T11:38:38Z</time>
      </trkpt>
      <trkpt lat="47.16419" lon="5.92808">
        <ele>278.3</ele>
        <time>2021-08-08T11:38:46Z</time>
      </trkpt>
      <trkpt lat="47.16415" lon="5.92805">
        <ele>278.2</ele>
        <time>2021-08-08T11:38:51Z</time>
      </trkpt>
      <trkpt lat="47.16411" lon="5.92801">
        <ele>278.2</ele>
        <time>2021-08-08T11:38:58Z</time>
      </trkpt>
      <trkpt lat="47.16406" lon="5.92798">
        <ele>278.8</ele>
        <time>2021-08-08T11:39:03Z</time>
      </trkpt>
      <trkpt lat="47.16401" lon="5.92793">
        <ele>279.3</ele>
        <time>2021-08-08T11:39:06Z</time>
      </trkpt>
      <trkpt lat="47.16396" lon="5.9279">
        <ele>279.4</ele>
        <time>2021-08-08T11:39:09Z</time>
      </trkpt>
      <trkpt lat="47.16391" lon="5.92787">
        <ele>279.3</ele>
        <time>2021-08-08T11:39:13Z</time>
      </trkpt>
      <trkpt lat="47.16386" lon="5.92784">
        <ele>278.3</ele>
        <time>2021-08-08T11:39:18Z</time>
      </trkpt>
      <trkpt lat="47.16383" lon="5.92779">
        <ele>277</ele>
        <time>2021-08-08T11:39:26Z</time>
      </trkpt>
      <trkpt lat="47.16378" lon="5.92776">
        <ele>275.5</ele>
        <time>2021-08-08T11:39:43Z</time>
      </trkpt>
      <trkpt lat="47.16375" lon="5.92771">
        <ele>275.1</ele>
        <time>2021-08-08T11:39:50Z</time>
      </trkpt>
      <trkpt lat="47.16368" lon="5.92769">
        <ele>274.3</ele>
        <time>2021-08-08T11:40:02Z</time>
      </trkpt>
      <trkpt lat="47.16363" lon="5.92769">
        <ele>274.2</ele>
        <time>2021-08-08T11:40:05Z</time>
      </trkpt>
      <trkpt lat="47.16358" lon="5.92769">
        <ele>274.1</ele>
        <time>2021-08-08T11:40:09Z</time>
      </trkpt>
      <trkpt lat="47.16353" lon="5.92768">
        <ele>274.5</ele>
        <time>2021-08-08T11:40:12Z</time>
      </trkpt>
      <trkpt lat="47.16347" lon="5.92767">
        <ele>274.8</ele>
        <time>2021-08-08T11:40:15Z</time>
      </trkpt>
      <trkpt lat="47.16341" lon="5.92764">
        <ele>275.4</ele>
        <time>2021-08-08T11:40:18Z</time>
      </trkpt>
      <trkpt lat="47.16336" lon="5.92761">
        <ele>276</ele>
        <time>2021-08-08T11:40:21Z</time>
      </trkpt>
      <trkpt lat="47.16331" lon="5.92757">
        <ele>276.7</ele>
        <time>2021-08-08T11:40:24Z</time>
      </trkpt>
      <trkpt lat="47.16327" lon="5.92753">
        <ele>277.9</ele>
        <time>2021-08-08T11:40:29Z</time>
      </trkpt>
      <trkpt lat="47.16323" lon="5.9275">
        <ele>279</ele>
        <time>2021-08-08T11:40:34Z</time>
      </trkpt>
      <trkpt lat="47.16318" lon="5.92746">
        <ele>279.9</ele>
        <time>2021-08-08T11:40:41Z</time>
      </trkpt>
      <trkpt lat="47.16313" lon="5.92744">
        <ele>280.2</ele>
        <time>2021-08-08T11:40:47Z</time>
      </trkpt>
      <trkpt lat="47.16309" lon="5.92742">
        <ele>280.6</ele>
        <time>2021-08-08T11:40:53Z</time>
      </trkpt>
      <trkpt lat="47.16303" lon="5.92741">
        <ele>281.3</ele>
        <time>2021-08-08T11:40:58Z</time>
      </trkpt>
      <trkpt lat="47.16299" lon="5.92746">
        <ele>285</ele>
        <time>2021-08-08T11:41:07Z</time>
      </trkpt>
      <trkpt lat="47.16294" lon="5.92747">
        <ele>288.2</ele>
        <time>2021-08-08T11:41:16Z</time>
      </trkpt>
      <trkpt lat="47.1629" lon="5.92747">
        <ele>290.5</ele>
        <time>2021-08-08T11:41:24Z</time>
      </trkpt>
      <trkpt lat="47.16284" lon="5.9275">
        <ele>292.4</ele>
        <time>2021-08-08T11:41:31Z</time>
      </trkpt>
      <trkpt lat="47.1628" lon="5.92753">
        <ele>293.9</ele>
        <time>2021-08-08T11:41:35Z</time>
      </trkpt>
      <trkpt lat="47.16277" lon="5.92757">
        <ele>295.8</ele>
        <time>2021-08-08T11:41:41Z</time>
      </trkpt>
      <trkpt lat="47.16274" lon="5.92764">
        <ele>297.2</ele>
        <time>2021-08-08T11:41:48Z</time>
      </trkpt>
      <trkpt lat="47.16271" lon="5.92771">
        <ele>298.8</ele>
        <time>2021-08-08T11:41:55Z</time>
      </trkpt>
      <trkpt lat="47.16269" lon="5.92777">
        <ele>299.7</ele>
        <time>2021-08-08T11:42:00Z</time>
      </trkpt>
      <trkpt lat="47.16268" lon="5.92784">
        <ele>300.9</ele>
        <time>2021-08-08T11:42:05Z</time>
      </trkpt>
      <trkpt lat="47.16271" lon="5.92789">
        <ele>302</ele>
        <time>2021-08-08T11:42:13Z</time>
      </trkpt>
      <trkpt lat="47.16273" lon="5.92795">
        <ele>301.7</ele>
        <time>2021-08-08T11:42:20Z</time>
      </trkpt>
      <trkpt lat="47.16278" lon="5.92798">
        <ele>301.4</ele>
        <time>2021-08-08T11:42:32Z</time>
      </trkpt>
      <trkpt lat="47.16282" lon="5.92802">
        <ele>301.7</ele>
        <time>2021-08-08T11:42:37Z</time>
      </trkpt>
      <trkpt lat="47.16286" lon="5.92806">
        <ele>301.8</ele>
        <time>2021-08-08T11:42:41Z</time>
      </trkpt>
      <trkpt lat="47.16291" lon="5.92811">
        <ele>302.4</ele>
        <time>2021-08-08T11:42:45Z</time>
      </trkpt>
      <trkpt lat="47.16293" lon="5.92817">
        <ele>303.4</ele>
        <time>2021-08-08T11:42:49Z</time>
      </trkpt>
      <trkpt lat="47.16297" lon="5.92822">
        <ele>304.6</ele>
        <time>2021-08-08T11:42:56Z</time>
      </trkpt>
      <trkpt lat="47.16297" lon="5.92829">
        <ele>305.7</ele>
        <time>2021-08-08T11:43:04Z</time>
      </trkpt>
      <trkpt lat="47.163" lon="5.92836">
        <ele>306.9</ele>
        <time>2021-08-08T11:43:10Z</time>
      </trkpt>
      <trkpt lat="47.16304" lon="5.92841">
        <ele>307.7</ele>
        <time>2021-08-08T11:43:16Z</time>
      </trkpt>
      <trkpt lat="47.16306" lon="5.92848">
        <ele>307.2</ele>
        <time>2021-08-08T11:43:20Z</time>
      </trkpt>
      <trkpt lat="47.1631" lon="5.92852">
        <ele>305.6</ele>
        <time>2021-08-08T11:43:26Z</time>
      </trkpt>
      <trkpt lat="47.16311" lon="5.9286">
        <ele>305.4</ele>
        <time>2021-08-08T11:43:33Z</time>
      </trkpt>
      <trkpt lat="47.16309" lon="5.92866">
        <ele>305.7</ele>
        <time>2021-08-08T11:43:37Z</time>
      </trkpt>
      <trkpt lat="47.16306" lon="5.92872">
        <ele>306.3</ele>
        <time>2021-08-08T11:43:44Z</time>
      </trkpt>
      <trkpt lat="47.16301" lon="5.92875">
        <ele>306.6</ele>
        <time>2021-08-08T11:43:48Z</time>
      </trkpt>
      <trkpt lat="47.16297" lon="5.92877">
        <ele>307.3</ele>
        <time>2021-08-08T11:43:54Z</time>
      </trkpt>
      <trkpt lat="47.16297" lon="5.92883">
        <ele>312.7</ele>
        <time>2021-08-08T11:44:32Z</time>
      </trkpt>
      <trkpt lat="47.16291" lon="5.92881">
        <ele>316</ele>
        <time>2021-08-08T11:45:08Z</time>
      </trkpt>
      <trkpt lat="47.16296" lon="5.92883">
        <ele>315.5</ele>
        <time>2021-08-08T11:45:38Z</time>
      </trkpt>
      <trkpt lat="47.16291" lon="5.9288">
        <ele>311.7</ele>
        <time>2021-08-08T11:47:18Z</time>
      </trkpt>
      <trkpt lat="47.16294" lon="5.92886">
        <ele>311.7</ele>
        <time>2021-08-08T11:48:03Z</time>
      </trkpt>
      <trkpt lat="47.16289" lon="5.92889">
        <ele>318</ele>
        <time>2021-08-08T11:48:55Z</time>
      </trkpt>
      <trkpt lat="47.16284" lon="5.92893">
        <ele>316.7</ele>
        <time>2021-08-08T11:49:00Z</time>
      </trkpt>
      <trkpt lat="47.16279" lon="5.92893">
        <ele>314.6</ele>
        <time>2021-08-08T11:49:07Z</time>
      </trkpt>
      <trkpt lat="47.16275" lon="5.92895">
        <ele>313.1</ele>
        <time>2021-08-08T11:49:13Z</time>
      </trkpt>
      <trkpt lat="47.16272" lon="5.929">
        <ele>312.8</ele>
        <time>2021-08-08T11:49:16Z</time>
      </trkpt>
      <trkpt lat="47.16267" lon="5.92904">
        <ele>313</ele>
        <time>2021-08-08T11:49:21Z</time>
      </trkpt>
      <trkpt lat="47.16262" lon="5.92908">
        <ele>314.1</ele>
        <time>2021-08-08T11:49:26Z</time>
      </trkpt>
      <trkpt lat="47.16257" lon="5.9291">
        <ele>314.9</ele>
        <time>2021-08-08T11:49:32Z</time>
      </trkpt>
      <trkpt lat="47.16252" lon="5.92912">
        <ele>315.4</ele>
        <time>2021-08-08T11:49:39Z</time>
      </trkpt>
      <trkpt lat="47.16249" lon="5.92915">
        <ele>316.1</ele>
        <time>2021-08-08T11:49:45Z</time>
      </trkpt>
      <trkpt lat="47.16244" lon="5.92919">
        <ele>317.2</ele>
        <time>2021-08-08T11:49:49Z</time>
      </trkpt>
      <trkpt lat="47.16239" lon="5.92921">
        <ele>319.5</ele>
        <time>2021-08-08T11:49:55Z</time>
      </trkpt>
      <trkpt lat="47.16235" lon="5.92922">
        <ele>320.6</ele>
        <time>2021-08-08T11:50:01Z</time>
      </trkpt>
      <trkpt lat="47.1623" lon="5.92925">
        <ele>320.3</ele>
        <time>2021-08-08T11:50:07Z</time>
      </trkpt>
      <trkpt lat="47.16226" lon="5.92929">
        <ele>320.3</ele>
        <time>2021-08-08T11:50:13Z</time>
      </trkpt>
      <trkpt lat="47.16221" lon="5.92931">
        <ele>319.6</ele>
        <time>2021-08-08T11:50:18Z</time>
      </trkpt>
      <trkpt lat="47.16217" lon="5.92931">
        <ele>318.4</ele>
        <time>2021-08-08T11:50:24Z</time>
      </trkpt>
      <trkpt lat="47.16213" lon="5.92936">
        <ele>317.8</ele>
        <time>2021-08-08T11:50:33Z</time>
      </trkpt>
      <trkpt lat="47.16211" lon="5.92942">
        <ele>318.6</ele>
        <time>2021-08-08T11:50:37Z</time>
      </trkpt>
      <trkpt lat="47.16208" lon="5.92948">
        <ele>320.5</ele>
        <time>2021-08-08T11:50:42Z</time>
      </trkpt>
      <trkpt lat="47.16205" lon="5.92953">
        <ele>322.2</ele>
        <time>2021-08-08T11:50:46Z</time>
      </trkpt>
      <trkpt lat="47.16201" lon="5.92958">
        <ele>324.4</ele>
        <time>2021-08-08T11:50:51Z</time>
      </trkpt>
      <trkpt lat="47.16197" lon="5.92962">
        <ele>326.1</ele>
        <time>2021-08-08T11:50:57Z</time>
      </trkpt>
      <trkpt lat="47.16193" lon="5.92963">
        <ele>326.9</ele>
        <time>2021-08-08T11:51:06Z</time>
      </trkpt>
      <trkpt lat="47.16194" lon="5.9297">
        <ele>326.7</ele>
        <time>2021-08-08T11:51:25Z</time>
      </trkpt>
      <trkpt lat="47.16195" lon="5.92977">
        <ele>326.5</ele>
        <time>2021-08-08T11:51:28Z</time>
      </trkpt>
      <trkpt lat="47.16198" lon="5.92983">
        <ele>325.3</ele>
        <time>2021-08-08T11:51:33Z</time>
      </trkpt>
      <trkpt lat="47.16203" lon="5.9298">
        <ele>322.9</ele>
        <time>2021-08-08T11:51:41Z</time>
      </trkpt>
      <trkpt lat="47.16207" lon="5.92982">
        <ele>322.1</ele>
        <time>2021-08-08T11:51:55Z</time>
      </trkpt>
      <trkpt lat="47.16213" lon="5.92982">
        <ele>322.3</ele>
        <time>2021-08-08T11:52:01Z</time>
      </trkpt>
      <trkpt lat="47.16218" lon="5.92983">
        <ele>322.8</ele>
        <time>2021-08-08T11:52:06Z</time>
      </trkpt>
      <trkpt lat="47.16222" lon="5.92987">
        <ele>323.4</ele>
        <time>2021-08-08T11:52:11Z</time>
      </trkpt>
      <trkpt lat="47.16226" lon="5.92991">
        <ele>323.8</ele>
        <time>2021-08-08T11:52:16Z</time>
      </trkpt>
      <trkpt lat="47.16231" lon="5.92992">
        <ele>324.5</ele>
        <time>2021-08-08T11:52:21Z</time>
      </trkpt>
      <trkpt lat="47.16236" lon="5.92996">
        <ele>325.5</ele>
        <time>2021-08-08T11:52:26Z</time>
      </trkpt>
      <trkpt lat="47.1624" lon="5.93">
        <ele>326.4</ele>
        <time>2021-08-08T11:52:31Z</time>
      </trkpt>
      <trkpt lat="47.16244" lon="5.93006">
        <ele>327</ele>
        <time>2021-08-08T11:52:36Z</time>
      </trkpt>
      <trkpt lat="47.16247" lon="5.93011">
        <ele>327.1</ele>
        <time>2021-08-08T11:52:42Z</time>
      </trkpt>
      <trkpt lat="47.1625" lon="5.93018">
        <ele>327</ele>
        <time>2021-08-08T11:52:47Z</time>
      </trkpt>
      <trkpt lat="47.16252" lon="5.93025">
        <ele>327.2</ele>
        <time>2021-08-08T11:52:52Z</time>
      </trkpt>
      <trkpt lat="47.16255" lon="5.93031">
        <ele>327.2</ele>
        <time>2021-08-08T11:52:58Z</time>
      </trkpt>
      <trkpt lat="47.1626" lon="5.93033">
        <ele>327.2</ele>
        <time>2021-08-08T11:53:05Z</time>
      </trkpt>
      <trkpt lat="47.16264" lon="5.93036">
        <ele>326.8</ele>
        <time>2021-08-08T11:53:11Z</time>
      </trkpt>
      <trkpt lat="47.16269" lon="5.93038">
        <ele>326.9</ele>
        <time>2021-08-08T11:53:16Z</time>
      </trkpt>
      <trkpt lat="47.16273" lon="5.93043">
        <ele>327.2</ele>
        <time>2021-08-08T11:53:20Z</time>
      </trkpt>
      <trkpt lat="47.16277" lon="5.93045">
        <ele>327.1</ele>
        <time>2021-08-08T11:53:26Z</time>
      </trkpt>
      <trkpt lat="47.16282" lon="5.93047">
        <ele>326.4</ele>
        <time>2021-08-08T11:53:34Z</time>
      </trkpt>
      <trkpt lat="47.16287" lon="5.9305">
        <ele>326</ele>
        <time>2021-08-08T11:53:40Z</time>
      </trkpt>
      <trkpt lat="47.16291" lon="5.93054">
        <ele>325.5</ele>
        <time>2021-08-08T11:53:45Z</time>
      </trkpt>
      <trkpt lat="47.16296" lon="5.93056">
        <ele>324.8</ele>
        <time>2021-08-08T11:53:50Z</time>
      </trkpt>
      <trkpt lat="47.163" lon="5.93059">
        <ele>325.2</ele>
        <time>2021-08-08T11:53:56Z</time>
      </trkpt>
      <trkpt lat="47.16304" lon="5.93063">
        <ele>325.4</ele>
        <time>2021-08-08T11:54:01Z</time>
      </trkpt>
      <trkpt lat="47.16308" lon="5.93068">
        <ele>325.4</ele>
        <time>2021-08-08T11:54:06Z</time>
      </trkpt>
      <trkpt lat="47.16313" lon="5.93072">
        <ele>325.3</ele>
        <time>2021-08-08T11:54:11Z</time>
      </trkpt>
      <trkpt lat="47.16317" lon="5.93075">
        <ele>325.6</ele>
        <time>2021-08-08T11:54:15Z</time>
      </trkpt>
      <trkpt lat="47.16322" lon="5.93078">
        <ele>326.1</ele>
        <time>2021-08-08T11:54:19Z</time>
      </trkpt>
      <trkpt lat="47.16327" lon="5.93083">
        <ele>327.1</ele>
        <time>2021-08-08T11:54:24Z</time>
      </trkpt>
      <trkpt lat="47.1633" lon="5.93088">
        <ele>327.8</ele>
        <time>2021-08-08T11:54:28Z</time>
      </trkpt>
      <trkpt lat="47.16335" lon="5.93091">
        <ele>328.2</ele>
        <time>2021-08-08T11:54:33Z</time>
      </trkpt>
      <trkpt lat="47.16339" lon="5.93093">
        <ele>328.7</ele>
        <time>2021-08-08T11:54:37Z</time>
      </trkpt>
      <trkpt lat="47.16343" lon="5.93092">
        <ele>328.1</ele>
        <time>2021-08-08T11:54:52Z</time>
      </trkpt>
      <trkpt lat="47.16347" lon="5.93096">
        <ele>328.6</ele>
        <time>2021-08-08T11:55:05Z</time>
      </trkpt>
      <trkpt lat="47.16349" lon="5.93103">
        <ele>330.1</ele>
        <time>2021-08-08T11:55:59Z</time>
      </trkpt>
      <trkpt lat="47.16353" lon="5.93108">
        <ele>330.6</ele>
        <time>2021-08-08T11:56:03Z</time>
      </trkpt>
      <trkpt lat="47.16356" lon="5.93113">
        <ele>331.5</ele>
        <time>2021-08-08T11:56:08Z</time>
      </trkpt>
      <trkpt lat="47.1636" lon="5.93117">
        <ele>332.6</ele>
        <time>2021-08-08T11:56:14Z</time>
      </trkpt>
      <trkpt lat="47.16365" lon="5.93121">
        <ele>333.7</ele>
        <time>2021-08-08T11:56:19Z</time>
      </trkpt>
      <trkpt lat="47.16369" lon="5.93126">
        <ele>335.2</ele>
        <time>2021-08-08T11:56:25Z</time>
      </trkpt>
      <trkpt lat="47.16373" lon="5.93128">
        <ele>336.1</ele>
        <time>2021-08-08T11:56:32Z</time>
      </trkpt>
      <trkpt lat="47.16377" lon="5.93132">
        <ele>336.2</ele>
        <time>2021-08-08T11:56:39Z</time>
      </trkpt>
      <trkpt lat="47.16382" lon="5.93135">
        <ele>336.1</ele>
        <time>2021-08-08T11:56:44Z</time>
      </trkpt>
      <trkpt lat="47.16385" lon="5.9314">
        <ele>336.1</ele>
        <time>2021-08-08T11:56:50Z</time>
      </trkpt>
      <trkpt lat="47.1639" lon="5.93143">
        <ele>335.7</ele>
        <time>2021-08-08T11:56:54Z</time>
      </trkpt>
      <trkpt lat="47.16395" lon="5.93144">
        <ele>333.7</ele>
        <time>2021-08-08T11:57:05Z</time>
      </trkpt>
      <trkpt lat="47.16399" lon="5.93145">
        <ele>332.5</ele>
        <time>2021-08-08T11:57:13Z</time>
      </trkpt>
      <trkpt lat="47.16404" lon="5.93145">
        <ele>330.8</ele>
        <time>2021-08-08T11:57:34Z</time>
      </trkpt>
      <trkpt lat="47.16408" lon="5.9315">
        <ele>332.6</ele>
        <time>2021-08-08T11:57:42Z</time>
      </trkpt>
      <trkpt lat="47.16412" lon="5.93153">
        <ele>333.7</ele>
        <time>2021-08-08T11:57:46Z</time>
      </trkpt>
      <trkpt lat="47.16416" lon="5.93157">
        <ele>335.6</ele>
        <time>2021-08-08T11:57:52Z</time>
      </trkpt>
      <trkpt lat="47.16421" lon="5.93159">
        <ele>335.9</ele>
        <time>2021-08-08T11:57:58Z</time>
      </trkpt>
      <trkpt lat="47.16425" lon="5.93163">
        <ele>336.4</ele>
        <time>2021-08-08T11:58:04Z</time>
      </trkpt>
      <trkpt lat="47.16427" lon="5.93168">
        <ele>336.2</ele>
        <time>2021-08-08T11:58:10Z</time>
      </trkpt>
      <trkpt lat="47.16432" lon="5.93173">
        <ele>336.2</ele>
        <time>2021-08-08T11:58:16Z</time>
      </trkpt>
      <trkpt lat="47.16435" lon="5.93178">
        <ele>336.3</ele>
        <time>2021-08-08T11:58:21Z</time>
      </trkpt>
      <trkpt lat="47.16439" lon="5.93183">
        <ele>335.9</ele>
        <time>2021-08-08T11:58:24Z</time>
      </trkpt>
      <trkpt lat="47.16443" lon="5.93188">
        <ele>335.7</ele>
        <time>2021-08-08T11:58:27Z</time>
      </trkpt>
      <trkpt lat="47.16448" lon="5.93194">
        <ele>335.5</ele>
        <time>2021-08-08T11:58:31Z</time>
      </trkpt>
      <trkpt lat="47.16451" lon="5.93199">
        <ele>335.8</ele>
        <time>2021-08-08T11:58:35Z</time>
      </trkpt>
      <trkpt lat="47.16455" lon="5.93203">
        <ele>336.2</ele>
        <time>2021-08-08T11:58:40Z</time>
      </trkpt>
      <trkpt lat="47.1646" lon="5.93206">
        <ele>336.4</ele>
        <time>2021-08-08T11:58:44Z</time>
      </trkpt>
      <trkpt lat="47.16462" lon="5.93212">
        <ele>336.4</ele>
        <time>2021-08-08T11:58:49Z</time>
      </trkpt>
      <trkpt lat="47.16466" lon="5.93218">
        <ele>336.1</ele>
        <time>2021-08-08T11:58:55Z</time>
      </trkpt>
      <trkpt lat="47.16467" lon="5.93225">
        <ele>335.5</ele>
        <time>2021-08-08T11:59:00Z</time>
      </trkpt>
      <trkpt lat="47.1647" lon="5.9323">
        <ele>334.9</ele>
        <time>2021-08-08T11:59:04Z</time>
      </trkpt>
      <trkpt lat="47.1647" lon="5.93237">
        <ele>332.2</ele>
        <time>2021-08-08T11:59:13Z</time>
      </trkpt>
      <trkpt lat="47.16471" lon="5.93243">
        <ele>331.2</ele>
        <time>2021-08-08T11:59:17Z</time>
      </trkpt>
      <trkpt lat="47.16472" lon="5.9325">
        <ele>329.7</ele>
        <time>2021-08-08T11:59:25Z</time>
      </trkpt>
      <trkpt lat="47.1647" lon="5.93257">
        <ele>329.1</ele>
        <time>2021-08-08T11:59:30Z</time>
      </trkpt>
      <trkpt lat="47.16463" lon="5.93258">
        <ele>325.4</ele>
        <time>2021-08-08T11:59:52Z</time>
      </trkpt>
      <trkpt lat="47.16466" lon="5.93265">
        <ele>324.8</ele>
        <time>2021-08-08T12:00:00Z</time>
      </trkpt>
      <trkpt lat="47.16471" lon="5.9327">
        <ele>325</ele>
        <time>2021-08-08T12:00:03Z</time>
      </trkpt>
      <trkpt lat="47.16476" lon="5.93273">
        <ele>325.5</ele>
        <time>2021-08-08T12:00:06Z</time>
      </trkpt>
      <trkpt lat="47.1648" lon="5.93278">
        <ele>325.4</ele>
        <time>2021-08-08T12:00:11Z</time>
      </trkpt>
      <trkpt lat="47.16484" lon="5.93281">
        <ele>325.8</ele>
        <time>2021-08-08T12:00:16Z</time>
      </trkpt>
      <trkpt lat="47.16488" lon="5.93285">
        <ele>326.1</ele>
        <time>2021-08-08T12:00:20Z</time>
      </trkpt>
      <trkpt lat="47.16492" lon="5.93289">
        <ele>327.2</ele>
        <time>2021-08-08T12:00:27Z</time>
      </trkpt>
      <trkpt lat="47.16497" lon="5.93294">
        <ele>328</ele>
        <time>2021-08-08T12:00:33Z</time>
      </trkpt>
      <trkpt lat="47.16501" lon="5.93298">
        <ele>328.8</ele>
        <time>2021-08-08T12:00:37Z</time>
      </trkpt>
      <trkpt lat="47.16505" lon="5.93301">
        <ele>329.8</ele>
        <time>2021-08-08T12:00:41Z</time>
      </trkpt>
      <trkpt lat="47.16509" lon="5.93307">
        <ele>330.7</ele>
        <time>2021-08-08T12:00:46Z</time>
      </trkpt>
      <trkpt lat="47.16512" lon="5.93312">
        <ele>331.5</ele>
        <time>2021-08-08T12:00:50Z</time>
      </trkpt>
      <trkpt lat="47.16516" lon="5.93318">
        <ele>333</ele>
        <time>2021-08-08T12:00:55Z</time>
      </trkpt>
      <trkpt lat="47.16519" lon="5.93324">
        <ele>335</ele>
        <time>2021-08-08T12:01:01Z</time>
      </trkpt>
      <trkpt lat="47.16521" lon="5.93331">
        <ele>336</ele>
        <time>2021-08-08T12:01:07Z</time>
      </trkpt>
      <trkpt lat="47.16523" lon="5.93338">
        <ele>335.5</ele>
        <time>2021-08-08T12:01:13Z</time>
      </trkpt>
      <trkpt lat="47.16524" lon="5.93345">
        <ele>334.7</ele>
        <time>2021-08-08T12:01:20Z</time>
      </trkpt>
      <trkpt lat="47.16524" lon="5.93353">
        <ele>332.6</ele>
        <time>2021-08-08T12:01:26Z</time>
      </trkpt>
      <trkpt lat="47.16527" lon="5.93359">
        <ele>331.1</ele>
        <time>2021-08-08T12:01:31Z</time>
      </trkpt>
      <trkpt lat="47.16529" lon="5.93364">
        <ele>330</ele>
        <time>2021-08-08T12:01:36Z</time>
      </trkpt>
      <trkpt lat="47.16532" lon="5.93371">
        <ele>329.3</ele>
        <time>2021-08-08T12:01:41Z</time>
      </trkpt>
      <trkpt lat="47.16536" lon="5.93377">
        <ele>329.3</ele>
        <time>2021-08-08T12:01:46Z</time>
      </trkpt>
      <trkpt lat="47.1654" lon="5.93382">
        <ele>330.1</ele>
        <time>2021-08-08T12:01:51Z</time>
      </trkpt>
      <trkpt lat="47.16541" lon="5.93389">
        <ele>331</ele>
        <time>2021-08-08T12:01:55Z</time>
      </trkpt>
      <trkpt lat="47.16542" lon="5.93397">
        <ele>332.3</ele>
        <time>2021-08-08T12:02:00Z</time>
      </trkpt>
      <trkpt lat="47.16543" lon="5.93404">
        <ele>333.3</ele>
        <time>2021-08-08T12:02:05Z</time>
      </trkpt>
      <trkpt lat="47.16547" lon="5.93409">
        <ele>332.7</ele>
        <time>2021-08-08T12:02:12Z</time>
      </trkpt>
      <trkpt lat="47.1655" lon="5.93413">
        <ele>332.3</ele>
        <time>2021-08-08T12:02:17Z</time>
      </trkpt>
      <trkpt lat="47.16554" lon="5.93418">
        <ele>332</ele>
        <time>2021-08-08T12:02:22Z</time>
      </trkpt>
      <trkpt lat="47.16558" lon="5.93422">
        <ele>332.2</ele>
        <time>2021-08-08T12:02:26Z</time>
      </trkpt>
      <trkpt lat="47.16562" lon="5.93426">
        <ele>332.3</ele>
        <time>2021-08-08T12:02:31Z</time>
      </trkpt>
      <trkpt lat="47.16566" lon="5.93431">
        <ele>332.7</ele>
        <time>2021-08-08T12:02:36Z</time>
      </trkpt>
      <trkpt lat="47.16569" lon="5.93436">
        <ele>333.2</ele>
        <time>2021-08-08T12:02:40Z</time>
      </trkpt>
      <trkpt lat="47.16571" lon="5.93442">
        <ele>333.9</ele>
        <time>2021-08-08T12:02:45Z</time>
      </trkpt>
      <trkpt lat="47.16572" lon="5.9345">
        <ele>334.3</ele>
        <time>2021-08-08T12:02:51Z</time>
      </trkpt>
      <trkpt lat="47.16572" lon="5.93458">
        <ele>334.9</ele>
        <time>2021-08-08T12:02:56Z</time>
      </trkpt>
      <trkpt lat="47.16572" lon="5.93465">
        <ele>335.5</ele>
        <time>2021-08-08T12:03:00Z</time>
      </trkpt>
      <trkpt lat="47.16572" lon="5.93473">
        <ele>336.4</ele>
        <time>2021-08-08T12:03:04Z</time>
      </trkpt>
      <trkpt lat="47.1657" lon="5.93479">
        <ele>335.3</ele>
        <time>2021-08-08T12:03:12Z</time>
      </trkpt>
      <trkpt lat="47.16571" lon="5.93487">
        <ele>334.6</ele>
        <time>2021-08-08T12:03:17Z</time>
      </trkpt>
      <trkpt lat="47.16573" lon="5.93492">
        <ele>334.1</ele>
        <time>2021-08-08T12:03:21Z</time>
      </trkpt>
      <trkpt lat="47.16575" lon="5.93499">
        <ele>333.5</ele>
        <time>2021-08-08T12:03:26Z</time>
      </trkpt>
      <trkpt lat="47.16576" lon="5.93506">
        <ele>332.8</ele>
        <time>2021-08-08T12:03:32Z</time>
      </trkpt>
      <trkpt lat="47.16579" lon="5.93512">
        <ele>331.8</ele>
        <time>2021-08-08T12:03:37Z</time>
      </trkpt>
      <trkpt lat="47.16579" lon="5.9352">
        <ele>330.5</ele>
        <time>2021-08-08T12:03:43Z</time>
      </trkpt>
      <trkpt lat="47.1658" lon="5.93527">
        <ele>329.6</ele>
        <time>2021-08-08T12:03:48Z</time>
      </trkpt>
      <trkpt lat="47.16582" lon="5.93533">
        <ele>329.2</ele>
        <time>2021-08-08T12:03:53Z</time>
      </trkpt>
      <trkpt lat="47.16584" lon="5.9354">
        <ele>328.8</ele>
        <time>2021-08-08T12:03:57Z</time>
      </trkpt>
      <trkpt lat="47.16587" lon="5.93546">
        <ele>327.7</ele>
        <time>2021-08-08T12:04:08Z</time>
      </trkpt>
      <trkpt lat="47.16589" lon="5.93551">
        <ele>327</ele>
        <time>2021-08-08T12:04:15Z</time>
      </trkpt>
      <trkpt lat="47.16592" lon="5.93557">
        <ele>327.1</ele>
        <time>2021-08-08T12:04:21Z</time>
      </trkpt>
      <trkpt lat="47.16596" lon="5.93562">
        <ele>327.5</ele>
        <time>2021-08-08T12:04:27Z</time>
      </trkpt>
      <trkpt lat="47.16598" lon="5.93568">
        <ele>327.4</ele>
        <time>2021-08-08T12:04:34Z</time>
      </trkpt>
      <trkpt lat="47.16599" lon="5.93575">
        <ele>326.8</ele>
        <time>2021-08-08T12:04:41Z</time>
      </trkpt>
      <trkpt lat="47.16599" lon="5.93582">
        <ele>324.9</ele>
        <time>2021-08-08T12:04:46Z</time>
      </trkpt>
      <trkpt lat="47.16598" lon="5.93589">
        <ele>323.5</ele>
        <time>2021-08-08T12:04:50Z</time>
      </trkpt>
      <trkpt lat="47.16599" lon="5.93596">
        <ele>322.5</ele>
        <time>2021-08-08T12:04:54Z</time>
      </trkpt>
      <trkpt lat="47.16601" lon="5.93603">
        <ele>320.5</ele>
        <time>2021-08-08T12:05:01Z</time>
      </trkpt>
      <trkpt lat="47.16604" lon="5.93608">
        <ele>316.8</ele>
        <time>2021-08-08T12:05:11Z</time>
      </trkpt>
      <trkpt lat="47.16606" lon="5.93615">
        <ele>315.2</ele>
        <time>2021-08-08T12:05:17Z</time>
      </trkpt>
      <trkpt lat="47.16609" lon="5.93622">
        <ele>314.3</ele>
        <time>2021-08-08T12:05:22Z</time>
      </trkpt>
      <trkpt lat="47.16613" lon="5.93628">
        <ele>314.1</ele>
        <time>2021-08-08T12:05:26Z</time>
      </trkpt>
      <trkpt lat="47.16615" lon="5.93634">
        <ele>314.2</ele>
        <time>2021-08-08T12:05:29Z</time>
      </trkpt>
      <trkpt lat="47.16617" lon="5.9364">
        <ele>314.9</ele>
        <time>2021-08-08T12:05:33Z</time>
      </trkpt>
      <trkpt lat="47.16616" lon="5.93648">
        <ele>315.6</ele>
        <time>2021-08-08T12:05:37Z</time>
      </trkpt>
      <trkpt lat="47.16616" lon="5.93656">
        <ele>316.1</ele>
        <time>2021-08-08T12:05:42Z</time>
      </trkpt>
      <trkpt lat="47.16619" lon="5.93663">
        <ele>316.3</ele>
        <time>2021-08-08T12:05:48Z</time>
      </trkpt>
      <trkpt lat="47.16622" lon="5.93668">
        <ele>316.5</ele>
        <time>2021-08-08T12:05:53Z</time>
      </trkpt>
      <trkpt lat="47.16624" lon="5.93674">
        <ele>316.7</ele>
        <time>2021-08-08T12:05:58Z</time>
      </trkpt>
      <trkpt lat="47.16628" lon="5.93679">
        <ele>317.5</ele>
        <time>2021-08-08T12:06:05Z</time>
      </trkpt>
      <trkpt lat="47.16632" lon="5.93684">
        <ele>318.3</ele>
        <time>2021-08-08T12:06:10Z</time>
      </trkpt>
      <trkpt lat="47.16636" lon="5.93688">
        <ele>319.2</ele>
        <time>2021-08-08T12:06:16Z</time>
      </trkpt>
      <trkpt lat="47.1664" lon="5.93693">
        <ele>320.1</ele>
        <time>2021-08-08T12:06:20Z</time>
      </trkpt>
      <trkpt lat="47.16643" lon="5.93698">
        <ele>320.9</ele>
        <time>2021-08-08T12:06:25Z</time>
      </trkpt>
      <trkpt lat="47.16647" lon="5.93703">
        <ele>320.8</ele>
        <time>2021-08-08T12:06:32Z</time>
      </trkpt>
      <trkpt lat="47.16651" lon="5.93708">
        <ele>320.2</ele>
        <time>2021-08-08T12:06:37Z</time>
      </trkpt>
      <trkpt lat="47.16655" lon="5.93711">
        <ele>318.9</ele>
        <time>2021-08-08T12:06:43Z</time>
      </trkpt>
      <trkpt lat="47.16659" lon="5.93716">
        <ele>318.4</ele>
        <time>2021-08-08T12:06:48Z</time>
      </trkpt>
      <trkpt lat="47.16662" lon="5.93722">
        <ele>317.7</ele>
        <time>2021-08-08T12:06:54Z</time>
      </trkpt>
      <trkpt lat="47.16666" lon="5.93726">
        <ele>317.4</ele>
        <time>2021-08-08T12:06:59Z</time>
      </trkpt>
      <trkpt lat="47.1667" lon="5.93731">
        <ele>316.8</ele>
        <time>2021-08-08T12:07:06Z</time>
      </trkpt>
      <trkpt lat="47.16674" lon="5.93736">
        <ele>315.4</ele>
        <time>2021-08-08T12:07:12Z</time>
      </trkpt>
      <trkpt lat="47.16678" lon="5.93742">
        <ele>314</ele>
        <time>2021-08-08T12:07:17Z</time>
      </trkpt>
      <trkpt lat="47.16678" lon="5.93748">
        <ele>311.6</ele>
        <time>2021-08-08T12:07:24Z</time>
      </trkpt>
      <trkpt lat="47.16683" lon="5.93752">
        <ele>310.9</ele>
        <time>2021-08-08T12:07:30Z</time>
      </trkpt>
      <trkpt lat="47.16687" lon="5.93755">
        <ele>311.1</ele>
        <time>2021-08-08T12:07:35Z</time>
      </trkpt>
      <trkpt lat="47.1669" lon="5.93761">
        <ele>310.6</ele>
        <time>2021-08-08T12:07:42Z</time>
      </trkpt>
      <trkpt lat="47.16694" lon="5.93765">
        <ele>310.6</ele>
        <time>2021-08-08T12:07:46Z</time>
      </trkpt>
      <trkpt lat="47.16699" lon="5.93769">
        <ele>310.9</ele>
        <time>2021-08-08T12:07:50Z</time>
      </trkpt>
      <trkpt lat="47.16703" lon="5.93773">
        <ele>311.2</ele>
        <time>2021-08-08T12:07:55Z</time>
      </trkpt>
      <trkpt lat="47.16706" lon="5.93778">
        <ele>311.6</ele>
        <time>2021-08-08T12:08:01Z</time>
      </trkpt>
      <trkpt lat="47.16709" lon="5.93784">
        <ele>312.9</ele>
        <time>2021-08-08T12:08:08Z</time>
      </trkpt>
      <trkpt lat="47.16709" lon="5.9379">
        <ele>312.9</ele>
        <time>2021-08-08T12:08:14Z</time>
      </trkpt>
      <trkpt lat="47.1671" lon="5.93798">
        <ele>312.8</ele>
        <time>2021-08-08T12:08:21Z</time>
      </trkpt>
      <trkpt lat="47.16714" lon="5.93803">
        <ele>313.1</ele>
        <time>2021-08-08T12:08:26Z</time>
      </trkpt>
      <trkpt lat="47.16718" lon="5.93807">
        <ele>313.4</ele>
        <time>2021-08-08T12:08:30Z</time>
      </trkpt>
      <trkpt lat="47.16722" lon="5.93811">
        <ele>314</ele>
        <time>2021-08-08T12:08:34Z</time>
      </trkpt>
      <trkpt lat="47.16726" lon="5.93816">
        <ele>315</ele>
        <time>2021-08-08T12:08:38Z</time>
      </trkpt>
      <trkpt lat="47.1673" lon="5.9382">
        <ele>315.7</ele>
        <time>2021-08-08T12:08:44Z</time>
      </trkpt>
      <trkpt lat="47.16732" lon="5.93826">
        <ele>315.7</ele>
        <time>2021-08-08T12:08:51Z</time>
      </trkpt>
      <trkpt lat="47.16736" lon="5.93831">
        <ele>316.1</ele>
        <time>2021-08-08T12:08:56Z</time>
      </trkpt>
      <trkpt lat="47.16739" lon="5.93837">
        <ele>316.8</ele>
        <time>2021-08-08T12:09:01Z</time>
      </trkpt>
      <trkpt lat="47.16743" lon="5.93841">
        <ele>317</ele>
        <time>2021-08-08T12:09:07Z</time>
      </trkpt>
      <trkpt lat="47.16747" lon="5.93846">
        <ele>316.1</ele>
        <time>2021-08-08T12:09:14Z</time>
      </trkpt>
      <trkpt lat="47.16752" lon="5.93848">
        <ele>314.3</ele>
        <time>2021-08-08T12:09:22Z</time>
      </trkpt>
      <trkpt lat="47.16756" lon="5.9385">
        <ele>313.5</ele>
        <time>2021-08-08T12:09:29Z</time>
      </trkpt>
      <trkpt lat="47.16761" lon="5.93848">
        <ele>312.9</ele>
        <time>2021-08-08T12:09:35Z</time>
      </trkpt>
      <trkpt lat="47.16765" lon="5.93844">
        <ele>311.9</ele>
        <time>2021-08-08T12:09:40Z</time>
      </trkpt>
      <trkpt lat="47.1677" lon="5.9384">
        <ele>311.5</ele>
        <time>2021-08-08T12:09:44Z</time>
      </trkpt>
      <trkpt lat="47.16774" lon="5.93836">
        <ele>311.6</ele>
        <time>2021-08-08T12:09:48Z</time>
      </trkpt>
      <trkpt lat="47.16779" lon="5.93835">
        <ele>312.2</ele>
        <time>2021-08-08T12:09:54Z</time>
      </trkpt>
      <trkpt lat="47.16781" lon="5.93828">
        <ele>311.8</ele>
        <time>2021-08-08T12:10:01Z</time>
      </trkpt>
      <trkpt lat="47.16785" lon="5.93824">
        <ele>310.3</ele>
        <time>2021-08-08T12:10:09Z</time>
      </trkpt>
      <trkpt lat="47.1679" lon="5.93825">
        <ele>309.1</ele>
        <time>2021-08-08T12:10:14Z</time>
      </trkpt>
      <trkpt lat="47.16795" lon="5.93824">
        <ele>307.7</ele>
        <time>2021-08-08T12:10:22Z</time>
      </trkpt>
      <trkpt lat="47.16799" lon="5.93822">
        <ele>307.5</ele>
        <time>2021-08-08T12:10:31Z</time>
      </trkpt>
      <trkpt lat="47.16804" lon="5.93822">
        <ele>311.3</ele>
        <time>2021-08-08T12:10:58Z</time>
      </trkpt>
      <trkpt lat="47.16807" lon="5.93829">
        <ele>312.8</ele>
        <time>2021-08-08T12:11:06Z</time>
      </trkpt>
      <trkpt lat="47.16805" lon="5.93822">
        <ele>325.6</ele>
        <time>2021-08-08T12:13:37Z</time>
      </trkpt>
      <trkpt lat="47.16807" lon="5.93829">
        <ele>324.8</ele>
        <time>2021-08-08T12:14:04Z</time>
      </trkpt>
      <trkpt lat="47.16803" lon="5.93826">
        <ele>320.8</ele>
        <time>2021-08-08T12:14:40Z</time>
      </trkpt>
      <trkpt lat="47.16799" lon="5.93821">
        <ele>316.9</ele>
        <time>2021-08-08T12:14:52Z</time>
      </trkpt>
      <trkpt lat="47.16796" lon="5.93815">
        <ele>319</ele>
        <time>2021-08-08T12:14:59Z</time>
      </trkpt>
      <trkpt lat="47.16794" lon="5.93809">
        <ele>320.5</ele>
        <time>2021-08-08T12:15:07Z</time>
      </trkpt>
      <trkpt lat="47.168" lon="5.93812">
        <ele>318.7</ele>
        <time>2021-08-08T12:15:48Z</time>
      </trkpt>
      <trkpt lat="47.16801" lon="5.93818">
        <ele>321.8</ele>
        <time>2021-08-08T12:16:14Z</time>
      </trkpt>
      <trkpt lat="47.16796" lon="5.93817">
        <ele>325.4</ele>
        <time>2021-08-08T12:16:35Z</time>
      </trkpt>
      <trkpt lat="47.16799" lon="5.93823">
        <ele>324.9</ele>
        <time>2021-08-08T12:16:44Z</time>
      </trkpt>
      <trkpt lat="47.16804" lon="5.93829">
        <ele>324.7</ele>
        <time>2021-08-08T12:17:13Z</time>
      </trkpt>
      <trkpt lat="47.16809" lon="5.9383">
        <ele>325</ele>
        <time>2021-08-08T12:17:20Z</time>
      </trkpt>
      <trkpt lat="47.16812" lon="5.93825">
        <ele>323.6</ele>
        <time>2021-08-08T12:17:24Z</time>
      </trkpt>
      <trkpt lat="47.16808" lon="5.9382">
        <ele>321</ele>
        <time>2021-08-08T12:17:44Z</time>
      </trkpt>
      <trkpt lat="47.16803" lon="5.9382">
        <ele>320.4</ele>
        <time>2021-08-08T12:17:47Z</time>
      </trkpt>
      <trkpt lat="47.168" lon="5.93813">
        <ele>318.5</ele>
        <time>2021-08-08T12:18:08Z</time>
      </trkpt>
      <trkpt lat="47.16805" lon="5.93812">
        <ele>321.3</ele>
        <time>2021-08-08T12:19:30Z</time>
      </trkpt>
      <trkpt lat="47.16807" lon="5.93805">
        <ele>321</ele>
        <time>2021-08-08T12:19:34Z</time>
      </trkpt>
      <trkpt lat="47.16811" lon="5.93798">
        <ele>320.6</ele>
        <time>2021-08-08T12:19:38Z</time>
      </trkpt>
      <trkpt lat="47.16813" lon="5.93792">
        <ele>320.5</ele>
        <time>2021-08-08T12:19:42Z</time>
      </trkpt>
      <trkpt lat="47.16814" lon="5.93785">
        <ele>319.6</ele>
        <time>2021-08-08T12:19:50Z</time>
      </trkpt>
      <trkpt lat="47.16815" lon="5.93778">
        <ele>318.1</ele>
        <time>2021-08-08T12:19:54Z</time>
      </trkpt>
      <trkpt lat="47.16816" lon="5.93771">
        <ele>315.3</ele>
        <time>2021-08-08T12:20:01Z</time>
      </trkpt>
      <trkpt lat="47.16818" lon="5.93764">
        <ele>313.1</ele>
        <time>2021-08-08T12:20:07Z</time>
      </trkpt>
      <trkpt lat="47.16821" lon="5.93758">
        <ele>311.8</ele>
        <time>2021-08-08T12:20:12Z</time>
      </trkpt>
      <trkpt lat="47.16824" lon="5.93752">
        <ele>310.8</ele>
        <time>2021-08-08T12:20:17Z</time>
      </trkpt>
      <trkpt lat="47.16825" lon="5.93745">
        <ele>309.7</ele>
        <time>2021-08-08T12:20:24Z</time>
      </trkpt>
      <trkpt lat="47.16828" lon="5.93739">
        <ele>309</ele>
        <time>2021-08-08T12:20:32Z</time>
      </trkpt>
      <trkpt lat="47.1683" lon="5.93731">
        <ele>308.7</ele>
        <time>2021-08-08T12:20:38Z</time>
      </trkpt>
      <trkpt lat="47.16831" lon="5.93723">
        <ele>308.7</ele>
        <time>2021-08-08T12:20:43Z</time>
      </trkpt>
      <trkpt lat="47.16832" lon="5.93715">
        <ele>308.7</ele>
        <time>2021-08-08T12:20:48Z</time>
      </trkpt>
      <trkpt lat="47.16834" lon="5.93708">
        <ele>309.1</ele>
        <time>2021-08-08T12:20:52Z</time>
      </trkpt>
      <trkpt lat="47.16834" lon="5.93698">
        <ele>309.6</ele>
        <time>2021-08-08T12:20:56Z</time>
      </trkpt>
      <trkpt lat="47.16835" lon="5.93691">
        <ele>310.1</ele>
        <time>2021-08-08T12:20:59Z</time>
      </trkpt>
      <trkpt lat="47.16835" lon="5.93684">
        <ele>310.7</ele>
        <time>2021-08-08T12:21:02Z</time>
      </trkpt>
      <trkpt lat="47.16834" lon="5.93676">
        <ele>311.3</ele>
        <time>2021-08-08T12:21:05Z</time>
      </trkpt>
      <trkpt lat="47.16834" lon="5.93669">
        <ele>311.8</ele>
        <time>2021-08-08T12:21:09Z</time>
      </trkpt>
      <trkpt lat="47.16834" lon="5.93663">
        <ele>312.2</ele>
        <time>2021-08-08T12:21:16Z</time>
      </trkpt>
      <trkpt lat="47.16837" lon="5.93658">
        <ele>312.4</ele>
        <time>2021-08-08T12:21:21Z</time>
      </trkpt>
      <trkpt lat="47.16839" lon="5.93649">
        <ele>312</ele>
        <time>2021-08-08T12:21:30Z</time>
      </trkpt>
      <trkpt lat="47.16838" lon="5.93641">
        <ele>311.1</ele>
        <time>2021-08-08T12:21:35Z</time>
      </trkpt>
      <trkpt lat="47.16836" lon="5.93635">
        <ele>310.5</ele>
        <time>2021-08-08T12:21:39Z</time>
      </trkpt>
      <trkpt lat="47.16834" lon="5.93627">
        <ele>310.6</ele>
        <time>2021-08-08T12:21:43Z</time>
      </trkpt>
      <trkpt lat="47.16831" lon="5.9362">
        <ele>311</ele>
        <time>2021-08-08T12:21:46Z</time>
      </trkpt>
      <trkpt lat="47.16828" lon="5.93615">
        <ele>311.1</ele>
        <time>2021-08-08T12:21:51Z</time>
      </trkpt>
      <trkpt lat="47.16825" lon="5.93609">
        <ele>311.2</ele>
        <time>2021-08-08T12:21:56Z</time>
      </trkpt>
      <trkpt lat="47.16823" lon="5.93603">
        <ele>311.1</ele>
        <time>2021-08-08T12:21:59Z</time>
      </trkpt>
      <trkpt lat="47.16822" lon="5.93595">
        <ele>310.1</ele>
        <time>2021-08-08T12:22:05Z</time>
      </trkpt>
      <trkpt lat="47.16821" lon="5.93588">
        <ele>308.8</ele>
        <time>2021-08-08T12:22:10Z</time>
      </trkpt>
      <trkpt lat="47.16821" lon="5.9358">
        <ele>307</ele>
        <time>2021-08-08T12:22:19Z</time>
      </trkpt>
      <trkpt lat="47.16823" lon="5.93574">
        <ele>305.6</ele>
        <time>2021-08-08T12:22:24Z</time>
      </trkpt>
      <trkpt lat="47.16821" lon="5.93566">
        <ele>304</ele>
        <time>2021-08-08T12:22:31Z</time>
      </trkpt>
      <trkpt lat="47.16818" lon="5.9356">
        <ele>303</ele>
        <time>2021-08-08T12:22:36Z</time>
      </trkpt>
      <trkpt lat="47.16814" lon="5.93554">
        <ele>302.5</ele>
        <time>2021-08-08T12:22:40Z</time>
      </trkpt>
      <trkpt lat="47.16811" lon="5.93549">
        <ele>301.9</ele>
        <time>2021-08-08T12:22:46Z</time>
      </trkpt>
      <trkpt lat="47.16811" lon="5.93542">
        <ele>300.9</ele>
        <time>2021-08-08T12:22:52Z</time>
      </trkpt>
      <trkpt lat="47.16812" lon="5.93535">
        <ele>299.4</ele>
        <time>2021-08-08T12:22:57Z</time>
      </trkpt>
      <trkpt lat="47.16815" lon="5.93529">
        <ele>296.9</ele>
        <time>2021-08-08T12:23:03Z</time>
      </trkpt>
      <trkpt lat="47.16813" lon="5.93522">
        <ele>293.8</ele>
        <time>2021-08-08T12:23:10Z</time>
      </trkpt>
      <trkpt lat="47.1681" lon="5.93514">
        <ele>292.2</ele>
        <time>2021-08-08T12:23:15Z</time>
      </trkpt>
      <trkpt lat="47.16808" lon="5.93506">
        <ele>291.3</ele>
        <time>2021-08-08T12:23:19Z</time>
      </trkpt>
      <trkpt lat="47.16807" lon="5.93499">
        <ele>290.8</ele>
        <time>2021-08-08T12:23:23Z</time>
      </trkpt>
      <trkpt lat="47.16806" lon="5.93493">
        <ele>290.5</ele>
        <time>2021-08-08T12:23:27Z</time>
      </trkpt>
      <trkpt lat="47.16804" lon="5.93486">
        <ele>290.2</ele>
        <time>2021-08-08T12:23:30Z</time>
      </trkpt>
      <trkpt lat="47.16803" lon="5.93478">
        <ele>289.6</ele>
        <time>2021-08-08T12:23:34Z</time>
      </trkpt>
      <trkpt lat="47.16803" lon="5.9347">
        <ele>289.1</ele>
        <time>2021-08-08T12:23:44Z</time>
      </trkpt>
      <trkpt lat="47.16801" lon="5.93463">
        <ele>289.4</ele>
        <time>2021-08-08T12:23:48Z</time>
      </trkpt>
      <trkpt lat="47.168" lon="5.93456">
        <ele>289.6</ele>
        <time>2021-08-08T12:23:51Z</time>
      </trkpt>
      <trkpt lat="47.168" lon="5.93449">
        <ele>289.3</ele>
        <time>2021-08-08T12:23:57Z</time>
      </trkpt>
      <trkpt lat="47.168" lon="5.93442">
        <ele>287.9</ele>
        <time>2021-08-08T12:24:05Z</time>
      </trkpt>
      <trkpt lat="47.16798" lon="5.93435">
        <ele>286.2</ele>
        <time>2021-08-08T12:24:10Z</time>
      </trkpt>
      <trkpt lat="47.16794" lon="5.93429">
        <ele>285.2</ele>
        <time>2021-08-08T12:24:14Z</time>
      </trkpt>
      <trkpt lat="47.16791" lon="5.93425">
        <ele>284.8</ele>
        <time>2021-08-08T12:24:17Z</time>
      </trkpt>
      <trkpt lat="47.16788" lon="5.93419">
        <ele>284.4</ele>
        <time>2021-08-08T12:24:20Z</time>
      </trkpt>
      <trkpt lat="47.16788" lon="5.93412">
        <ele>283.7</ele>
        <time>2021-08-08T12:24:30Z</time>
      </trkpt>
      <trkpt lat="47.16789" lon="5.93405">
        <ele>282.7</ele>
        <time>2021-08-08T12:24:39Z</time>
      </trkpt>
      <trkpt lat="47.16789" lon="5.93398">
        <ele>282.9</ele>
        <time>2021-08-08T12:24:45Z</time>
      </trkpt>
      <trkpt lat="47.16785" lon="5.93394">
        <ele>284.2</ele>
        <time>2021-08-08T12:24:55Z</time>
      </trkpt>
      <trkpt lat="47.16781" lon="5.93388">
        <ele>284.1</ele>
        <time>2021-08-08T12:25:01Z</time>
      </trkpt>
      <trkpt lat="47.1678" lon="5.93381">
        <ele>283.5</ele>
        <time>2021-08-08T12:25:09Z</time>
      </trkpt>
      <trkpt lat="47.16778" lon="5.93374">
        <ele>282.5</ele>
        <time>2021-08-08T12:25:14Z</time>
      </trkpt>
      <trkpt lat="47.16779" lon="5.93367">
        <ele>280.9</ele>
        <time>2021-08-08T12:25:20Z</time>
      </trkpt>
      <trkpt lat="47.1678" lon="5.9336">
        <ele>280.3</ele>
        <time>2021-08-08T12:25:26Z</time>
      </trkpt>
      <trkpt lat="47.16783" lon="5.93354">
        <ele>280.8</ele>
        <time>2021-08-08T12:25:36Z</time>
      </trkpt>
      <trkpt lat="47.16783" lon="5.93347">
        <ele>281</ele>
        <time>2021-08-08T12:25:42Z</time>
      </trkpt>
      <trkpt lat="47.16783" lon="5.9334">
        <ele>281.3</ele>
        <time>2021-08-08T12:25:46Z</time>
      </trkpt>
      <trkpt lat="47.16781" lon="5.93333">
        <ele>281.7</ele>
        <time>2021-08-08T12:25:50Z</time>
      </trkpt>
      <trkpt lat="47.16777" lon="5.9333">
        <ele>281.2</ele>
        <time>2021-08-08T12:25:56Z</time>
      </trkpt>
      <trkpt lat="47.16773" lon="5.93324">
        <ele>280.5</ele>
        <time>2021-08-08T12:26:02Z</time>
      </trkpt>
      <trkpt lat="47.16768" lon="5.93321">
        <ele>280.5</ele>
        <time>2021-08-08T12:26:06Z</time>
      </trkpt>
      <trkpt lat="47.16764" lon="5.93319">
        <ele>280.9</ele>
        <time>2021-08-08T12:26:12Z</time>
      </trkpt>
      <trkpt lat="47.16763" lon="5.93311">
        <ele>281.7</ele>
        <time>2021-08-08T12:26:18Z</time>
      </trkpt>
      <trkpt lat="47.16759" lon="5.93306">
        <ele>282.3</ele>
        <time>2021-08-08T12:26:22Z</time>
      </trkpt>
      <trkpt lat="47.16755" lon="5.93303">
        <ele>283</ele>
        <time>2021-08-08T12:26:26Z</time>
      </trkpt>
      <trkpt lat="47.16751" lon="5.93298">
        <ele>283</ele>
        <time>2021-08-08T12:26:33Z</time>
      </trkpt>
      <trkpt lat="47.16749" lon="5.93291">
        <ele>282.9</ele>
        <time>2021-08-08T12:26:37Z</time>
      </trkpt>
      <trkpt lat="47.16747" lon="5.93285">
        <ele>282.8</ele>
        <time>2021-08-08T12:26:42Z</time>
      </trkpt>
      <trkpt lat="47.16743" lon="5.93283">
        <ele>282.2</ele>
        <time>2021-08-08T12:26:47Z</time>
      </trkpt>
      <trkpt lat="47.16738" lon="5.93282">
        <ele>281.4</ele>
        <time>2021-08-08T12:26:50Z</time>
      </trkpt>
      <trkpt lat="47.16734" lon="5.93278">
        <ele>280.7</ele>
        <time>2021-08-08T12:26:53Z</time>
      </trkpt>
      <trkpt lat="47.16732" lon="5.93272">
        <ele>280.1</ele>
        <time>2021-08-08T12:26:56Z</time>
      </trkpt>
      <trkpt lat="47.1673" lon="5.93266">
        <ele>279.4</ele>
        <time>2021-08-08T12:26:59Z</time>
      </trkpt>
      <trkpt lat="47.16728" lon="5.93258">
        <ele>278.9</ele>
        <time>2021-08-08T12:27:03Z</time>
      </trkpt>
      <trkpt lat="47.16725" lon="5.93252">
        <ele>278.5</ele>
        <time>2021-08-08T12:27:09Z</time>
      </trkpt>
      <trkpt lat="47.1672" lon="5.93251">
        <ele>278.8</ele>
        <time>2021-08-08T12:27:14Z</time>
      </trkpt>
      <trkpt lat="47.16715" lon="5.93247">
        <ele>279.2</ele>
        <time>2021-08-08T12:27:18Z</time>
      </trkpt>
      <trkpt lat="47.16711" lon="5.93243">
        <ele>279.7</ele>
        <time>2021-08-08T12:27:21Z</time>
      </trkpt>
      <trkpt lat="47.16706" lon="5.93238">
        <ele>280</ele>
        <time>2021-08-08T12:27:24Z</time>
      </trkpt>
      <trkpt lat="47.16703" lon="5.93233">
        <ele>280.4</ele>
        <time>2021-08-08T12:27:28Z</time>
      </trkpt>
      <trkpt lat="47.16703" lon="5.93226">
        <ele>279.9</ele>
        <time>2021-08-08T12:27:33Z</time>
      </trkpt>
      <trkpt lat="47.16705" lon="5.9322">
        <ele>279</ele>
        <time>2021-08-08T12:27:43Z</time>
      </trkpt>
      <trkpt lat="47.16709" lon="5.93216">
        <ele>279.6</ele>
        <time>2021-08-08T12:27:46Z</time>
      </trkpt>
      <trkpt lat="47.16704" lon="5.93212">
        <ele>282.2</ele>
        <time>2021-08-08T12:28:01Z</time>
      </trkpt>
      <trkpt lat="47.16698" lon="5.93213">
        <ele>282.9</ele>
        <time>2021-08-08T12:28:05Z</time>
      </trkpt>
      <trkpt lat="47.16694" lon="5.93208">
        <ele>284</ele>
        <time>2021-08-08T12:28:12Z</time>
      </trkpt>
      <trkpt lat="47.16692" lon="5.932">
        <ele>284.2</ele>
        <time>2021-08-08T12:28:16Z</time>
      </trkpt>
      <trkpt lat="47.16691" lon="5.93193">
        <ele>283.5</ele>
        <time>2021-08-08T12:28:21Z</time>
      </trkpt>
      <trkpt lat="47.16692" lon="5.93187">
        <ele>282.3</ele>
        <time>2021-08-08T12:28:27Z</time>
      </trkpt>
      <trkpt lat="47.16689" lon="5.9318">
        <ele>281.3</ele>
        <time>2021-08-08T12:28:34Z</time>
      </trkpt>
      <trkpt lat="47.16684" lon="5.93177">
        <ele>280.9</ele>
        <time>2021-08-08T12:28:38Z</time>
      </trkpt>
      <trkpt lat="47.1668" lon="5.93174">
        <ele>280.6</ele>
        <time>2021-08-08T12:28:41Z</time>
      </trkpt>
      <trkpt lat="47.16674" lon="5.93166">
        <ele>279.8</ele>
        <time>2021-08-08T12:28:44Z</time>
      </trkpt>
      <trkpt lat="47.16669" lon="5.9316">
        <ele>278.2</ele>
        <time>2021-08-08T12:28:47Z</time>
      </trkpt>
      <trkpt lat="47.16667" lon="5.93154">
        <ele>276.3</ele>
        <time>2021-08-08T12:28:53Z</time>
      </trkpt>
      <trkpt lat="47.16661" lon="5.93153">
        <ele>275.7</ele>
        <time>2021-08-08T12:28:58Z</time>
      </trkpt>
      <trkpt lat="47.1666" lon="5.93146">
        <ele>274.9</ele>
        <time>2021-08-08T12:29:13Z</time>
      </trkpt>
      <trkpt lat="47.1666" lon="5.93139">
        <ele>274.7</ele>
        <time>2021-08-08T12:29:18Z</time>
      </trkpt>
      <trkpt lat="47.16657" lon="5.93132">
        <ele>274.1</ele>
        <time>2021-08-08T12:29:24Z</time>
      </trkpt>
      <trkpt lat="47.16649" lon="5.93126">
        <ele>273.2</ele>
        <time>2021-08-08T12:29:27Z</time>
      </trkpt>
      <trkpt lat="47.16644" lon="5.93117">
        <ele>272.4</ele>
        <time>2021-08-08T12:29:30Z</time>
      </trkpt>
      <trkpt lat="47.16641" lon="5.93109">
        <ele>271.9</ele>
        <time>2021-08-08T12:29:33Z</time>
      </trkpt>
      <trkpt lat="47.16644" lon="5.93102">
        <ele>273.6</ele>
        <time>2021-08-08T12:29:38Z</time>
      </trkpt>
      <trkpt lat="47.16648" lon="5.93096">
        <ele>275.2</ele>
        <time>2021-08-08T12:29:42Z</time>
      </trkpt>
      <trkpt lat="47.16645" lon="5.9309">
        <ele>276.7</ele>
        <time>2021-08-08T12:29:48Z</time>
      </trkpt>
      <trkpt lat="47.16641" lon="5.93085">
        <ele>277</ele>
        <time>2021-08-08T12:29:52Z</time>
      </trkpt>
      <trkpt lat="47.16636" lon="5.9308">
        <ele>277.2</ele>
        <time>2021-08-08T12:29:56Z</time>
      </trkpt>
      <trkpt lat="47.16632" lon="5.93076">
        <ele>277.1</ele>
        <time>2021-08-08T12:30:00Z</time>
      </trkpt>
      <trkpt lat="47.16629" lon="5.93071">
        <ele>276.5</ele>
        <time>2021-08-08T12:30:06Z</time>
      </trkpt>
      <trkpt lat="47.16628" lon="5.93064">
        <ele>275.8</ele>
        <time>2021-08-08T12:30:12Z</time>
      </trkpt>
      <trkpt lat="47.16623" lon="5.93061">
        <ele>275.2</ele>
        <time>2021-08-08T12:30:19Z</time>
      </trkpt>
      <trkpt lat="47.16617" lon="5.9306">
        <ele>274.7</ele>
        <time>2021-08-08T12:30:22Z</time>
      </trkpt>
      <trkpt lat="47.16613" lon="5.93058">
        <ele>274.3</ele>
        <time>2021-08-08T12:30:25Z</time>
      </trkpt>
      <trkpt lat="47.16611" lon="5.93051">
        <ele>274</ele>
        <time>2021-08-08T12:30:32Z</time>
      </trkpt>
      <trkpt lat="47.1661" lon="5.93043">
        <ele>274</ele>
        <time>2021-08-08T12:30:37Z</time>
      </trkpt>
      <trkpt lat="47.16608" lon="5.93036">
        <ele>274.1</ele>
        <time>2021-08-08T12:30:41Z</time>
      </trkpt>
      <trkpt lat="47.16606" lon="5.93029">
        <ele>274.6</ele>
        <time>2021-08-08T12:30:45Z</time>
      </trkpt>
      <trkpt lat="47.16605" lon="5.93022">
        <ele>275.1</ele>
        <time>2021-08-08T12:30:51Z</time>
      </trkpt>
      <trkpt lat="47.16605" lon="5.93015">
        <ele>275.7</ele>
        <time>2021-08-08T12:30:56Z</time>
      </trkpt>
      <trkpt lat="47.16601" lon="5.93009">
        <ele>276.6</ele>
        <time>2021-08-08T12:31:01Z</time>
      </trkpt>
      <trkpt lat="47.16598" lon="5.93003">
        <ele>277.4</ele>
        <time>2021-08-08T12:31:06Z</time>
      </trkpt>
      <trkpt lat="47.16595" lon="5.92997">
        <ele>277.9</ele>
        <time>2021-08-08T12:31:11Z</time>
      </trkpt>
      <trkpt lat="47.16592" lon="5.92991">
        <ele>278.4</ele>
        <time>2021-08-08T12:31:18Z</time>
      </trkpt>
      <trkpt lat="47.16588" lon="5.92986">
        <ele>278.4</ele>
        <time>2021-08-08T12:31:23Z</time>
      </trkpt>
      <trkpt lat="47.16584" lon="5.92981">
        <ele>277.4</ele>
        <time>2021-08-08T12:31:28Z</time>
      </trkpt>
      <trkpt lat="47.1658" lon="5.92978">
        <ele>276.5</ele>
        <time>2021-08-08T12:31:33Z</time>
      </trkpt>
      <trkpt lat="47.16576" lon="5.92974">
        <ele>275.9</ele>
        <time>2021-08-08T12:31:38Z</time>
      </trkpt>
      <trkpt lat="47.16575" lon="5.92966">
        <ele>275.1</ele>
        <time>2021-08-08T12:31:43Z</time>
      </trkpt>
      <trkpt lat="47.16573" lon="5.92959">
        <ele>274.4</ele>
        <time>2021-08-08T12:31:48Z</time>
      </trkpt>
      <trkpt lat="47.16571" lon="5.92953">
        <ele>274</ele>
        <time>2021-08-08T12:31:53Z</time>
      </trkpt>
      <trkpt lat="47.16567" lon="5.92948">
        <ele>273.9</ele>
        <time>2021-08-08T12:31:58Z</time>
      </trkpt>
      <trkpt lat="47.16565" lon="5.92942">
        <ele>273.8</ele>
        <time>2021-08-08T12:32:03Z</time>
      </trkpt>
      <trkpt lat="47.16563" lon="5.92934">
        <ele>273.8</ele>
        <time>2021-08-08T12:32:08Z</time>
      </trkpt>
      <trkpt lat="47.16561" lon="5.92928">
        <ele>274.2</ele>
        <time>2021-08-08T12:32:13Z</time>
      </trkpt>
      <trkpt lat="47.1656" lon="5.92921">
        <ele>274.6</ele>
        <time>2021-08-08T12:32:19Z</time>
      </trkpt>
      <trkpt lat="47.16557" lon="5.92916">
        <ele>274.1</ele>
        <time>2021-08-08T12:32:24Z</time>
      </trkpt>
      <trkpt lat="47.16553" lon="5.92911">
        <ele>272.5</ele>
        <time>2021-08-08T12:32:32Z</time>
      </trkpt>
      <trkpt lat="47.16553" lon="5.92903">
        <ele>270.5</ele>
        <time>2021-08-08T12:32:39Z</time>
      </trkpt>
      <trkpt lat="47.16553" lon="5.92895">
        <ele>269.4</ele>
        <time>2021-08-08T12:32:43Z</time>
      </trkpt>
      <trkpt lat="47.16556" lon="5.9289">
        <ele>267.9</ele>
        <time>2021-08-08T12:32:50Z</time>
      </trkpt>
      <trkpt lat="47.16558" lon="5.92882">
        <ele>267</ele>
        <time>2021-08-08T12:32:55Z</time>
      </trkpt>
      <trkpt lat="47.16558" lon="5.92875">
        <ele>266.1</ele>
        <time>2021-08-08T12:33:00Z</time>
      </trkpt>
      <trkpt lat="47.16558" lon="5.92867">
        <ele>266.2</ele>
        <time>2021-08-08T12:33:05Z</time>
      </trkpt>
      <trkpt lat="47.16558" lon="5.92861">
        <ele>266.5</ele>
        <time>2021-08-08T12:33:10Z</time>
      </trkpt>
      <trkpt lat="47.1656" lon="5.92853">
        <ele>266.5</ele>
        <time>2021-08-08T12:33:16Z</time>
      </trkpt>
      <trkpt lat="47.16563" lon="5.92846">
        <ele>266.3</ele>
        <time>2021-08-08T12:33:20Z</time>
      </trkpt>
      <trkpt lat="47.16566" lon="5.92841">
        <ele>266</ele>
        <time>2021-08-08T12:33:25Z</time>
      </trkpt>
      <trkpt lat="47.1657" lon="5.92837">
        <ele>265.6</ele>
        <time>2021-08-08T12:33:29Z</time>
      </trkpt>
      <trkpt lat="47.16571" lon="5.9283">
        <ele>258.4</ele>
        <time>2021-08-08T12:34:02Z</time>
      </trkpt>
      <trkpt lat="47.16574" lon="5.92824">
        <ele>257.1</ele>
        <time>2021-08-08T12:34:07Z</time>
      </trkpt>
      <trkpt lat="47.16578" lon="5.92819">
        <ele>256.3</ele>
        <time>2021-08-08T12:34:12Z</time>
      </trkpt>
      <trkpt lat="47.1658" lon="5.92813">
        <ele>256.4</ele>
        <time>2021-08-08T12:34:20Z</time>
      </trkpt>
      <trkpt lat="47.1658" lon="5.92806">
        <ele>256.9</ele>
        <time>2021-08-08T12:34:27Z</time>
      </trkpt>
      <trkpt lat="47.16582" lon="5.92799">
        <ele>256.9</ele>
        <time>2021-08-08T12:34:33Z</time>
      </trkpt>
      <trkpt lat="47.16581" lon="5.92792">
        <ele>256.3</ele>
        <time>2021-08-08T12:34:40Z</time>
      </trkpt>
      <trkpt lat="47.16578" lon="5.92787">
        <ele>255.1</ele>
        <time>2021-08-08T12:34:47Z</time>
      </trkpt>
      <trkpt lat="47.16579" lon="5.9278">
        <ele>253.7</ele>
        <time>2021-08-08T12:34:57Z</time>
      </trkpt>
      <trkpt lat="47.16582" lon="5.92773">
        <ele>253.3</ele>
        <time>2021-08-08T12:35:02Z</time>
      </trkpt>
      <trkpt lat="47.16581" lon="5.92767">
        <ele>252.9</ele>
        <time>2021-08-08T12:35:07Z</time>
      </trkpt>
      <trkpt lat="47.16581" lon="5.9276">
        <ele>251.9</ele>
        <time>2021-08-08T12:35:14Z</time>
      </trkpt>
      <trkpt lat="47.16584" lon="5.92754">
        <ele>250.8</ele>
        <time>2021-08-08T12:35:20Z</time>
      </trkpt>
      <trkpt lat="47.16585" lon="5.92747">
        <ele>249.6</ele>
        <time>2021-08-08T12:35:26Z</time>
      </trkpt>
      <trkpt lat="47.16584" lon="5.9274">
        <ele>249.2</ele>
        <time>2021-08-08T12:35:33Z</time>
      </trkpt>
      <trkpt lat="47.16585" lon="5.92733">
        <ele>249.4</ele>
        <time>2021-08-08T12:35:36Z</time>
      </trkpt>
      <trkpt lat="47.16585" lon="5.92726">
        <ele>249.8</ele>
        <time>2021-08-08T12:35:40Z</time>
      </trkpt>
      <trkpt lat="47.16586" lon="5.92719">
        <ele>249.9</ele>
        <time>2021-08-08T12:35:45Z</time>
      </trkpt>
      <trkpt lat="47.16587" lon="5.92712">
        <ele>250.1</ele>
        <time>2021-08-08T12:35:50Z</time>
      </trkpt>
      <trkpt lat="47.16589" lon="5.92706">
        <ele>250</ele>
        <time>2021-08-08T12:35:55Z</time>
      </trkpt>
      <trkpt lat="47.16591" lon="5.927">
        <ele>249.5</ele>
        <time>2021-08-08T12:36:00Z</time>
      </trkpt>
      <trkpt lat="47.16593" lon="5.92693">
        <ele>248.7</ele>
        <time>2021-08-08T12:36:05Z</time>
      </trkpt>
      <trkpt lat="47.16596" lon="5.92688">
        <ele>247.7</ele>
        <time>2021-08-08T12:36:11Z</time>
      </trkpt>
      <trkpt lat="47.16599" lon="5.92683">
        <ele>246.2</ele>
        <time>2021-08-08T12:36:17Z</time>
      </trkpt>
      <trkpt lat="47.16603" lon="5.92677">
        <ele>245.4</ele>
        <time>2021-08-08T12:36:23Z</time>
      </trkpt>
      <trkpt lat="47.16607" lon="5.92672">
        <ele>245.3</ele>
        <time>2021-08-08T12:36:27Z</time>
      </trkpt>
      <trkpt lat="47.16609" lon="5.92666">
        <ele>245.1</ele>
        <time>2021-08-08T12:36:34Z</time>
      </trkpt>
      <trkpt lat="47.16613" lon="5.9266">
        <ele>243.9</ele>
        <time>2021-08-08T12:36:41Z</time>
      </trkpt>
      <trkpt lat="47.16614" lon="5.92653">
        <ele>242.9</ele>
        <time>2021-08-08T12:36:48Z</time>
      </trkpt>
      <trkpt lat="47.16614" lon="5.92646">
        <ele>243.6</ele>
        <time>2021-08-08T12:36:58Z</time>
      </trkpt>
      <trkpt lat="47.16614" lon="5.92639">
        <ele>244.1</ele>
        <time>2021-08-08T12:37:09Z</time>
      </trkpt>
      <trkpt lat="47.16612" lon="5.92633">
        <ele>245.8</ele>
        <time>2021-08-08T12:37:32Z</time>
      </trkpt>
      <trkpt lat="47.16616" lon="5.92634">
        <ele>250.3</ele>
        <time>2021-08-08T12:37:59Z</time>
      </trkpt>
      <trkpt lat="47.16616" lon="5.92643">
        <ele>249.3</ele>
        <time>2021-08-08T12:39:35Z</time>
      </trkpt>
      <trkpt lat="47.16622" lon="5.92644">
        <ele>255.4</ele>
        <time>2021-08-08T12:41:08Z</time>
      </trkpt>
      <trkpt lat="47.16627" lon="5.92644">
        <ele>254.3</ele>
        <time>2021-08-08T12:41:13Z</time>
      </trkpt>
      <trkpt lat="47.16625" lon="5.92637">
        <ele>252</ele>
        <time>2021-08-08T12:41:40Z</time>
      </trkpt>
      <trkpt lat="47.16629" lon="5.92634">
        <ele>246.9</ele>
        <time>2021-08-08T12:42:02Z</time>
      </trkpt>
      <trkpt lat="47.16634" lon="5.92632">
        <ele>245.1</ele>
        <time>2021-08-08T12:42:08Z</time>
      </trkpt>
      <trkpt lat="47.16639" lon="5.92629">
        <ele>244.3</ele>
        <time>2021-08-08T12:42:13Z</time>
      </trkpt>
      <trkpt lat="47.16643" lon="5.92623">
        <ele>243.7</ele>
        <time>2021-08-08T12:42:17Z</time>
      </trkpt>
      <trkpt lat="47.16647" lon="5.92621">
        <ele>242.1</ele>
        <time>2021-08-08T12:42:22Z</time>
      </trkpt>
      <trkpt lat="47.16651" lon="5.92619">
        <ele>240.2</ele>
        <time>2021-08-08T12:42:27Z</time>
      </trkpt>
      <trkpt lat="47.16655" lon="5.92613">
        <ele>237.7</ele>
        <time>2021-08-08T12:42:34Z</time>
      </trkpt>
      <trkpt lat="47.16658" lon="5.92609">
        <ele>236.2</ele>
        <time>2021-08-08T12:42:39Z</time>
      </trkpt>
      <trkpt lat="47.1666" lon="5.92602">
        <ele>235.1</ele>
        <time>2021-08-08T12:42:47Z</time>
      </trkpt>
      <trkpt lat="47.16661" lon="5.92595">
        <ele>234.8</ele>
        <time>2021-08-08T12:42:51Z</time>
      </trkpt>
      <trkpt lat="47.16664" lon="5.92589">
        <ele>234.4</ele>
        <time>2021-08-08T12:42:57Z</time>
      </trkpt>
      <trkpt lat="47.16665" lon="5.92582">
        <ele>233.5</ele>
        <time>2021-08-08T12:43:02Z</time>
      </trkpt>
      <trkpt lat="47.16667" lon="5.92575">
        <ele>233.1</ele>
        <time>2021-08-08T12:43:06Z</time>
      </trkpt>
      <trkpt lat="47.16669" lon="5.9257">
        <ele>233.2</ele>
        <time>2021-08-08T12:43:10Z</time>
      </trkpt>
      <trkpt lat="47.16673" lon="5.92565">
        <ele>233</ele>
        <time>2021-08-08T12:43:14Z</time>
      </trkpt>
      <trkpt lat="47.16677" lon="5.9256">
        <ele>232.9</ele>
        <time>2021-08-08T12:43:17Z</time>
      </trkpt>
      <trkpt lat="47.16678" lon="5.92552">
        <ele>232.5</ele>
        <time>2021-08-08T12:43:22Z</time>
      </trkpt>
      <trkpt lat="47.16676" lon="5.92545">
        <ele>231.8</ele>
        <time>2021-08-08T12:43:26Z</time>
      </trkpt>
      <trkpt lat="47.16677" lon="5.92537">
        <ele>231.4</ele>
        <time>2021-08-08T12:43:31Z</time>
      </trkpt>
      <trkpt lat="47.1668" lon="5.92529">
        <ele>231.1</ele>
        <time>2021-08-08T12:43:36Z</time>
      </trkpt>
      <trkpt lat="47.16683" lon="5.92524">
        <ele>231.2</ele>
        <time>2021-08-08T12:43:40Z</time>
      </trkpt>
      <trkpt lat="47.16689" lon="5.92521">
        <ele>231.7</ele>
        <time>2021-08-08T12:43:44Z</time>
      </trkpt>
      <trkpt lat="47.16694" lon="5.92518">
        <ele>232.4</ele>
        <time>2021-08-08T12:43:47Z</time>
      </trkpt>
      <trkpt lat="47.16699" lon="5.92516">
        <ele>232.9</ele>
        <time>2021-08-08T12:43:50Z</time>
      </trkpt>
      <trkpt lat="47.16703" lon="5.9251">
        <ele>233</ele>
        <time>2021-08-08T12:43:54Z</time>
      </trkpt>
      <trkpt lat="47.16706" lon="5.92504">
        <ele>232.3</ele>
        <time>2021-08-08T12:43:59Z</time>
      </trkpt>
      <trkpt lat="47.16711" lon="5.925">
        <ele>232.3</ele>
        <time>2021-08-08T12:44:05Z</time>
      </trkpt>
      <trkpt lat="47.16716" lon="5.92498">
        <ele>233.2</ele>
        <time>2021-08-08T12:44:10Z</time>
      </trkpt>
      <trkpt lat="47.16721" lon="5.92494">
        <ele>233.9</ele>
        <time>2021-08-08T12:44:14Z</time>
      </trkpt>
      <trkpt lat="47.16725" lon="5.92491">
        <ele>234.5</ele>
        <time>2021-08-08T12:44:18Z</time>
      </trkpt>
      <trkpt lat="47.16729" lon="5.92487">
        <ele>234.3</ele>
        <time>2021-08-08T12:44:23Z</time>
      </trkpt>
      <trkpt lat="47.16734" lon="5.92485">
        <ele>233.8</ele>
        <time>2021-08-08T12:44:26Z</time>
      </trkpt>
      <trkpt lat="47.16739" lon="5.92483">
        <ele>233.7</ele>
        <time>2021-08-08T12:44:29Z</time>
      </trkpt>
      <trkpt lat="47.16743" lon="5.9248">
        <ele>234.3</ele>
        <time>2021-08-08T12:44:32Z</time>
      </trkpt>
      <trkpt lat="47.16747" lon="5.92476">
        <ele>234.6</ele>
        <time>2021-08-08T12:44:36Z</time>
      </trkpt>
      <trkpt lat="47.16752" lon="5.92471">
        <ele>235.5</ele>
        <time>2021-08-08T12:44:40Z</time>
      </trkpt>
      <trkpt lat="47.16757" lon="5.92468">
        <ele>236.4</ele>
        <time>2021-08-08T12:44:43Z</time>
      </trkpt>
      <trkpt lat="47.16761" lon="5.92464">
        <ele>237.4</ele>
        <time>2021-08-08T12:44:47Z</time>
      </trkpt>
      <trkpt lat="47.16764" lon="5.92459">
        <ele>238.2</ele>
        <time>2021-08-08T12:44:51Z</time>
      </trkpt>
      <trkpt lat="47.16767" lon="5.92455">
        <ele>238.9</ele>
        <time>2021-08-08T12:44:55Z</time>
      </trkpt>
      <trkpt lat="47.1677" lon="5.92449">
        <ele>239.2</ele>
        <time>2021-08-08T12:44:58Z</time>
      </trkpt>
      <trkpt lat="47.16771" lon="5.92443">
        <ele>240</ele>
        <time>2021-08-08T12:45:03Z</time>
      </trkpt>
      <trkpt lat="47.16773" lon="5.92437">
        <ele>240.3</ele>
        <time>2021-08-08T12:45:07Z</time>
      </trkpt>
      <trkpt lat="47.16777" lon="5.9243">
        <ele>240.5</ele>
        <time>2021-08-08T12:45:11Z</time>
      </trkpt>
      <trkpt lat="47.1678" lon="5.92424">
        <ele>240.6</ele>
        <time>2021-08-08T12:45:15Z</time>
      </trkpt>
      <trkpt lat="47.16783" lon="5.92418">
        <ele>240.4</ele>
        <time>2021-08-08T12:45:19Z</time>
      </trkpt>
      <trkpt lat="47.16787" lon="5.92413">
        <ele>239.5</ele>
        <time>2021-08-08T12:45:24Z</time>
      </trkpt>
      <trkpt lat="47.1679" lon="5.92407">
        <ele>238.9</ele>
        <time>2021-08-08T12:45:29Z</time>
      </trkpt>
      <trkpt lat="47.16792" lon="5.92399">
        <ele>238.1</ele>
        <time>2021-08-08T12:45:33Z</time>
      </trkpt>
      <trkpt lat="47.16795" lon="5.92394">
        <ele>237.9</ele>
        <time>2021-08-08T12:45:37Z</time>
      </trkpt>
      <trkpt lat="47.16798" lon="5.92387">
        <ele>237.2</ele>
        <time>2021-08-08T12:45:42Z</time>
      </trkpt>
      <trkpt lat="47.168" lon="5.92379">
        <ele>236</ele>
        <time>2021-08-08T12:45:47Z</time>
      </trkpt>
      <trkpt lat="47.16801" lon="5.92373">
        <ele>235.5</ele>
        <time>2021-08-08T12:45:50Z</time>
      </trkpt>
      <trkpt lat="47.16803" lon="5.92365">
        <ele>234.9</ele>
        <time>2021-08-08T12:45:55Z</time>
      </trkpt>
      <trkpt lat="47.16805" lon="5.92359">
        <ele>234.4</ele>
        <time>2021-08-08T12:46:00Z</time>
      </trkpt>
      <trkpt lat="47.16807" lon="5.92352">
        <ele>234</ele>
        <time>2021-08-08T12:46:05Z</time>
      </trkpt>
      <trkpt lat="47.1681" lon="5.92344">
        <ele>234</ele>
        <time>2021-08-08T12:46:09Z</time>
      </trkpt>
      <trkpt lat="47.16813" lon="5.92338">
        <ele>234</ele>
        <time>2021-08-08T12:46:13Z</time>
      </trkpt>
      <trkpt lat="47.16816" lon="5.92331">
        <ele>234.1</ele>
        <time>2021-08-08T12:46:17Z</time>
      </trkpt>
      <trkpt lat="47.16817" lon="5.92324">
        <ele>234.4</ele>
        <time>2021-08-08T12:46:20Z</time>
      </trkpt>
      <trkpt lat="47.16818" lon="5.92317">
        <ele>234.7</ele>
        <time>2021-08-08T12:46:24Z</time>
      </trkpt>
      <trkpt lat="47.1682" lon="5.92309">
        <ele>234.7</ele>
        <time>2021-08-08T12:46:28Z</time>
      </trkpt>
      <trkpt lat="47.16823" lon="5.92303">
        <ele>235</ele>
        <time>2021-08-08T12:46:32Z</time>
      </trkpt>
      <trkpt lat="47.16825" lon="5.92295">
        <ele>235.3</ele>
        <time>2021-08-08T12:46:37Z</time>
      </trkpt>
      <trkpt lat="47.16827" lon="5.92287">
        <ele>235.6</ele>
        <time>2021-08-08T12:46:41Z</time>
      </trkpt>
      <trkpt lat="47.16831" lon="5.92281">
        <ele>234.9</ele>
        <time>2021-08-08T12:46:46Z</time>
      </trkpt>
      <trkpt lat="47.16833" lon="5.92275">
        <ele>233.8</ele>
        <time>2021-08-08T12:46:51Z</time>
      </trkpt>
      <trkpt lat="47.16836" lon="5.92268">
        <ele>232.8</ele>
        <time>2021-08-08T12:46:55Z</time>
      </trkpt>
      <trkpt lat="47.16838" lon="5.92261">
        <ele>232.2</ele>
        <time>2021-08-08T12:46:59Z</time>
      </trkpt>
      <trkpt lat="47.16841" lon="5.92255">
        <ele>231.5</ele>
        <time>2021-08-08T12:47:03Z</time>
      </trkpt>
      <trkpt lat="47.16843" lon="5.92249">
        <ele>230.7</ele>
        <time>2021-08-08T12:47:07Z</time>
      </trkpt>
      <trkpt lat="47.16845" lon="5.92241">
        <ele>229.7</ele>
        <time>2021-08-08T12:47:12Z</time>
      </trkpt>
      <trkpt lat="47.16847" lon="5.92234">
        <ele>229.2</ele>
        <time>2021-08-08T12:47:16Z</time>
      </trkpt>
      <trkpt lat="47.16849" lon="5.92227">
        <ele>229.2</ele>
        <time>2021-08-08T12:47:20Z</time>
      </trkpt>
      <trkpt lat="47.16851" lon="5.92221">
        <ele>229.2</ele>
        <time>2021-08-08T12:47:24Z</time>
      </trkpt>
      <trkpt lat="47.16853" lon="5.92215">
        <ele>229.3</ele>
        <time>2021-08-08T12:47:28Z</time>
      </trkpt>
      <trkpt lat="47.16855" lon="5.92208">
        <ele>229.4</ele>
        <time>2021-08-08T12:47:32Z</time>
      </trkpt>
      <trkpt lat="47.16857" lon="5.92201">
        <ele>229.6</ele>
        <time>2021-08-08T12:47:36Z</time>
      </trkpt>
      <trkpt lat="47.1686" lon="5.92195">
        <ele>230</ele>
        <time>2021-08-08T12:47:40Z</time>
      </trkpt>
      <trkpt lat="47.16861" lon="5.92187">
        <ele>230.1</ele>
        <time>2021-08-08T12:47:44Z</time>
      </trkpt>
      <trkpt lat="47.16862" lon="5.9218">
        <ele>230</ele>
        <time>2021-08-08T12:47:48Z</time>
      </trkpt>
      <trkpt lat="47.16864" lon="5.92173">
        <ele>229.9</ele>
        <time>2021-08-08T12:47:52Z</time>
      </trkpt>
      <trkpt lat="47.16866" lon="5.92166">
        <ele>229.9</ele>
        <time>2021-08-08T12:47:56Z</time>
      </trkpt>
      <trkpt lat="47.16868" lon="5.92159">
        <ele>229.6</ele>
        <time>2021-08-08T12:48:00Z</time>
      </trkpt>
      <trkpt lat="47.16869" lon="5.92153">
        <ele>228.8</ele>
        <time>2021-08-08T12:48:04Z</time>
      </trkpt>
      <trkpt lat="47.16871" lon="5.92145">
        <ele>228.1</ele>
        <time>2021-08-08T12:48:08Z</time>
      </trkpt>
      <trkpt lat="47.16874" lon="5.92139">
        <ele>227.6</ele>
        <time>2021-08-08T12:48:12Z</time>
      </trkpt>
      <trkpt lat="47.16877" lon="5.92134">
        <ele>227.2</ele>
        <time>2021-08-08T12:48:16Z</time>
      </trkpt>
      <trkpt lat="47.1688" lon="5.92127">
        <ele>227.2</ele>
        <time>2021-08-08T12:48:20Z</time>
      </trkpt>
      <trkpt lat="47.16882" lon="5.9212">
        <ele>227.5</ele>
        <time>2021-08-08T12:48:24Z</time>
      </trkpt>
      <trkpt lat="47.16884" lon="5.92113">
        <ele>227.8</ele>
        <time>2021-08-08T12:48:28Z</time>
      </trkpt>
      <trkpt lat="47.16887" lon="5.92107">
        <ele>228.4</ele>
        <time>2021-08-08T12:48:32Z</time>
      </trkpt>
      <trkpt lat="47.1689" lon="5.92103">
        <ele>229.1</ele>
        <time>2021-08-08T12:48:36Z</time>
      </trkpt>
      <trkpt lat="47.16893" lon="5.92098">
        <ele>229.8</ele>
        <time>2021-08-08T12:48:40Z</time>
      </trkpt>
      <trkpt lat="47.16898" lon="5.92093">
        <ele>230.4</ele>
        <time>2021-08-08T12:48:44Z</time>
      </trkpt>
      <trkpt lat="47.16901" lon="5.92088">
        <ele>230.3</ele>
        <time>2021-08-08T12:48:48Z</time>
      </trkpt>
      <trkpt lat="47.16904" lon="5.92082">
        <ele>230.2</ele>
        <time>2021-08-08T12:48:52Z</time>
      </trkpt>
      <trkpt lat="47.16908" lon="5.92077">
        <ele>229.6</ele>
        <time>2021-08-08T12:48:56Z</time>
      </trkpt>
      <trkpt lat="47.16911" lon="5.92072">
        <ele>229</ele>
        <time>2021-08-08T12:49:00Z</time>
      </trkpt>
      <trkpt lat="47.16916" lon="5.92068">
        <ele>228.4</ele>
        <time>2021-08-08T12:49:05Z</time>
      </trkpt>
      <trkpt lat="47.1692" lon="5.92064">
        <ele>227.8</ele>
        <time>2021-08-08T12:49:10Z</time>
      </trkpt>
      <trkpt lat="47.16924" lon="5.92059">
        <ele>227.3</ele>
        <time>2021-08-08T12:49:15Z</time>
      </trkpt>
      <trkpt lat="47.16927" lon="5.92054">
        <ele>227.4</ele>
        <time>2021-08-08T12:49:19Z</time>
      </trkpt>
      <trkpt lat="47.16932" lon="5.9205">
        <ele>228</ele>
        <time>2021-08-08T12:49:23Z</time>
      </trkpt>
      <trkpt lat="47.16938" lon="5.92049">
        <ele>229.4</ele>
        <time>2021-08-08T12:49:27Z</time>
      </trkpt>
      <trkpt lat="47.16943" lon="5.92047">
        <ele>230.8</ele>
        <time>2021-08-08T12:49:31Z</time>
      </trkpt>
      <trkpt lat="47.16948" lon="5.92045">
        <ele>231.5</ele>
        <time>2021-08-08T12:49:35Z</time>
      </trkpt>
      <trkpt lat="47.16953" lon="5.92045">
        <ele>231.5</ele>
        <time>2021-08-08T12:49:39Z</time>
      </trkpt>
      <trkpt lat="47.16958" lon="5.92044">
        <ele>230.8</ele>
        <time>2021-08-08T12:49:44Z</time>
      </trkpt>
      <trkpt lat="47.16963" lon="5.92043">
        <ele>230.2</ele>
        <time>2021-08-08T12:49:49Z</time>
      </trkpt>
      <trkpt lat="47.16968" lon="5.9204">
        <ele>229.6</ele>
        <time>2021-08-08T12:49:53Z</time>
      </trkpt>
      <trkpt lat="47.16973" lon="5.92039">
        <ele>229.1</ele>
        <time>2021-08-08T12:49:56Z</time>
      </trkpt>
      <trkpt lat="47.16978" lon="5.92039">
        <ele>229.1</ele>
        <time>2021-08-08T12:50:01Z</time>
      </trkpt>
      <trkpt lat="47.16983" lon="5.92039">
        <ele>229.3</ele>
        <time>2021-08-08T12:50:04Z</time>
      </trkpt>
      <trkpt lat="47.16988" lon="5.92038">
        <ele>229.6</ele>
        <time>2021-08-08T12:50:07Z</time>
      </trkpt>
      <trkpt lat="47.16993" lon="5.92038">
        <ele>230.5</ele>
        <time>2021-08-08T12:50:12Z</time>
      </trkpt>
      <trkpt lat="47.16998" lon="5.92035">
        <ele>230.9</ele>
        <time>2021-08-08T12:50:16Z</time>
      </trkpt>
      <trkpt lat="47.17003" lon="5.92033">
        <ele>231.1</ele>
        <time>2021-08-08T12:50:19Z</time>
      </trkpt>
      <trkpt lat="47.17007" lon="5.92031">
        <ele>231.6</ele>
        <time>2021-08-08T12:50:22Z</time>
      </trkpt>
      <trkpt lat="47.17012" lon="5.92029">
        <ele>232.2</ele>
        <time>2021-08-08T12:50:25Z</time>
      </trkpt>
      <trkpt lat="47.17017" lon="5.92027">
        <ele>233.1</ele>
        <time>2021-08-08T12:50:29Z</time>
      </trkpt>
      <trkpt lat="47.17022" lon="5.92025">
        <ele>234.2</ele>
        <time>2021-08-08T12:50:34Z</time>
      </trkpt>
      <trkpt lat="47.17027" lon="5.92024">
        <ele>234.4</ele>
        <time>2021-08-08T12:50:40Z</time>
      </trkpt>
      <trkpt lat="47.17032" lon="5.92024">
        <ele>233.6</ele>
        <time>2021-08-08T12:50:46Z</time>
      </trkpt>
      <trkpt lat="47.17037" lon="5.92022">
        <ele>233.1</ele>
        <time>2021-08-08T12:50:49Z</time>
      </trkpt>
      <trkpt lat="47.17042" lon="5.92021">
        <ele>232.8</ele>
        <time>2021-08-08T12:50:53Z</time>
      </trkpt>
      <trkpt lat="47.17046" lon="5.92019">
        <ele>232.8</ele>
        <time>2021-08-08T12:50:58Z</time>
      </trkpt>
      <trkpt lat="47.17051" lon="5.92016">
        <ele>233.2</ele>
        <time>2021-08-08T12:51:02Z</time>
      </trkpt>
      <trkpt lat="47.17056" lon="5.92013">
        <ele>233.7</ele>
        <time>2021-08-08T12:51:06Z</time>
      </trkpt>
      <trkpt lat="47.1706" lon="5.9201">
        <ele>234.4</ele>
        <time>2021-08-08T12:51:10Z</time>
      </trkpt>
      <trkpt lat="47.17063" lon="5.92005">
        <ele>234.8</ele>
        <time>2021-08-08T12:51:17Z</time>
      </trkpt>
      <trkpt lat="47.17063" lon="5.91999">
        <ele>232.8</ele>
        <time>2021-08-08T12:52:21Z</time>
      </trkpt>
      <trkpt lat="47.17061" lon="5.92006">
        <ele>232.5</ele>
        <time>2021-08-08T12:53:37Z</time>
      </trkpt>
      <trkpt lat="47.17061" lon="5.91999">
        <ele>233.4</ele>
        <time>2021-08-08T12:53:53Z</time>
      </trkpt>
      <trkpt lat="47.17063" lon="5.91992">
        <ele>233.1</ele>
        <time>2021-08-08T12:53:57Z</time>
      </trkpt>
      <trkpt lat="47.17063" lon="5.91985">
        <ele>233.1</ele>
        <time>2021-08-08T12:54:02Z</time>
      </trkpt>
      <trkpt lat="47.17064" lon="5.91977">
        <ele>233</ele>
        <time>2021-08-08T12:54:07Z</time>
      </trkpt>
      <trkpt lat="47.17064" lon="5.91969">
        <ele>232.8</ele>
        <time>2021-08-08T12:54:12Z</time>
      </trkpt>
      <trkpt lat="47.17064" lon="5.91962">
        <ele>232.8</ele>
        <time>2021-08-08T12:54:16Z</time>
      </trkpt>
      <trkpt lat="47.17065" lon="5.91954">
        <ele>233</ele>
        <time>2021-08-08T12:54:21Z</time>
      </trkpt>
      <trkpt lat="47.17066" lon="5.91947">
        <ele>232.6</ele>
        <time>2021-08-08T12:54:27Z</time>
      </trkpt>
      <trkpt lat="47.17066" lon="5.91939">
        <ele>231.7</ele>
        <time>2021-08-08T12:54:32Z</time>
      </trkpt>
      <trkpt lat="47.17066" lon="5.91931">
        <ele>231.6</ele>
        <time>2021-08-08T12:54:36Z</time>
      </trkpt>
      <trkpt lat="47.17066" lon="5.91923">
        <ele>231.4</ele>
        <time>2021-08-08T12:54:40Z</time>
      </trkpt>
      <trkpt lat="47.17066" lon="5.91916">
        <ele>231.2</ele>
        <time>2021-08-08T12:54:44Z</time>
      </trkpt>
      <trkpt lat="47.17067" lon="5.91909">
        <ele>230.6</ele>
        <time>2021-08-08T12:54:49Z</time>
      </trkpt>
      <trkpt lat="47.17068" lon="5.91901">
        <ele>230.1</ele>
        <time>2021-08-08T12:54:54Z</time>
      </trkpt>
      <trkpt lat="47.17068" lon="5.91894">
        <ele>230</ele>
        <time>2021-08-08T12:54:58Z</time>
      </trkpt>
      <trkpt lat="47.17068" lon="5.91886">
        <ele>229.9</ele>
        <time>2021-08-08T12:55:03Z</time>
      </trkpt>
      <trkpt lat="47.17068" lon="5.91878">
        <ele>230.1</ele>
        <time>2021-08-08T12:55:08Z</time>
      </trkpt>
      <trkpt lat="47.17068" lon="5.91871">
        <ele>230.1</ele>
        <time>2021-08-08T12:55:12Z</time>
      </trkpt>
      <trkpt lat="47.17068" lon="5.91863">
        <ele>230.3</ele>
        <time>2021-08-08T12:55:16Z</time>
      </trkpt>
      <trkpt lat="47.17067" lon="5.91855">
        <ele>230.4</ele>
        <time>2021-08-08T12:55:20Z</time>
      </trkpt>
      <trkpt lat="47.17067" lon="5.91848">
        <ele>230.5</ele>
        <time>2021-08-08T12:55:24Z</time>
      </trkpt>
      <trkpt lat="47.17066" lon="5.9184">
        <ele>230.6</ele>
        <time>2021-08-08T12:55:28Z</time>
      </trkpt>
      <trkpt lat="47.17065" lon="5.91831">
        <ele>231.2</ele>
        <time>2021-08-08T12:55:32Z</time>
      </trkpt>
      <trkpt lat="47.17064" lon="5.9182">
        <ele>232</ele>
        <time>2021-08-08T12:55:35Z</time>
      </trkpt>
      <trkpt lat="47.17068" lon="5.91815">
        <ele>238.1</ele>
        <time>2021-08-08T12:55:42Z</time>
      </trkpt>
      <trkpt lat="47.17068" lon="5.91808">
        <ele>241.6</ele>
        <time>2021-08-08T12:55:46Z</time>
      </trkpt>
      <trkpt lat="47.17069" lon="5.91801">
        <ele>246.4</ele>
        <time>2021-08-08T12:55:52Z</time>
      </trkpt>
      <trkpt lat="47.17069" lon="5.91794">
        <ele>246</ele>
        <time>2021-08-08T12:55:56Z</time>
      </trkpt>
      <trkpt lat="47.17067" lon="5.91786">
        <ele>243.2</ele>
        <time>2021-08-08T12:56:00Z</time>
      </trkpt>
      <trkpt lat="47.17066" lon="5.91779">
        <ele>240.5</ele>
        <time>2021-08-08T12:56:04Z</time>
      </trkpt>
      <trkpt lat="47.17065" lon="5.91772">
        <ele>238.5</ele>
        <time>2021-08-08T12:56:08Z</time>
      </trkpt>
      <trkpt lat="47.17064" lon="5.91764">
        <ele>236.8</ele>
        <time>2021-08-08T12:56:13Z</time>
      </trkpt>
      <trkpt lat="47.17063" lon="5.91756">
        <ele>235.7</ele>
        <time>2021-08-08T12:56:18Z</time>
      </trkpt>
      <trkpt lat="47.17061" lon="5.91748">
        <ele>234.5</ele>
        <time>2021-08-08T12:56:23Z</time>
      </trkpt>
      <trkpt lat="47.17059" lon="5.91741">
        <ele>233</ele>
        <time>2021-08-08T12:56:28Z</time>
      </trkpt>
      <trkpt lat="47.17057" lon="5.91734">
        <ele>232.1</ele>
        <time>2021-08-08T12:56:32Z</time>
      </trkpt>
      <trkpt lat="47.17055" lon="5.91728">
        <ele>231.3</ele>
        <time>2021-08-08T12:56:36Z</time>
      </trkpt>
      <trkpt lat="47.17054" lon="5.9172">
        <ele>230.6</ele>
        <time>2021-08-08T12:56:40Z</time>
      </trkpt>
      <trkpt lat="47.17052" lon="5.91713">
        <ele>229.9</ele>
        <time>2021-08-08T12:56:44Z</time>
      </trkpt>
      <trkpt lat="47.1705" lon="5.91707">
        <ele>228.5</ele>
        <time>2021-08-08T12:56:49Z</time>
      </trkpt>
      <trkpt lat="47.17049" lon="5.91699">
        <ele>227</ele>
        <time>2021-08-08T12:56:54Z</time>
      </trkpt>
      <trkpt lat="47.17047" lon="5.91692">
        <ele>226.2</ele>
        <time>2021-08-08T12:56:58Z</time>
      </trkpt>
      <trkpt lat="47.17045" lon="5.91686">
        <ele>225.8</ele>
        <time>2021-08-08T12:57:02Z</time>
      </trkpt>
      <trkpt lat="47.17045" lon="5.91678">
        <ele>225.9</ele>
        <time>2021-08-08T12:57:07Z</time>
      </trkpt>
      <trkpt lat="47.17043" lon="5.91672">
        <ele>226</ele>
        <time>2021-08-08T12:57:11Z</time>
      </trkpt>
      <trkpt lat="47.17041" lon="5.91665">
        <ele>226.2</ele>
        <time>2021-08-08T12:57:15Z</time>
      </trkpt>
      <trkpt lat="47.1704" lon="5.91658">
        <ele>226.6</ele>
        <time>2021-08-08T12:57:19Z</time>
      </trkpt>
      <trkpt lat="47.17038" lon="5.9165">
        <ele>226.7</ele>
        <time>2021-08-08T12:57:23Z</time>
      </trkpt>
      <trkpt lat="47.17036" lon="5.91642">
        <ele>226.4</ele>
        <time>2021-08-08T12:57:27Z</time>
      </trkpt>
      <trkpt lat="47.17034" lon="5.91635">
        <ele>225.8</ele>
        <time>2021-08-08T12:57:31Z</time>
      </trkpt>
      <trkpt lat="47.17032" lon="5.91628">
        <ele>225.8</ele>
        <time>2021-08-08T12:57:35Z</time>
      </trkpt>
      <trkpt lat="47.1703" lon="5.91621">
        <ele>226.2</ele>
        <time>2021-08-08T12:57:39Z</time>
      </trkpt>
      <trkpt lat="47.17027" lon="5.91615">
        <ele>227</ele>
        <time>2021-08-08T12:57:43Z</time>
      </trkpt>
      <trkpt lat="47.17025" lon="5.91609">
        <ele>227.5</ele>
        <time>2021-08-08T12:57:47Z</time>
      </trkpt>
      <trkpt lat="47.17024" lon="5.91601">
        <ele>227.8</ele>
        <time>2021-08-08T12:57:51Z</time>
      </trkpt>
      <trkpt lat="47.17021" lon="5.91595">
        <ele>228</ele>
        <time>2021-08-08T12:57:55Z</time>
      </trkpt>
      <trkpt lat="47.17019" lon="5.91589">
        <ele>228.5</ele>
        <time>2021-08-08T12:57:59Z</time>
      </trkpt>
      <trkpt lat="47.17018" lon="5.91582">
        <ele>229</ele>
        <time>2021-08-08T12:58:04Z</time>
      </trkpt>
      <trkpt lat="47.17016" lon="5.91576">
        <ele>229.1</ele>
        <time>2021-08-08T12:58:08Z</time>
      </trkpt>
      <trkpt lat="47.17013" lon="5.91568">
        <ele>229.5</ele>
        <time>2021-08-08T12:58:12Z</time>
      </trkpt>
      <trkpt lat="47.17011" lon="5.9156">
        <ele>230.2</ele>
        <time>2021-08-08T12:58:16Z</time>
      </trkpt>
      <trkpt lat="47.17009" lon="5.91553">
        <ele>230.9</ele>
        <time>2021-08-08T12:58:20Z</time>
      </trkpt>
      <trkpt lat="47.17007" lon="5.91546">
        <ele>231.2</ele>
        <time>2021-08-08T12:58:25Z</time>
      </trkpt>
      <trkpt lat="47.17006" lon="5.91538">
        <ele>231.2</ele>
        <time>2021-08-08T12:58:30Z</time>
      </trkpt>
      <trkpt lat="47.17004" lon="5.9153">
        <ele>231.2</ele>
        <time>2021-08-08T12:58:34Z</time>
      </trkpt>
      <trkpt lat="47.17002" lon="5.91522">
        <ele>231.5</ele>
        <time>2021-08-08T12:58:38Z</time>
      </trkpt>
      <trkpt lat="47.17" lon="5.91516">
        <ele>231.7</ele>
        <time>2021-08-08T12:58:42Z</time>
      </trkpt>
      <trkpt lat="47.16997" lon="5.91509">
        <ele>232.2</ele>
        <time>2021-08-08T12:58:47Z</time>
      </trkpt>
      <trkpt lat="47.16995" lon="5.91503">
        <ele>232.9</ele>
        <time>2021-08-08T12:58:52Z</time>
      </trkpt>
      <trkpt lat="47.16993" lon="5.91496">
        <ele>233.9</ele>
        <time>2021-08-08T12:58:58Z</time>
      </trkpt>
      <trkpt lat="47.16991" lon="5.91488">
        <ele>235.1</ele>
        <time>2021-08-08T12:59:04Z</time>
      </trkpt>
      <trkpt lat="47.1699" lon="5.91482">
        <ele>235.1</ele>
        <time>2021-08-08T12:59:09Z</time>
      </trkpt>
      <trkpt lat="47.16985" lon="5.91482">
        <ele>233.2</ele>
        <time>2021-08-08T12:59:37Z</time>
      </trkpt>
      <trkpt lat="47.16985" lon="5.91474">
        <ele>232.7</ele>
        <time>2021-08-08T12:59:54Z</time>
      </trkpt>
      <trkpt lat="47.16984" lon="5.91467">
        <ele>232.9</ele>
        <time>2021-08-08T12:59:58Z</time>
      </trkpt>
      <trkpt lat="47.16983" lon="5.91459">
        <ele>233.3</ele>
        <time>2021-08-08T13:00:02Z</time>
      </trkpt>
      <trkpt lat="47.16981" lon="5.91452">
        <ele>233.7</ele>
        <time>2021-08-08T13:00:06Z</time>
      </trkpt>
      <trkpt lat="47.16981" lon="5.91445">
        <ele>233.8</ele>
        <time>2021-08-08T13:00:10Z</time>
      </trkpt>
      <trkpt lat="47.1698" lon="5.91438">
        <ele>233.5</ele>
        <time>2021-08-08T13:00:15Z</time>
      </trkpt>
      <trkpt lat="47.1698" lon="5.91431">
        <ele>233.6</ele>
        <time>2021-08-08T13:00:20Z</time>
      </trkpt>
      <trkpt lat="47.16978" lon="5.91424">
        <ele>233.4</ele>
        <time>2021-08-08T13:00:25Z</time>
      </trkpt>
      <trkpt lat="47.16976" lon="5.91417">
        <ele>233.4</ele>
        <time>2021-08-08T13:00:30Z</time>
      </trkpt>
      <trkpt lat="47.16975" lon="5.9141">
        <ele>233.8</ele>
        <time>2021-08-08T13:00:34Z</time>
      </trkpt>
      <trkpt lat="47.16975" lon="5.91402">
        <ele>234.3</ele>
        <time>2021-08-08T13:00:38Z</time>
      </trkpt>
      <trkpt lat="47.16974" lon="5.91395">
        <ele>234.2</ele>
        <time>2021-08-08T13:00:43Z</time>
      </trkpt>
      <trkpt lat="47.16973" lon="5.91388">
        <ele>233.6</ele>
        <time>2021-08-08T13:00:49Z</time>
      </trkpt>
      <trkpt lat="47.1697" lon="5.91382">
        <ele>233.2</ele>
        <time>2021-08-08T13:00:55Z</time>
      </trkpt>
      <trkpt lat="47.16969" lon="5.91375">
        <ele>232.9</ele>
        <time>2021-08-08T13:00:59Z</time>
      </trkpt>
      <trkpt lat="47.16968" lon="5.91368">
        <ele>232.6</ele>
        <time>2021-08-08T13:01:04Z</time>
      </trkpt>
      <trkpt lat="47.16966" lon="5.9136">
        <ele>232.1</ele>
        <time>2021-08-08T13:01:09Z</time>
      </trkpt>
      <trkpt lat="47.16965" lon="5.91353">
        <ele>231.3</ele>
        <time>2021-08-08T13:01:12Z</time>
      </trkpt>
      <trkpt lat="47.16964" lon="5.91347">
        <ele>229.9</ele>
        <time>2021-08-08T13:01:16Z</time>
      </trkpt>
      <trkpt lat="47.16963" lon="5.91339">
        <ele>228.9</ele>
        <time>2021-08-08T13:01:20Z</time>
      </trkpt>
      <trkpt lat="47.16965" lon="5.91331">
        <ele>228.3</ele>
        <time>2021-08-08T13:01:25Z</time>
      </trkpt>
      <trkpt lat="47.16965" lon="5.91324">
        <ele>228.2</ele>
        <time>2021-08-08T13:01:29Z</time>
      </trkpt>
      <trkpt lat="47.16966" lon="5.91316">
        <ele>228</ele>
        <time>2021-08-08T13:01:33Z</time>
      </trkpt>
      <trkpt lat="47.16967" lon="5.91309">
        <ele>228.1</ele>
        <time>2021-08-08T13:01:38Z</time>
      </trkpt>
      <trkpt lat="47.16968" lon="5.91302">
        <ele>228.2</ele>
        <time>2021-08-08T13:01:44Z</time>
      </trkpt>
      <trkpt lat="47.16969" lon="5.91294">
        <ele>228.2</ele>
        <time>2021-08-08T13:01:49Z</time>
      </trkpt>
      <trkpt lat="47.16969" lon="5.91287">
        <ele>228.2</ele>
        <time>2021-08-08T13:01:53Z</time>
      </trkpt>
      <trkpt lat="47.16969" lon="5.91279">
        <ele>228.2</ele>
        <time>2021-08-08T13:01:57Z</time>
      </trkpt>
      <trkpt lat="47.16968" lon="5.91271">
        <ele>228.4</ele>
        <time>2021-08-08T13:02:01Z</time>
      </trkpt>
      <trkpt lat="47.16967" lon="5.91263">
        <ele>228.8</ele>
        <time>2021-08-08T13:02:05Z</time>
      </trkpt>
      <trkpt lat="47.16969" lon="5.91256">
        <ele>229</ele>
        <time>2021-08-08T13:02:09Z</time>
      </trkpt>
      <trkpt lat="47.16972" lon="5.91249">
        <ele>229.2</ele>
        <time>2021-08-08T13:02:13Z</time>
      </trkpt>
      <trkpt lat="47.16974" lon="5.91241">
        <ele>229.4</ele>
        <time>2021-08-08T13:02:18Z</time>
      </trkpt>
      <trkpt lat="47.16974" lon="5.91234">
        <ele>229.2</ele>
        <time>2021-08-08T13:02:24Z</time>
      </trkpt>
      <trkpt lat="47.16973" lon="5.91227">
        <ele>229.7</ele>
        <time>2021-08-08T13:02:43Z</time>
      </trkpt>
      <trkpt lat="47.16975" lon="5.9122">
        <ele>229.4</ele>
        <time>2021-08-08T13:02:48Z</time>
      </trkpt>
      <trkpt lat="47.16977" lon="5.91213">
        <ele>229.6</ele>
        <time>2021-08-08T13:02:52Z</time>
      </trkpt>
      <trkpt lat="47.16978" lon="5.91206">
        <ele>230</ele>
        <time>2021-08-08T13:02:57Z</time>
      </trkpt>
      <trkpt lat="47.16979" lon="5.91198">
        <ele>230</ele>
        <time>2021-08-08T13:03:02Z</time>
      </trkpt>
      <trkpt lat="47.16978" lon="5.91191">
        <ele>229.8</ele>
        <time>2021-08-08T13:03:06Z</time>
      </trkpt>
      <trkpt lat="47.16978" lon="5.91185">
        <ele>229.5</ele>
        <time>2021-08-08T13:03:10Z</time>
      </trkpt>
      <trkpt lat="47.1698" lon="5.91178">
        <ele>229.1</ele>
        <time>2021-08-08T13:03:14Z</time>
      </trkpt>
      <trkpt lat="47.16984" lon="5.91172">
        <ele>228.8</ele>
        <time>2021-08-08T13:03:18Z</time>
      </trkpt>
      <trkpt lat="47.16986" lon="5.91165">
        <ele>228.4</ele>
        <time>2021-08-08T13:03:22Z</time>
      </trkpt>
      <trkpt lat="47.1699" lon="5.91158">
        <ele>227.9</ele>
        <time>2021-08-08T13:03:26Z</time>
      </trkpt>
      <trkpt lat="47.16992" lon="5.91151">
        <ele>227.5</ele>
        <time>2021-08-08T13:03:30Z</time>
      </trkpt>
      <trkpt lat="47.16992" lon="5.91143">
        <ele>227.5</ele>
        <time>2021-08-08T13:03:34Z</time>
      </trkpt>
      <trkpt lat="47.16995" lon="5.91137">
        <ele>227.5</ele>
        <time>2021-08-08T13:03:38Z</time>
      </trkpt>
      <trkpt lat="47.16997" lon="5.9113">
        <ele>226.9</ele>
        <time>2021-08-08T13:03:43Z</time>
      </trkpt>
      <trkpt lat="47.16996" lon="5.91123">
        <ele>226.5</ele>
        <time>2021-08-08T13:03:48Z</time>
      </trkpt>
      <trkpt lat="47.16995" lon="5.91116">
        <ele>226.5</ele>
        <time>2021-08-08T13:03:52Z</time>
      </trkpt>
      <trkpt lat="47.16995" lon="5.91108">
        <ele>226.4</ele>
        <time>2021-08-08T13:03:56Z</time>
      </trkpt>
      <trkpt lat="47.16996" lon="5.91101">
        <ele>226.2</ele>
        <time>2021-08-08T13:04:00Z</time>
      </trkpt>
      <trkpt lat="47.16998" lon="5.91094">
        <ele>225.8</ele>
        <time>2021-08-08T13:04:04Z</time>
      </trkpt>
      <trkpt lat="47.17" lon="5.91087">
        <ele>225.5</ele>
        <time>2021-08-08T13:04:08Z</time>
      </trkpt>
      <trkpt lat="47.17001" lon="5.91081">
        <ele>225.3</ele>
        <time>2021-08-08T13:04:12Z</time>
      </trkpt>
      <trkpt lat="47.17001" lon="5.91074">
        <ele>225.5</ele>
        <time>2021-08-08T13:04:16Z</time>
      </trkpt>
      <trkpt lat="47.17004" lon="5.91067">
        <ele>225.9</ele>
        <time>2021-08-08T13:04:20Z</time>
      </trkpt>
      <trkpt lat="47.17007" lon="5.9106">
        <ele>226.4</ele>
        <time>2021-08-08T13:04:24Z</time>
      </trkpt>
      <trkpt lat="47.1701" lon="5.91054">
        <ele>226.8</ele>
        <time>2021-08-08T13:04:28Z</time>
      </trkpt>
      <trkpt lat="47.17012" lon="5.91048">
        <ele>226.7</ele>
        <time>2021-08-08T13:04:32Z</time>
      </trkpt>
      <trkpt lat="47.17014" lon="5.91043">
        <ele>226.2</ele>
        <time>2021-08-08T13:04:37Z</time>
      </trkpt>
      <trkpt lat="47.17016" lon="5.91036">
        <ele>224.7</ele>
        <time>2021-08-08T13:04:43Z</time>
      </trkpt>
      <trkpt lat="47.17014" lon="5.91028">
        <ele>223.3</ele>
        <time>2021-08-08T13:04:47Z</time>
      </trkpt>
      <trkpt lat="47.17017" lon="5.91021">
        <ele>222.7</ele>
        <time>2021-08-08T13:04:51Z</time>
      </trkpt>
      <trkpt lat="47.17019" lon="5.91014">
        <ele>222.5</ele>
        <time>2021-08-08T13:04:55Z</time>
      </trkpt>
      <trkpt lat="47.17021" lon="5.91007">
        <ele>222.9</ele>
        <time>2021-08-08T13:04:59Z</time>
      </trkpt>
      <trkpt lat="47.17025" lon="5.91">
        <ele>223.3</ele>
        <time>2021-08-08T13:05:03Z</time>
      </trkpt>
      <trkpt lat="47.17028" lon="5.90995">
        <ele>224.1</ele>
        <time>2021-08-08T13:05:07Z</time>
      </trkpt>
      <trkpt lat="47.17031" lon="5.90989">
        <ele>225.4</ele>
        <time>2021-08-08T13:05:11Z</time>
      </trkpt>
      <trkpt lat="47.17034" lon="5.90983">
        <ele>226.8</ele>
        <time>2021-08-08T13:05:15Z</time>
      </trkpt>
      <trkpt lat="47.17036" lon="5.90975">
        <ele>228.3</ele>
        <time>2021-08-08T13:05:20Z</time>
      </trkpt>
      <trkpt lat="47.17039" lon="5.9097">
        <ele>229.5</ele>
        <time>2021-08-08T13:05:25Z</time>
      </trkpt>
      <trkpt lat="47.17042" lon="5.90965">
        <ele>230.3</ele>
        <time>2021-08-08T13:05:29Z</time>
      </trkpt>
      <trkpt lat="47.17044" lon="5.90957">
        <ele>230.8</ele>
        <time>2021-08-08T13:05:33Z</time>
      </trkpt>
      <trkpt lat="47.17047" lon="5.90952">
        <ele>231.2</ele>
        <time>2021-08-08T13:05:36Z</time>
      </trkpt>
      <trkpt lat="47.17051" lon="5.90946">
        <ele>231.5</ele>
        <time>2021-08-08T13:05:40Z</time>
      </trkpt>
      <trkpt lat="47.17054" lon="5.90941">
        <ele>232</ele>
        <time>2021-08-08T13:05:44Z</time>
      </trkpt>
      <trkpt lat="47.17056" lon="5.90935">
        <ele>232.9</ele>
        <time>2021-08-08T13:05:49Z</time>
      </trkpt>
      <trkpt lat="47.17059" lon="5.90929">
        <ele>234.3</ele>
        <time>2021-08-08T13:05:53Z</time>
      </trkpt>
      <trkpt lat="47.17062" lon="5.90923">
        <ele>236</ele>
        <time>2021-08-08T13:05:57Z</time>
      </trkpt>
      <trkpt lat="47.17065" lon="5.90918">
        <ele>237.2</ele>
        <time>2021-08-08T13:06:00Z</time>
      </trkpt>
      <trkpt lat="47.17067" lon="5.9091">
        <ele>237.8</ele>
        <time>2021-08-08T13:06:05Z</time>
      </trkpt>
      <trkpt lat="47.1707" lon="5.90904">
        <ele>238.1</ele>
        <time>2021-08-08T13:06:09Z</time>
      </trkpt>
      <trkpt lat="47.17074" lon="5.90898">
        <ele>238.1</ele>
        <time>2021-08-08T13:06:13Z</time>
      </trkpt>
      <trkpt lat="47.17075" lon="5.9089">
        <ele>237.5</ele>
        <time>2021-08-08T13:06:18Z</time>
      </trkpt>
      <trkpt lat="47.17071" lon="5.90885">
        <ele>236.4</ele>
        <time>2021-08-08T13:06:24Z</time>
      </trkpt>
      <trkpt lat="47.1707" lon="5.90878">
        <ele>235.4</ele>
        <time>2021-08-08T13:06:31Z</time>
      </trkpt>
      <trkpt lat="47.17072" lon="5.90873">
        <ele>234.9</ele>
        <time>2021-08-08T13:06:36Z</time>
      </trkpt>
      <trkpt lat="47.17076" lon="5.90866">
        <ele>234.5</ele>
        <time>2021-08-08T13:06:41Z</time>
      </trkpt>
      <trkpt lat="47.17078" lon="5.90859">
        <ele>234.4</ele>
        <time>2021-08-08T13:06:44Z</time>
      </trkpt>
      <trkpt lat="47.1708" lon="5.90853">
        <ele>234.4</ele>
        <time>2021-08-08T13:06:47Z</time>
      </trkpt>
      <trkpt lat="47.17083" lon="5.90847">
        <ele>234.2</ele>
        <time>2021-08-08T13:06:51Z</time>
      </trkpt>
      <trkpt lat="47.17087" lon="5.90843">
        <ele>233.8</ele>
        <time>2021-08-08T13:06:59Z</time>
      </trkpt>
      <trkpt lat="47.17091" lon="5.90839">
        <ele>234</ele>
        <time>2021-08-08T13:07:03Z</time>
      </trkpt>
      <trkpt lat="47.17096" lon="5.90838">
        <ele>234.2</ele>
        <time>2021-08-08T13:07:08Z</time>
      </trkpt>
      <trkpt lat="47.17097" lon="5.90831">
        <ele>234</ele>
        <time>2021-08-08T13:07:18Z</time>
      </trkpt>
      <trkpt lat="47.17095" lon="5.90825">
        <ele>233.7</ele>
        <time>2021-08-08T13:07:34Z</time>
      </trkpt>
      <trkpt lat="47.17092" lon="5.9082">
        <ele>232.9</ele>
        <time>2021-08-08T13:07:42Z</time>
      </trkpt>
      <trkpt lat="47.17095" lon="5.90814">
        <ele>232.2</ele>
        <time>2021-08-08T13:07:45Z</time>
      </trkpt>
      <trkpt lat="47.17098" lon="5.90808">
        <ele>231.3</ele>
        <time>2021-08-08T13:07:49Z</time>
      </trkpt>
      <trkpt lat="47.17102" lon="5.90802">
        <ele>230.3</ele>
        <time>2021-08-08T13:07:55Z</time>
      </trkpt>
      <trkpt lat="47.17104" lon="5.90795">
        <ele>229.8</ele>
        <time>2021-08-08T13:08:00Z</time>
      </trkpt>
      <trkpt lat="47.17102" lon="5.90789">
        <ele>228.2</ele>
        <time>2021-08-08T13:08:05Z</time>
      </trkpt>
      <trkpt lat="47.17098" lon="5.90784">
        <ele>226.2</ele>
        <time>2021-08-08T13:08:10Z</time>
      </trkpt>
      <trkpt lat="47.17099" lon="5.90777">
        <ele>224</ele>
        <time>2021-08-08T13:08:33Z</time>
      </trkpt>
      <trkpt lat="47.17111" lon="5.90764">
        <ele>223.6</ele>
        <time>2021-08-08T13:08:46Z</time>
      </trkpt>
      <trkpt lat="47.17107" lon="5.90768">
        <ele>222.5</ele>
        <time>2021-08-08T13:08:53Z</time>
      </trkpt>
      <trkpt lat="47.1711" lon="5.90761">
        <ele>218</ele>
        <time>2021-08-08T13:09:02Z</time>
      </trkpt>
      <trkpt lat="47.17109" lon="5.90754">
        <ele>218.4</ele>
        <time>2021-08-08T13:09:14Z</time>
      </trkpt>
      <trkpt lat="47.1711" lon="5.90761">
        <ele>225.8</ele>
        <time>2021-08-08T13:09:32Z</time>
      </trkpt>
      <trkpt lat="47.1711" lon="5.90768">
        <ele>226.9</ele>
        <time>2021-08-08T13:09:38Z</time>
      </trkpt>
      <trkpt lat="47.17112" lon="5.90775">
        <ele>227.7</ele>
        <time>2021-08-08T13:09:46Z</time>
      </trkpt>
      <trkpt lat="47.17117" lon="5.90775">
        <ele>228.2</ele>
        <time>2021-08-08T13:09:51Z</time>
      </trkpt>
      <trkpt lat="47.1712" lon="5.90769">
        <ele>229.7</ele>
        <time>2021-08-08T13:09:57Z</time>
      </trkpt>
      <trkpt lat="47.17117" lon="5.90765">
        <ele>230.6</ele>
        <time>2021-08-08T13:10:03Z</time>
      </trkpt>
      <trkpt lat="47.17112" lon="5.90762">
        <ele>231</ele>
        <time>2021-08-08T13:10:07Z</time>
      </trkpt>
      <trkpt lat="47.17111" lon="5.90768">
        <ele>231.9</ele>
        <time>2021-08-08T13:10:12Z</time>
      </trkpt>
      <trkpt lat="47.17114" lon="5.90774">
        <ele>235.6</ele>
        <time>2021-08-08T13:10:28Z</time>
      </trkpt>
      <trkpt lat="47.17119" lon="5.90773">
        <ele>234.7</ele>
        <time>2021-08-08T13:10:33Z</time>
      </trkpt>
      <trkpt lat="47.17124" lon="5.90767">
        <ele>233.6</ele>
        <time>2021-08-08T13:10:37Z</time>
      </trkpt>
      <trkpt lat="47.17129" lon="5.90765">
        <ele>232.2</ele>
        <time>2021-08-08T13:10:42Z</time>
      </trkpt>
      <trkpt lat="47.17133" lon="5.90764">
        <ele>231.9</ele>
        <time>2021-08-08T13:10:47Z</time>
      </trkpt>
      <trkpt lat="47.17138" lon="5.90759">
        <ele>231.9</ele>
        <time>2021-08-08T13:10:55Z</time>
      </trkpt>
      <trkpt lat="47.17142" lon="5.90757">
        <ele>232.1</ele>
        <time>2021-08-08T13:11:00Z</time>
      </trkpt>
      <trkpt lat="47.17147" lon="5.90757">
        <ele>232.5</ele>
        <time>2021-08-08T13:11:07Z</time>
      </trkpt>
      <trkpt lat="47.17152" lon="5.90759">
        <ele>232.6</ele>
        <time>2021-08-08T13:11:12Z</time>
      </trkpt>
      <trkpt lat="47.17156" lon="5.90764">
        <ele>232.5</ele>
        <time>2021-08-08T13:11:32Z</time>
      </trkpt>
      <trkpt lat="47.17151" lon="5.9076">
        <ele>232.2</ele>
        <time>2021-08-08T13:12:17Z</time>
      </trkpt>
      <trkpt lat="47.17156" lon="5.90763">
        <ele>231.7</ele>
        <time>2021-08-08T13:12:42Z</time>
      </trkpt>
      <trkpt lat="47.17157" lon="5.9077">
        <ele>232.7</ele>
        <time>2021-08-08T13:12:54Z</time>
      </trkpt>
      <trkpt lat="47.17161" lon="5.90768">
        <ele>233.4</ele>
        <time>2021-08-08T13:13:12Z</time>
      </trkpt>
      <trkpt lat="47.17166" lon="5.90769">
        <ele>234.1</ele>
        <time>2021-08-08T13:13:20Z</time>
      </trkpt>
      <trkpt lat="47.17161" lon="5.9077">
        <ele>237.5</ele>
        <time>2021-08-08T13:13:46Z</time>
      </trkpt>
      <trkpt lat="47.17157" lon="5.90772">
        <ele>238.4</ele>
        <time>2021-08-08T13:13:58Z</time>
      </trkpt>
      <trkpt lat="47.17162" lon="5.90769">
        <ele>238</ele>
        <time>2021-08-08T13:15:09Z</time>
      </trkpt>
      <trkpt lat="47.17161" lon="5.90762">
        <ele>239.2</ele>
        <time>2021-08-08T13:15:19Z</time>
      </trkpt>
      <trkpt lat="47.17157" lon="5.90761">
        <ele>239.6</ele>
        <time>2021-08-08T13:15:25Z</time>
      </trkpt>
      <trkpt lat="47.17152" lon="5.90765">
        <ele>240.2</ele>
        <time>2021-08-08T13:15:31Z</time>
      </trkpt>
      <trkpt lat="47.17155" lon="5.90757">
        <ele>241.8</ele>
        <time>2021-08-08T13:15:42Z</time>
      </trkpt>
      <trkpt lat="47.17158" lon="5.9075">
        <ele>242.2</ele>
        <time>2021-08-08T13:15:46Z</time>
      </trkpt>
      <trkpt lat="47.17158" lon="5.90744">
        <ele>243.4</ele>
        <time>2021-08-08T13:15:52Z</time>
      </trkpt>
      <trkpt lat="47.17161" lon="5.90738">
        <ele>242.9</ele>
        <time>2021-08-08T13:16:01Z</time>
      </trkpt>
      <trkpt lat="47.17164" lon="5.90732">
        <ele>240.8</ele>
        <time>2021-08-08T13:16:08Z</time>
      </trkpt>
      <trkpt lat="47.17168" lon="5.90729">
        <ele>238.4</ele>
        <time>2021-08-08T13:16:15Z</time>
      </trkpt>
      <trkpt lat="47.17172" lon="5.90725">
        <ele>236.7</ele>
        <time>2021-08-08T13:16:21Z</time>
      </trkpt>
      <trkpt lat="47.17173" lon="5.90718">
        <ele>234.8</ele>
        <time>2021-08-08T13:16:28Z</time>
      </trkpt>
      <trkpt lat="47.17174" lon="5.90712">
        <ele>233.2</ele>
        <time>2021-08-08T13:16:33Z</time>
      </trkpt>
      <trkpt lat="47.17177" lon="5.90705">
        <ele>232.6</ele>
        <time>2021-08-08T13:16:38Z</time>
      </trkpt>
      <trkpt lat="47.17176" lon="5.90698">
        <ele>233.2</ele>
        <time>2021-08-08T13:16:43Z</time>
      </trkpt>
      <trkpt lat="47.17171" lon="5.90697">
        <ele>233.1</ele>
        <time>2021-08-08T13:16:49Z</time>
      </trkpt>
      <trkpt lat="47.17166" lon="5.90697">
        <ele>232.6</ele>
        <time>2021-08-08T13:16:54Z</time>
      </trkpt>
      <trkpt lat="47.17162" lon="5.90702">
        <ele>231.4</ele>
        <time>2021-08-08T13:17:01Z</time>
      </trkpt>
      <trkpt lat="47.17167" lon="5.90699">
        <ele>229.4</ele>
        <time>2021-08-08T13:17:11Z</time>
      </trkpt>
      <trkpt lat="47.17172" lon="5.90696">
        <ele>228.9</ele>
        <time>2021-08-08T13:17:14Z</time>
      </trkpt>
      <trkpt lat="47.17177" lon="5.90693">
        <ele>228.8</ele>
        <time>2021-08-08T13:17:19Z</time>
      </trkpt>
      <trkpt lat="47.17181" lon="5.90689">
        <ele>228.9</ele>
        <time>2021-08-08T13:17:23Z</time>
      </trkpt>
      <trkpt lat="47.17185" lon="5.90685">
        <ele>229.1</ele>
        <time>2021-08-08T13:17:26Z</time>
      </trkpt>
      <trkpt lat="47.1719" lon="5.90683">
        <ele>229.1</ele>
        <time>2021-08-08T13:17:29Z</time>
      </trkpt>
      <trkpt lat="47.17194" lon="5.9068">
        <ele>229.1</ele>
        <time>2021-08-08T13:17:32Z</time>
      </trkpt>
      <trkpt lat="47.17198" lon="5.90673">
        <ele>229.3</ele>
        <time>2021-08-08T13:17:35Z</time>
      </trkpt>
      <trkpt lat="47.17202" lon="5.90669">
        <ele>229.4</ele>
        <time>2021-08-08T13:17:38Z</time>
      </trkpt>
      <trkpt lat="47.17206" lon="5.90665">
        <ele>230</ele>
        <time>2021-08-08T13:17:43Z</time>
      </trkpt>
      <trkpt lat="47.17211" lon="5.90661">
        <ele>230.6</ele>
        <time>2021-08-08T13:17:57Z</time>
      </trkpt>
      <trkpt lat="47.17215" lon="5.90658">
        <ele>230.6</ele>
        <time>2021-08-08T13:18:02Z</time>
      </trkpt>
      <trkpt lat="47.17219" lon="5.90653">
        <ele>230.6</ele>
        <time>2021-08-08T13:18:10Z</time>
      </trkpt>
      <trkpt lat="47.17222" lon="5.90647">
        <ele>230.2</ele>
        <time>2021-08-08T13:18:15Z</time>
      </trkpt>
      <trkpt lat="47.17224" lon="5.90642">
        <ele>230</ele>
        <time>2021-08-08T13:18:18Z</time>
      </trkpt>
      <trkpt lat="47.17227" lon="5.90636">
        <ele>230</ele>
        <time>2021-08-08T13:18:22Z</time>
      </trkpt>
      <trkpt lat="47.17231" lon="5.90632">
        <ele>230.2</ele>
        <time>2021-08-08T13:18:26Z</time>
      </trkpt>
      <trkpt lat="47.17236" lon="5.90627">
        <ele>231</ele>
        <time>2021-08-08T13:18:30Z</time>
      </trkpt>
      <trkpt lat="47.1724" lon="5.90624">
        <ele>232</ele>
        <time>2021-08-08T13:18:34Z</time>
      </trkpt>
      <trkpt lat="47.17244" lon="5.90619">
        <ele>232.5</ele>
        <time>2021-08-08T13:18:39Z</time>
      </trkpt>
      <trkpt lat="47.17245" lon="5.90612">
        <ele>231.5</ele>
        <time>2021-08-08T13:18:43Z</time>
      </trkpt>
      <trkpt lat="47.17246" lon="5.90605">
        <ele>229.5</ele>
        <time>2021-08-08T13:18:50Z</time>
      </trkpt>
      <trkpt lat="47.17251" lon="5.90606">
        <ele>228.1</ele>
        <time>2021-08-08T13:18:56Z</time>
      </trkpt>
      <trkpt lat="47.17256" lon="5.90606">
        <ele>227.7</ele>
        <time>2021-08-08T13:18:59Z</time>
      </trkpt>
      <trkpt lat="47.1726" lon="5.90607">
        <ele>227.8</ele>
        <time>2021-08-08T13:19:02Z</time>
      </trkpt>
      <trkpt lat="47.17266" lon="5.90605">
        <ele>228</ele>
        <time>2021-08-08T13:19:06Z</time>
      </trkpt>
      <trkpt lat="47.17272" lon="5.90604">
        <ele>228.3</ele>
        <time>2021-08-08T13:19:10Z</time>
      </trkpt>
      <trkpt lat="47.17277" lon="5.90602">
        <ele>228.8</ele>
        <time>2021-08-08T13:19:14Z</time>
      </trkpt>
      <trkpt lat="47.1728" lon="5.90597">
        <ele>229.1</ele>
        <time>2021-08-08T13:19:21Z</time>
      </trkpt>
      <trkpt lat="47.17281" lon="5.9059">
        <ele>227.8</ele>
        <time>2021-08-08T13:19:30Z</time>
      </trkpt>
      <trkpt lat="47.17286" lon="5.90587">
        <ele>226.6</ele>
        <time>2021-08-08T13:19:36Z</time>
      </trkpt>
      <trkpt lat="47.17292" lon="5.90586">
        <ele>226.3</ele>
        <time>2021-08-08T13:19:41Z</time>
      </trkpt>
      <trkpt lat="47.17298" lon="5.90586">
        <ele>226.2</ele>
        <time>2021-08-08T13:19:44Z</time>
      </trkpt>
      <trkpt lat="47.17302" lon="5.90586">
        <ele>226.3</ele>
        <time>2021-08-08T13:19:47Z</time>
      </trkpt>
      <trkpt lat="47.17307" lon="5.90584">
        <ele>226.4</ele>
        <time>2021-08-08T13:19:52Z</time>
      </trkpt>
      <trkpt lat="47.17311" lon="5.90581">
        <ele>225.9</ele>
        <time>2021-08-08T13:19:59Z</time>
      </trkpt>
      <trkpt lat="47.17317" lon="5.90577">
        <ele>225.4</ele>
        <time>2021-08-08T13:20:03Z</time>
      </trkpt>
      <trkpt lat="47.17322" lon="5.90577">
        <ele>225</ele>
        <time>2021-08-08T13:20:06Z</time>
      </trkpt>
      <trkpt lat="47.17327" lon="5.90578">
        <ele>224.8</ele>
        <time>2021-08-08T13:20:09Z</time>
      </trkpt>
      <trkpt lat="47.17331" lon="5.9058">
        <ele>224.7</ele>
        <time>2021-08-08T13:20:12Z</time>
      </trkpt>
      <trkpt lat="47.17336" lon="5.90578">
        <ele>224.7</ele>
        <time>2021-08-08T13:20:15Z</time>
      </trkpt>
      <trkpt lat="47.1734" lon="5.90575">
        <ele>224.7</ele>
        <time>2021-08-08T13:20:18Z</time>
      </trkpt>
      <trkpt lat="47.17344" lon="5.90572">
        <ele>224.6</ele>
        <time>2021-08-08T13:20:25Z</time>
      </trkpt>
      <trkpt lat="47.17349" lon="5.90572">
        <ele>224.4</ele>
        <time>2021-08-08T13:20:31Z</time>
      </trkpt>
      <trkpt lat="47.17353" lon="5.90568">
        <ele>224</ele>
        <time>2021-08-08T13:20:36Z</time>
      </trkpt>
      <trkpt lat="47.17357" lon="5.90568">
        <ele>223.9</ele>
        <time>2021-08-08T13:20:40Z</time>
      </trkpt>
      <trkpt lat="47.17362" lon="5.9057">
        <ele>223.6</ele>
        <time>2021-08-08T13:20:44Z</time>
      </trkpt>
      <trkpt lat="47.17367" lon="5.90571">
        <ele>223.2</ele>
        <time>2021-08-08T13:20:49Z</time>
      </trkpt>
      <trkpt lat="47.17371" lon="5.9057">
        <ele>222.7</ele>
        <time>2021-08-08T13:20:55Z</time>
      </trkpt>
      <trkpt lat="47.17375" lon="5.90565">
        <ele>222.1</ele>
        <time>2021-08-08T13:21:03Z</time>
      </trkpt>
      <trkpt lat="47.17379" lon="5.90565">
        <ele>221.5</ele>
        <time>2021-08-08T13:21:21Z</time>
      </trkpt>
      <trkpt lat="47.17385" lon="5.90565">
        <ele>220.7</ele>
        <time>2021-08-08T13:21:26Z</time>
      </trkpt>
      <trkpt lat="47.1739" lon="5.90566">
        <ele>220.3</ele>
        <time>2021-08-08T13:21:30Z</time>
      </trkpt>
      <trkpt lat="47.17394" lon="5.90562">
        <ele>219.1</ele>
        <time>2021-08-08T13:21:37Z</time>
      </trkpt>
      <trkpt lat="47.17397" lon="5.90558">
        <ele>217.6</ele>
        <time>2021-08-08T13:21:42Z</time>
      </trkpt>
      <trkpt lat="47.17402" lon="5.90559">
        <ele>216</ele>
        <time>2021-08-08T13:21:48Z</time>
      </trkpt>
      <trkpt lat="47.17407" lon="5.90562">
        <ele>216</ele>
        <time>2021-08-08T13:21:52Z</time>
      </trkpt>
      <trkpt lat="47.17412" lon="5.90561">
        <ele>216.5</ele>
        <time>2021-08-08T13:21:57Z</time>
      </trkpt>
      <trkpt lat="47.17416" lon="5.90559">
        <ele>217.5</ele>
        <time>2021-08-08T13:22:02Z</time>
      </trkpt>
      <trkpt lat="47.17421" lon="5.90556">
        <ele>218.5</ele>
        <time>2021-08-08T13:22:07Z</time>
      </trkpt>
      <trkpt lat="47.17424" lon="5.90551">
        <ele>219.1</ele>
        <time>2021-08-08T13:22:12Z</time>
      </trkpt>
      <trkpt lat="47.17427" lon="5.90546">
        <ele>219.3</ele>
        <time>2021-08-08T13:22:18Z</time>
      </trkpt>
      <trkpt lat="47.1743" lon="5.90541">
        <ele>219.6</ele>
        <time>2021-08-08T13:22:23Z</time>
      </trkpt>
      <trkpt lat="47.17433" lon="5.90535">
        <ele>220.2</ele>
        <time>2021-08-08T13:22:29Z</time>
      </trkpt>
      <trkpt lat="47.17432" lon="5.90528">
        <ele>220.6</ele>
        <time>2021-08-08T13:22:33Z</time>
      </trkpt>
      <trkpt lat="47.17434" lon="5.9052">
        <ele>221.6</ele>
        <time>2021-08-08T13:22:39Z</time>
      </trkpt>
      <trkpt lat="47.17438" lon="5.90516">
        <ele>222.2</ele>
        <time>2021-08-08T13:22:42Z</time>
      </trkpt>
      <trkpt lat="47.17443" lon="5.90513">
        <ele>222.7</ele>
        <time>2021-08-08T13:22:45Z</time>
      </trkpt>
      <trkpt lat="47.17448" lon="5.9051">
        <ele>223.3</ele>
        <time>2021-08-08T13:22:48Z</time>
      </trkpt>
      <trkpt lat="47.17452" lon="5.90506">
        <ele>224.3</ele>
        <time>2021-08-08T13:22:52Z</time>
      </trkpt>
      <trkpt lat="47.17456" lon="5.905">
        <ele>225.4</ele>
        <time>2021-08-08T13:22:58Z</time>
      </trkpt>
      <trkpt lat="47.17461" lon="5.90498">
        <ele>228</ele>
        <time>2021-08-08T13:23:15Z</time>
      </trkpt>
      <trkpt lat="47.17461" lon="5.90491">
        <ele>228.8</ele>
        <time>2021-08-08T13:23:22Z</time>
      </trkpt>
      <trkpt lat="47.17463" lon="5.90484">
        <ele>228.9</ele>
        <time>2021-08-08T13:23:28Z</time>
      </trkpt>
      <trkpt lat="47.17464" lon="5.90477">
        <ele>229</ele>
        <time>2021-08-08T13:23:35Z</time>
      </trkpt>
      <trkpt lat="47.17464" lon="5.90469">
        <ele>229.2</ele>
        <time>2021-08-08T13:23:40Z</time>
      </trkpt>
      <trkpt lat="47.17465" lon="5.90463">
        <ele>229.4</ele>
        <time>2021-08-08T13:23:44Z</time>
      </trkpt>
      <trkpt lat="47.17467" lon="5.90456">
        <ele>229.7</ele>
        <time>2021-08-08T13:23:47Z</time>
      </trkpt>
      <trkpt lat="47.17468" lon="5.90448">
        <ele>230.1</ele>
        <time>2021-08-08T13:23:51Z</time>
      </trkpt>
      <trkpt lat="47.1747" lon="5.90441">
        <ele>230.5</ele>
        <time>2021-08-08T13:23:55Z</time>
      </trkpt>
      <trkpt lat="47.17471" lon="5.90433">
        <ele>230.5</ele>
        <time>2021-08-08T13:24:00Z</time>
      </trkpt>
      <trkpt lat="47.17473" lon="5.90427">
        <ele>230.3</ele>
        <time>2021-08-08T13:24:05Z</time>
      </trkpt>
      <trkpt lat="47.17477" lon="5.90421">
        <ele>230.5</ele>
        <time>2021-08-08T13:24:09Z</time>
      </trkpt>
      <trkpt lat="47.17479" lon="5.90415">
        <ele>230.5</ele>
        <time>2021-08-08T13:24:13Z</time>
      </trkpt>
      <trkpt lat="47.1748" lon="5.90408">
        <ele>230.9</ele>
        <time>2021-08-08T13:24:17Z</time>
      </trkpt>
      <trkpt lat="47.17481" lon="5.904">
        <ele>230.9</ele>
        <time>2021-08-08T13:24:22Z</time>
      </trkpt>
      <trkpt lat="47.17479" lon="5.90394">
        <ele>230.8</ele>
        <time>2021-08-08T13:24:26Z</time>
      </trkpt>
      <trkpt lat="47.17479" lon="5.90387">
        <ele>230.6</ele>
        <time>2021-08-08T13:24:30Z</time>
      </trkpt>
      <trkpt lat="47.17482" lon="5.90381">
        <ele>230.5</ele>
        <time>2021-08-08T13:24:34Z</time>
      </trkpt>
      <trkpt lat="47.17486" lon="5.90375">
        <ele>230.9</ele>
        <time>2021-08-08T13:24:37Z</time>
      </trkpt>
      <trkpt lat="47.17489" lon="5.9037">
        <ele>230.9</ele>
        <time>2021-08-08T13:24:40Z</time>
      </trkpt>
      <trkpt lat="47.17491" lon="5.90362">
        <ele>231.3</ele>
        <time>2021-08-08T13:24:45Z</time>
      </trkpt>
      <trkpt lat="47.17489" lon="5.90355">
        <ele>231.3</ele>
        <time>2021-08-08T13:24:49Z</time>
      </trkpt>
      <trkpt lat="47.17488" lon="5.90348">
        <ele>230.7</ele>
        <time>2021-08-08T13:24:53Z</time>
      </trkpt>
      <trkpt lat="47.17487" lon="5.9034">
        <ele>230.3</ele>
        <time>2021-08-08T13:24:57Z</time>
      </trkpt>
      <trkpt lat="47.17488" lon="5.90333">
        <ele>230.3</ele>
        <time>2021-08-08T13:25:01Z</time>
      </trkpt>
      <trkpt lat="47.17488" lon="5.90326">
        <ele>229.8</ele>
        <time>2021-08-08T13:25:08Z</time>
      </trkpt>
      <trkpt lat="47.17486" lon="5.90318">
        <ele>230</ele>
        <time>2021-08-08T13:25:12Z</time>
      </trkpt>
      <trkpt lat="47.17486" lon="5.90311">
        <ele>230.5</ele>
        <time>2021-08-08T13:25:17Z</time>
      </trkpt>
      <trkpt lat="47.17489" lon="5.90305">
        <ele>230.7</ele>
        <time>2021-08-08T13:25:22Z</time>
      </trkpt>
      <trkpt lat="47.17492" lon="5.90299">
        <ele>230.7</ele>
        <time>2021-08-08T13:25:28Z</time>
      </trkpt>
      <trkpt lat="47.17495" lon="5.90294">
        <ele>230.8</ele>
        <time>2021-08-08T13:25:32Z</time>
      </trkpt>
      <trkpt lat="47.17492" lon="5.90288">
        <ele>231.1</ele>
        <time>2021-08-08T13:25:38Z</time>
      </trkpt>
      <trkpt lat="47.1749" lon="5.90281">
        <ele>231.6</ele>
        <time>2021-08-08T13:25:49Z</time>
      </trkpt>
      <trkpt lat="47.17488" lon="5.90273">
        <ele>232</ele>
        <time>2021-08-08T13:25:54Z</time>
      </trkpt>
      <trkpt lat="47.17485" lon="5.90267">
        <ele>232.3</ele>
        <time>2021-08-08T13:26:00Z</time>
      </trkpt>
      <trkpt lat="47.17482" lon="5.90261">
        <ele>232.3</ele>
        <time>2021-08-08T13:26:05Z</time>
      </trkpt>
      <trkpt lat="47.17478" lon="5.90257">
        <ele>232</ele>
        <time>2021-08-08T13:26:11Z</time>
      </trkpt>
      <trkpt lat="47.1748" lon="5.9025">
        <ele>231.1</ele>
        <time>2021-08-08T13:26:16Z</time>
      </trkpt>
      <trkpt lat="47.17476" lon="5.90246">
        <ele>230.3</ele>
        <time>2021-08-08T13:26:21Z</time>
      </trkpt>
      <trkpt lat="47.17473" lon="5.90241">
        <ele>230.3</ele>
        <time>2021-08-08T13:26:29Z</time>
      </trkpt>
      <trkpt lat="47.17473" lon="5.90234">
        <ele>232.1</ele>
        <time>2021-08-08T13:26:36Z</time>
      </trkpt>
      <trkpt lat="47.17475" lon="5.90227">
        <ele>235.5</ele>
        <time>2021-08-08T13:26:41Z</time>
      </trkpt>
      <trkpt lat="47.17471" lon="5.90229">
        <ele>238.9</ele>
        <time>2021-08-08T13:26:52Z</time>
      </trkpt>
      <trkpt lat="47.17467" lon="5.90235">
        <ele>239.7</ele>
        <time>2021-08-08T13:26:57Z</time>
      </trkpt>
      <trkpt lat="47.17464" lon="5.9024">
        <ele>240.1</ele>
        <time>2021-08-08T13:27:01Z</time>
      </trkpt>
      <trkpt lat="47.1746" lon="5.90246">
        <ele>240.7</ele>
        <time>2021-08-08T13:27:05Z</time>
      </trkpt>
      <trkpt lat="47.17457" lon="5.90253">
        <ele>241.3</ele>
        <time>2021-08-08T13:27:10Z</time>
      </trkpt>
      <trkpt lat="47.17454" lon="5.90258">
        <ele>241.6</ele>
        <time>2021-08-08T13:27:16Z</time>
      </trkpt>
      <trkpt lat="47.17449" lon="5.90258">
        <ele>241.9</ele>
        <time>2021-08-08T13:27:24Z</time>
      </trkpt>
      <trkpt lat="47.17444" lon="5.90254">
        <ele>242.1</ele>
        <time>2021-08-08T13:27:29Z</time>
      </trkpt>
      <trkpt lat="47.17441" lon="5.90248">
        <ele>242.1</ele>
        <time>2021-08-08T13:27:35Z</time>
      </trkpt>
      <trkpt lat="47.17437" lon="5.90243">
        <ele>241.7</ele>
        <time>2021-08-08T13:27:42Z</time>
      </trkpt>
      <trkpt lat="47.17432" lon="5.90241">
        <ele>241.1</ele>
        <time>2021-08-08T13:27:48Z</time>
      </trkpt>
      <trkpt lat="47.17428" lon="5.90243">
        <ele>240.5</ele>
        <time>2021-08-08T13:28:09Z</time>
      </trkpt>
    </trkseg>
  </trk>
</gpx>